GEFSCGP_prec_meanprecacc_120.txt.gz
Total_Precipitation_Accumulation
0.30 0.46 0.67 0.78 0.80 0.67 0.50 0.38 0.32 0.30 0.31 0.28 0.21 0.19 0.17 0.17 0.16 0.16 0.16 0.15 0.16 0.15 0.18 0.21 0.23 0.25 0.25 0.25 0.29 0.36 0.41 0.51 0.62 0.85 1.18 1.61 1.83 1.96 1.98 2.00 1.90 1.69 1.47 1.49
0.34 0.32 0.30 0.38 0.41 0.46 0.42 0.34 0.28 0.26 0.24 0.22 0.14 0.11 0.10 0.09 0.09 0.11 0.11 0.12 0.14 0.15 0.13 0.12 0.13 0.15 0.15 0.15 0.17 0.27 0.33 0.42 0.57 0.85 1.17 1.52 1.88 1.97 1.99 2.01 1.97 1.83 1.71 1.71
0.27 0.26 0.26 0.31 0.34 0.37 0.35 0.34 0.31 0.28 0.26 0.18 0.13 0.10 0.07 0.06 0.07 0.08 0.08 0.10 0.13 0.13 0.13 0.11 0.09 0.09 0.11 0.12 0.12 0.18 0.24 0.39 0.67 1.01 1.33 1.53 1.82 1.95 2.02 1.98 1.99 2.01 1.97 1.87
0.38 0.29 0.25 0.27 0.28 0.27 0.31 0.24 0.21 0.18 0.20 0.15 0.11 0.13 0.09 0.09 0.12 0.13 0.14 0.14 0.17 0.18 0.15 0.12 0.10 0.07 0.08 0.09 0.11 0.14 0.20 0.40 0.74 1.08 1.34 1.59 1.94 2.05 2.03 2.07 2.06 2.08 2.10 2.06
0.34 0.25 0.23 0.21 0.20 0.18 0.23 0.17 0.12 0.11 0.12 0.10 0.06 0.08 0.08 0.10 0.17 0.23 0.24 0.23 0.23 0.21 0.15 0.12 0.11 0.09 0.10 0.10 0.13 0.20 0.34 0.52 0.78 0.99 1.24 1.60 1.86 1.99 2.14 2.09 2.07 2.08 2.15 2.17
0.29 0.20 0.18 0.17 0.16 0.13 0.13 0.10 0.10 0.10 0.11 0.11 0.05 0.09 0.16 0.19 0.19 0.22 0.22 0.23 0.23 0.20 0.17 0.17 0.15 0.15 0.16 0.18 0.24 0.33 0.49 0.64 0.85 1.02 1.22 1.41 1.67 1.82 1.97 2.07 2.02 2.03 2.09 2.20
0.18 0.13 0.10 0.09 0.10 0.06 0.05 0.10 0.18 0.19 0.22 0.17 0.09 0.18 0.31 0.24 0.19 0.19 0.20 0.21 0.23 0.25 0.26 0.30 0.31 0.34 0.41 0.44 0.48 0.56 0.65 0.76 0.87 0.97 1.07 1.13 1.31 1.48 1.54 1.72 1.81 1.94 1.96 2.02
0.08 0.06 0.06 0.04 0.04 0.04 0.03 0.07 0.18 0.24 0.22 0.19 0.19 0.37 0.41 0.28 0.23 0.23 0.23 0.25 0.29 0.37 0.43 0.53 0.61 0.69 0.76 0.75 0.74 0.81 0.86 0.84 0.83 0.88 0.94 0.97 1.04 1.13 1.22 1.27 1.32 1.50 1.67 1.71
0.06 0.05 0.03 0.02 0.02 0.02 0.03 0.05 0.09 0.16 0.15 0.15 0.21 0.43 0.45 0.32 0.31 0.31 0.32 0.34 0.42 0.61 0.71 0.81 0.91 0.92 0.93 0.90 0.85 0.86 0.89 0.86 0.84 0.84 0.84 0.80 0.80 0.87 0.98 1.01 1.09 1.16 1.26 1.27
0.07 0.04 0.02 0.02 0.01 0.01 0.04 0.08 0.14 0.27 0.36 0.32 0.32 0.48 0.52 0.44 0.39 0.37 0.41 0.49 0.65 0.91 1.06 1.19 1.27 1.17 1.10 1.09 1.13 1.02 0.93 0.86 0.82 0.82 0.82 0.76 0.73 0.78 0.82 0.83 0.90 0.89 0.91 0.94
0.06 0.06 0.03 0.02 0.03 0.05 0.10 0.16 0.25 0.38 0.47 0.60 0.71 0.85 0.69 0.59 0.58 0.66 0.75 0.83 1.00 1.26 1.43 1.52 1.53 1.43 1.23 1.10 1.10 1.04 0.93 0.82 0.72 0.71 0.76 0.76 0.71 0.73 0.77 0.77 0.73 0.67 0.70 0.78
0.07 0.12 0.09 0.04 0.07 0.11 0.22 0.37 0.50 0.76 0.75 0.68 0.88 1.09 0.84 0.69 0.71 0.74 0.80 0.92 1.10 1.22 1.30 1.34 1.30 1.29 1.18 1.08 1.00 0.95 0.85 0.71 0.65 0.70 0.73 0.75 0.67 0.62 0.65 0.66 0.68 0.59 0.56 0.62
0.13 0.22 0.23 0.17 0.21 0.29 0.37 0.45 0.54 0.64 0.78 0.85 1.05 1.23 0.92 0.71 0.69 0.75 0.87 0.91 0.90 0.88 0.98 1.07 1.13 1.04 1.00 0.92 0.87 0.95 0.95 0.83 0.81 0.85 0.90 0.83 0.70 0.66 0.65 0.61 0.64 0.59 0.56 0.61
0.18 0.25 0.31 0.36 0.41 0.48 0.51 0.46 0.43 0.54 0.75 0.84 0.94 0.97 0.75 0.63 0.62 0.64 0.72 0.72 0.70 0.74 0.78 0.84 0.92 0.88 0.89 0.83 0.80 0.89 0.94 0.95 1.02 1.10 1.06 0.90 0.77 0.70 0.64 0.60 0.56 0.57 0.59 0.62
0.12 0.13 0.15 0.16 0.16 0.24 0.43 0.56 0.51 0.53 0.60 0.84 0.76 0.60 0.54 0.51 0.53 0.54 0.56 0.56 0.52 0.56 0.56 0.55 0.55 0.56 0.63 0.63 0.60 0.65 0.72 0.83 0.98 1.05 0.94 0.80 0.68 0.58 0.53 0.56 0.53 0.54 0.61 0.64
0.04 0.04 0.03 0.04 0.06 0.15 0.37 0.49 0.52 0.52 0.48 0.47 0.42 0.40 0.30 0.29 0.34 0.33 0.32 0.33 0.32 0.32 0.33 0.31 0.28 0.28 0.33 0.33 0.35 0.39 0.47 0.62 0.85 0.93 0.81 0.64 0.56 0.53 0.49 0.48 0.45 0.44 0.47 0.53
0.01 0.03 0.05 0.05 0.06 0.14 0.38 0.42 0.46 0.35 0.20 0.17 0.23 0.24 0.17 0.18 0.26 0.26 0.27 0.29 0.25 0.23 0.23 0.24 0.22 0.20 0.20 0.20 0.23 0.30 0.36 0.50 0.60 0.62 0.58 0.47 0.41 0.40 0.39 0.38 0.38 0.41 0.43 0.47
0.03 0.08 0.11 0.09 0.12 0.33 0.59 0.46 0.39 0.31 0.16 0.10 0.11 0.11 0.12 0.16 0.20 0.19 0.22 0.27 0.24 0.20 0.21 0.21 0.21 0.20 0.21 0.22 0.23 0.32 0.37 0.39 0.45 0.52 0.50 0.44 0.39 0.36 0.36 0.34 0.36 0.44 0.45 0.44
0.11 0.13 0.16 0.16 0.19 0.37 0.46 0.31 0.26 0.34 0.33 0.12 0.08 0.08 0.10 0.11 0.15 0.13 0.13 0.17 0.17 0.14 0.13 0.13 0.13 0.12 0.12 0.12 0.11 0.13 0.17 0.22 0.27 0.30 0.35 0.34 0.29 0.30 0.34 0.34 0.39 0.43 0.44 0.48
0.23 0.20 0.23 0.23 0.25 0.37 0.31 0.14 0.11 0.23 0.43 0.17 0.06 0.05 0.04 0.05 0.08 0.06 0.06 0.06 0.05 0.04 0.03 0.03 0.03 0.03 0.03 0.02 0.03 0.04 0.05 0.06 0.09 0.10 0.14 0.18 0.19 0.23 0.29 0.38 0.44 0.42 0.41 0.46
0.14 0.21 0.29 0.37 0.46 0.62 0.42 0.18 0.13 0.30 0.40 0.15 0.04 0.01 0.01 0.01 0.02 0.02 0.03 0.03 0.01 0.00 0.00 0.00 0.00 0.01 0.01 0.01 0.01 0.02 0.02 0.02 0.02 0.02 0.04 0.07 0.11 0.17 0.25 0.33 0.32 0.33 0.36 0.39
0.20 0.32 0.46 0.55 0.71 0.88 0.57 0.34 0.30 0.27 0.14 0.06 0.01 0.00 0.00 0.00 0.00 0.01 0.02 0.02 0.01 0.00 0.00 0.00 0.00 0.00 0.00 0.00 0.00 0.00 0.00 0.00 0.00 0.00 0.01 0.02 0.04 0.07 0.12 0.20 0.23 0.26 0.30 0.32
0.21 0.44 0.61 0.60 0.62 0.57 0.41 0.30 0.20 0.15 0.09 0.02 0.00 0.00 0.00 0.00 0.00 0.00 0.01 0.01 0.01 0.00 0.00 0.00 0.00 0.00 0.00 0.00 0.00 0.00 0.00 0.00 0.00 0.00 0.00 0.00 0.01 0.02 0.06 0.12 0.17 0.21 0.27 0.29
0.06 0.12 0.16 0.18 0.21 0.19 0.16 0.11 0.07 0.06 0.05 0.01 0.00 0.00 0.00 0.00 0.00 0.00 0.00 0.01 0.01 0.00 0.00 0.00 0.00 0.00 0.00 0.00 0.00 0.00 0.00 0.00 0.00 0.00 0.00 0.00 0.01 0.01 0.03 0.06 0.13 0.21 0.24 0.23
0.02 0.02 0.02 0.04 0.05 0.06 0.07 0.05 0.03 0.03 0.02 0.01 0.00 0.00 0.00 0.00 0.00 0.00 0.00 0.01 0.01 0.01 0.00 0.00 0.00 0.00 0.00 0.00 0.00 0.00 0.00 0.00 0.00 0.00 0.00 0.00 0.00 0.01 0.02 0.02 0.06 0.13 0.15 0.14
0.01 0.01 0.02 0.01 0.01 0.02 0.04 0.02 0.01 0.02 0.01 0.00 0.00 0.00 0.00 0.00 0.00 0.00 0.00 0.00 0.01 0.01 0.00 0.00 0.00 0.00 0.00 0.00 0.00 0.00 0.00 0.00 0.00 0.00 0.00 0.00 0.00 0.01 0.02 0.02 0.03 0.05 0.05 0.07

GEFSCGP_prec_meanprecacc_126.txt.gz
Total_Precipitation_Accumulation
0.31 0.48 0.69 0.81 0.84 0.74 0.57 0.43 0.35 0.33 0.34 0.31 0.25 0.22 0.19 0.21 0.17 0.17 0.17 0.16 0.16 0.15 0.19 0.22 0.23 0.26 0.25 0.25 0.29 0.36 0.41 0.51 0.62 0.85 1.18 1.62 1.83 1.96 1.98 2.00 1.90 1.69 1.48 1.49
0.35 0.33 0.31 0.40 0.44 0.50 0.46 0.38 0.30 0.29 0.27 0.25 0.17 0.14 0.12 0.11 0.09 0.11 0.11 0.12 0.15 0.15 0.14 0.12 0.13 0.15 0.15 0.15 0.17 0.27 0.33 0.42 0.57 0.85 1.17 1.52 1.88 1.97 1.99 2.01 1.97 1.83 1.71 1.71
0.28 0.26 0.27 0.33 0.36 0.39 0.37 0.36 0.33 0.30 0.28 0.21 0.15 0.12 0.09 0.07 0.07 0.08 0.09 0.10 0.14 0.14 0.13 0.11 0.09 0.09 0.11 0.12 0.12 0.18 0.24 0.39 0.67 1.01 1.33 1.53 1.82 1.95 2.02 1.98 1.99 2.01 1.97 1.87
0.39 0.30 0.27 0.30 0.29 0.28 0.33 0.26 0.22 0.20 0.21 0.17 0.13 0.14 0.10 0.09 0.12 0.13 0.14 0.15 0.18 0.18 0.15 0.13 0.10 0.07 0.08 0.09 0.11 0.14 0.20 0.40 0.74 1.08 1.34 1.59 1.94 2.05 2.03 2.07 2.06 2.08 2.10 2.06
0.36 0.26 0.25 0.23 0.21 0.20 0.25 0.18 0.14 0.12 0.12 0.11 0.07 0.09 0.09 0.11 0.17 0.23 0.24 0.23 0.23 0.21 0.15 0.13 0.11 0.09 0.10 0.10 0.13 0.20 0.34 0.52 0.78 0.99 1.24 1.60 1.86 1.99 2.14 2.09 2.07 2.08 2.15 2.17
0.31 0.21 0.19 0.18 0.18 0.15 0.15 0.11 0.10 0.10 0.11 0.11 0.05 0.09 0.17 0.19 0.19 0.22 0.23 0.23 0.23 0.20 0.17 0.17 0.16 0.16 0.16 0.18 0.24 0.33 0.49 0.64 0.85 1.02 1.22 1.41 1.67 1.82 1.97 2.07 2.02 2.03 2.09 2.20
0.20 0.15 0.12 0.10 0.12 0.08 0.07 0.11 0.18 0.19 0.22 0.17 0.09 0.18 0.31 0.24 0.19 0.19 0.20 0.21 0.23 0.25 0.26 0.30 0.31 0.34 0.41 0.44 0.48 0.56 0.65 0.76 0.87 0.97 1.07 1.13 1.31 1.48 1.54 1.72 1.81 1.94 1.96 2.02
0.09 0.08 0.07 0.05 0.05 0.04 0.04 0.07 0.18 0.24 0.22 0.20 0.19 0.37 0.41 0.28 0.23 0.23 0.23 0.25 0.29 0.37 0.43 0.53 0.61 0.69 0.76 0.75 0.74 0.81 0.86 0.84 0.83 0.88 0.94 0.97 1.04 1.13 1.22 1.27 1.32 1.51 1.68 1.72
0.07 0.05 0.04 0.03 0.03 0.02 0.03 0.05 0.09 0.16 0.15 0.15 0.21 0.43 0.45 0.32 0.31 0.31 0.32 0.34 0.42 0.61 0.71 0.81 0.91 0.92 0.93 0.90 0.86 0.86 0.89 0.86 0.84 0.84 0.84 0.80 0.80 0.87 0.98 1.01 1.09 1.16 1.26 1.28
0.07 0.04 0.03 0.03 0.02 0.02 0.04 0.08 0.14 0.27 0.36 0.32 0.33 0.48 0.52 0.44 0.39 0.37 0.41 0.49 0.65 0.91 1.06 1.19 1.27 1.17 1.10 1.09 1.13 1.02 0.93 0.86 0.82 0.82 0.82 0.76 0.73 0.78 0.82 0.83 0.90 0.89 0.91 0.94
0.06 0.06 0.03 0.03 0.03 0.05 0.10 0.16 0.25 0.38 0.47 0.60 0.71 0.85 0.69 0.59 0.58 0.66 0.75 0.83 1.00 1.26 1.43 1.52 1.53 1.43 1.23 1.10 1.10 1.04 0.93 0.82 0.72 0.71 0.76 0.76 0.71 0.73 0.77 0.77 0.73 0.67 0.70 0.78
0.07 0.12 0.09 0.04 0.07 0.11 0.22 0.37 0.50 0.76 0.75 0.68 0.88 1.09 0.84 0.69 0.71 0.74 0.80 0.92 1.10 1.22 1.30 1.34 1.30 1.29 1.18 1.08 1.00 0.95 0.85 0.71 0.65 0.70 0.73 0.75 0.67 0.62 0.65 0.66 0.68 0.59 0.56 0.62
0.13 0.22 0.23 0.17 0.21 0.29 0.37 0.45 0.54 0.64 0.78 0.85 1.05 1.23 0.92 0.71 0.69 0.75 0.87 0.91 0.90 0.88 0.98 1.07 1.13 1.04 1.00 0.92 0.87 0.95 0.95 0.83 0.81 0.85 0.90 0.83 0.70 0.66 0.65 0.61 0.64 0.59 0.56 0.61
0.18 0.25 0.31 0.36 0.41 0.48 0.51 0.46 0.43 0.54 0.75 0.84 0.94 0.97 0.75 0.63 0.62 0.64 0.72 0.72 0.70 0.74 0.78 0.84 0.92 0.88 0.89 0.83 0.80 0.89 0.94 0.95 1.02 1.10 1.06 0.90 0.77 0.70 0.64 0.60 0.56 0.57 0.59 0.62
0.12 0.14 0.16 0.16 0.16 0.24 0.43 0.56 0.51 0.53 0.60 0.84 0.76 0.60 0.54 0.51 0.53 0.54 0.56 0.56 0.52 0.56 0.56 0.55 0.55 0.56 0.63 0.63 0.60 0.65 0.72 0.83 0.98 1.05 0.94 0.80 0.68 0.58 0.53 0.56 0.53 0.54 0.61 0.64
0.04 0.04 0.03 0.04 0.06 0.15 0.37 0.49 0.52 0.52 0.48 0.47 0.42 0.40 0.30 0.29 0.34 0.33 0.32 0.33 0.32 0.32 0.33 0.31 0.28 0.28 0.33 0.33 0.35 0.39 0.47 0.62 0.85 0.93 0.81 0.64 0.56 0.53 0.49 0.48 0.45 0.44 0.47 0.53
0.01 0.03 0.05 0.05 0.06 0.14 0.38 0.42 0.46 0.35 0.20 0.17 0.23 0.24 0.17 0.18 0.26 0.26 0.27 0.29 0.25 0.23 0.23 0.24 0.22 0.20 0.20 0.20 0.23 0.30 0.36 0.50 0.60 0.62 0.58 0.47 0.41 0.40 0.39 0.38 0.38 0.41 0.43 0.47
0.03 0.08 0.11 0.09 0.12 0.33 0.59 0.46 0.39 0.31 0.16 0.10 0.11 0.11 0.12 0.16 0.20 0.19 0.22 0.27 0.24 0.20 0.21 0.21 0.21 0.20 0.21 0.22 0.23 0.32 0.37 0.39 0.45 0.52 0.50 0.44 0.39 0.36 0.36 0.34 0.36 0.44 0.45 0.44
0.11 0.13 0.16 0.16 0.19 0.37 0.46 0.31 0.26 0.34 0.33 0.12 0.08 0.08 0.10 0.11 0.15 0.13 0.13 0.17 0.17 0.14 0.13 0.13 0.13 0.12 0.12 0.12 0.11 0.13 0.17 0.22 0.27 0.30 0.35 0.34 0.29 0.30 0.34 0.34 0.39 0.43 0.44 0.48
0.23 0.20 0.23 0.23 0.25 0.37 0.31 0.14 0.11 0.23 0.43 0.17 0.06 0.05 0.04 0.05 0.08 0.06 0.06 0.06 0.05 0.04 0.03 0.03 0.03 0.03 0.03 0.02 0.03 0.04 0.05 0.06 0.09 0.10 0.14 0.18 0.19 0.23 0.29 0.38 0.44 0.42 0.41 0.46
0.14 0.21 0.29 0.37 0.46 0.62 0.42 0.18 0.13 0.30 0.40 0.15 0.04 0.01 0.01 0.01 0.02 0.02 0.03 0.03 0.01 0.00 0.00 0.00 0.00 0.01 0.01 0.01 0.01 0.02 0.02 0.02 0.02 0.02 0.04 0.07 0.11 0.17 0.25 0.33 0.32 0.33 0.36 0.39
0.20 0.32 0.46 0.55 0.71 0.88 0.57 0.34 0.30 0.27 0.14 0.06 0.01 0.00 0.00 0.00 0.00 0.01 0.02 0.02 0.01 0.00 0.00 0.00 0.00 0.00 0.00 0.00 0.00 0.00 0.00 0.00 0.00 0.00 0.01 0.02 0.04 0.07 0.12 0.20 0.23 0.26 0.30 0.32
0.21 0.44 0.61 0.60 0.62 0.57 0.41 0.30 0.20 0.15 0.09 0.02 0.00 0.00 0.00 0.00 0.00 0.00 0.01 0.01 0.01 0.00 0.00 0.00 0.00 0.00 0.00 0.00 0.00 0.00 0.00 0.00 0.00 0.00 0.00 0.00 0.01 0.02 0.06 0.12 0.17 0.21 0.27 0.29
0.06 0.12 0.16 0.18 0.21 0.19 0.16 0.11 0.07 0.06 0.05 0.01 0.00 0.00 0.00 0.00 0.00 0.00 0.00 0.01 0.01 0.00 0.00 0.00 0.00 0.00 0.00 0.00 0.00 0.00 0.00 0.00 0.00 0.00 0.00 0.00 0.01 0.01 0.03 0.06 0.13 0.21 0.24 0.23
0.02 0.02 0.02 0.04 0.05 0.06 0.07 0.05 0.03 0.03 0.02 0.01 0.00 0.00 0.00 0.00 0.00 0.00 0.00 0.01 0.01 0.01 0.00 0.00 0.00 0.00 0.00 0.00 0.00 0.00 0.00 0.00 0.00 0.00 0.00 0.00 0.00 0.01 0.02 0.02 0.06 0.13 0.15 0.15
0.01 0.01 0.02 0.01 0.01 0.02 0.04 0.02 0.01 0.02 0.01 0.00 0.00 0.00 0.00 0.00 0.00 0.00 0.00 0.00 0.01 0.01 0.00 0.00 0.00 0.00 0.00 0.00 0.00 0.00 0.00 0.00 0.00 0.00 0.00 0.00 0.01 0.02 0.02 0.02 0.03 0.05 0.06 0.08

GEFSCGP_prec_meanprecacc_132.txt.gz
Total_Precipitation_Accumulation
0.32 0.49 0.71 0.82 0.85 0.75 0.57 0.43 0.36 0.35 0.35 0.34 0.27 0.23 0.20 0.21 0.18 0.18 0.18 0.18 0.18 0.16 0.19 0.23 0.25 0.27 0.26 0.25 0.29 0.36 0.41 0.51 0.62 0.85 1.18 1.62 1.83 1.96 1.98 2.00 1.90 1.69 1.48 1.49
0.36 0.34 0.32 0.41 0.45 0.51 0.46 0.39 0.32 0.31 0.29 0.28 0.18 0.14 0.12 0.11 0.10 0.11 0.11 0.13 0.15 0.15 0.14 0.13 0.15 0.16 0.15 0.15 0.18 0.27 0.33 0.42 0.57 0.85 1.17 1.52 1.88 1.97 1.99 2.01 1.97 1.83 1.71 1.72
0.29 0.27 0.28 0.34 0.38 0.40 0.38 0.39 0.35 0.32 0.30 0.23 0.17 0.13 0.10 0.07 0.08 0.08 0.09 0.10 0.14 0.14 0.13 0.11 0.10 0.10 0.11 0.12 0.13 0.18 0.24 0.39 0.67 1.01 1.33 1.53 1.82 1.95 2.02 1.98 1.99 2.01 1.97 1.87
0.41 0.31 0.28 0.31 0.31 0.30 0.35 0.28 0.23 0.22 0.23 0.19 0.14 0.15 0.10 0.10 0.12 0.14 0.14 0.15 0.18 0.19 0.16 0.13 0.10 0.08 0.08 0.09 0.11 0.14 0.20 0.40 0.74 1.08 1.34 1.59 1.94 2.05 2.03 2.07 2.06 2.08 2.10 2.06
0.38 0.27 0.26 0.24 0.22 0.21 0.27 0.20 0.16 0.14 0.15 0.12 0.07 0.09 0.09 0.11 0.17 0.23 0.24 0.24 0.24 0.21 0.15 0.13 0.12 0.09 0.10 0.10 0.13 0.20 0.34 0.52 0.78 0.99 1.24 1.60 1.86 1.99 2.14 2.09 2.07 2.08 2.15 2.17
0.34 0.23 0.21 0.20 0.19 0.16 0.17 0.14 0.14 0.13 0.12 0.12 0.05 0.10 0.17 0.19 0.19 0.22 0.23 0.23 0.23 0.21 0.17 0.17 0.16 0.16 0.16 0.18 0.24 0.33 0.49 0.64 0.85 1.02 1.22 1.41 1.67 1.82 1.97 2.07 2.02 2.03 2.09 2.20
0.25 0.20 0.15 0.12 0.15 0.11 0.09 0.13 0.20 0.21 0.23 0.18 0.09 0.18 0.31 0.24 0.19 0.19 0.20 0.21 0.23 0.25 0.26 0.30 0.31 0.34 0.41 0.45 0.48 0.56 0.65 0.76 0.87 0.97 1.07 1.13 1.31 1.48 1.54 1.72 1.81 1.94 1.96 2.02
0.11 0.11 0.09 0.07 0.07 0.07 0.05 0.08 0.19 0.25 0.22 0.20 0.19 0.37 0.42 0.28 0.23 0.23 0.23 0.25 0.29 0.37 0.43 0.53 0.61 0.69 0.76 0.76 0.74 0.81 0.86 0.84 0.83 0.88 0.94 0.97 1.04 1.13 1.22 1.27 1.32 1.51 1.68 1.72
0.08 0.06 0.04 0.04 0.04 0.03 0.04 0.05 0.09 0.16 0.15 0.16 0.21 0.43 0.45 0.32 0.31 0.31 0.32 0.34 0.42 0.61 0.71 0.81 0.91 0.92 0.93 0.91 0.86 0.87 0.89 0.86 0.84 0.84 0.84 0.80 0.80 0.87 0.98 1.01 1.09 1.16 1.26 1.28
0.07 0.05 0.04 0.04 0.03 0.03 0.04 0.08 0.14 0.27 0.37 0.33 0.33 0.48 0.52 0.44 0.39 0.37 0.41 0.49 0.65 0.91 1.06 1.19 1.27 1.17 1.10 1.09 1.13 1.02 0.93 0.86 0.82 0.82 0.82 0.76 0.73 0.78 0.82 0.83 0.90 0.89 0.91 0.94
0.06 0.06 0.04 0.03 0.04 0.06 0.10 0.17 0.25 0.38 0.47 0.60 0.71 0.85 0.69 0.59 0.58 0.66 0.75 0.83 1.00 1.26 1.43 1.52 1.53 1.43 1.23 1.10 1.10 1.04 0.93 0.82 0.72 0.71 0.76 0.76 0.71 0.73 0.77 0.77 0.73 0.67 0.70 0.78
0.07 0.13 0.09 0.04 0.08 0.11 0.23 0.37 0.50 0.76 0.75 0.68 0.88 1.09 0.84 0.69 0.71 0.74 0.80 0.92 1.10 1.22 1.30 1.34 1.30 1.29 1.18 1.08 1.00 0.96 0.85 0.71 0.65 0.70 0.73 0.75 0.67 0.62 0.65 0.66 0.68 0.59 0.56 0.62
0.13 0.22 0.23 0.17 0.22 0.29 0.37 0.45 0.54 0.64 0.78 0.85 1.05 1.23 0.92 0.71 0.69 0.75 0.87 0.92 0.90 0.88 0.98 1.07 1.13 1.04 1.00 0.92 0.87 0.95 0.95 0.83 0.81 0.85 0.90 0.83 0.70 0.66 0.65 0.61 0.64 0.59 0.56 0.61
0.18 0.25 0.31 0.36 0.41 0.48 0.51 0.46 0.43 0.54 0.75 0.84 0.94 0.97 0.75 0.63 0.62 0.64 0.72 0.72 0.70 0.74 0.78 0.84 0.92 0.88 0.89 0.83 0.80 0.89 0.94 0.95 1.02 1.10 1.06 0.90 0.77 0.70 0.64 0.60 0.56 0.57 0.59 0.62
0.12 0.14 0.16 0.16 0.16 0.24 0.43 0.56 0.51 0.53 0.60 0.84 0.76 0.60 0.54 0.51 0.53 0.54 0.56 0.56 0.52 0.56 0.56 0.55 0.55 0.56 0.63 0.63 0.61 0.65 0.72 0.83 0.98 1.05 0.94 0.80 0.68 0.58 0.53 0.56 0.53 0.54 0.61 0.64
0.04 0.04 0.03 0.04 0.06 0.15 0.37 0.49 0.52 0.52 0.48 0.47 0.42 0.40 0.30 0.29 0.34 0.33 0.32 0.33 0.32 0.32 0.33 0.31 0.28 0.28 0.33 0.33 0.35 0.39 0.47 0.62 0.85 0.93 0.81 0.64 0.56 0.53 0.49 0.48 0.45 0.44 0.47 0.53
0.01 0.04 0.05 0.05 0.06 0.14 0.38 0.42 0.46 0.35 0.20 0.17 0.23 0.24 0.17 0.18 0.26 0.26 0.27 0.29 0.25 0.23 0.23 0.24 0.22 0.20 0.20 0.20 0.23 0.31 0.37 0.50 0.60 0.62 0.58 0.47 0.41 0.40 0.39 0.38 0.38 0.41 0.43 0.47
0.03 0.08 0.11 0.09 0.12 0.33 0.59 0.46 0.39 0.31 0.16 0.10 0.11 0.11 0.12 0.16 0.20 0.19 0.22 0.27 0.24 0.20 0.21 0.21 0.21 0.20 0.21 0.22 0.23 0.33 0.37 0.39 0.45 0.52 0.50 0.44 0.39 0.36 0.36 0.34 0.36 0.44 0.45 0.44
0.11 0.13 0.16 0.16 0.19 0.37 0.46 0.31 0.26 0.34 0.33 0.12 0.08 0.08 0.10 0.11 0.15 0.13 0.13 0.17 0.17 0.14 0.13 0.13 0.13 0.12 0.12 0.12 0.11 0.13 0.17 0.22 0.27 0.30 0.35 0.34 0.29 0.30 0.34 0.34 0.39 0.43 0.44 0.48
0.23 0.20 0.23 0.23 0.25 0.37 0.31 0.14 0.11 0.23 0.43 0.17 0.06 0.05 0.04 0.05 0.08 0.06 0.06 0.06 0.05 0.04 0.03 0.03 0.03 0.03 0.03 0.02 0.03 0.04 0.05 0.06 0.09 0.10 0.14 0.18 0.19 0.23 0.29 0.38 0.44 0.42 0.41 0.46
0.14 0.21 0.29 0.37 0.47 0.62 0.42 0.18 0.13 0.30 0.40 0.15 0.04 0.01 0.01 0.01 0.02 0.02 0.03 0.03 0.01 0.00 0.00 0.00 0.00 0.01 0.01 0.01 0.01 0.02 0.02 0.02 0.02 0.02 0.04 0.07 0.11 0.17 0.25 0.33 0.32 0.33 0.36 0.39
0.20 0.32 0.46 0.55 0.71 0.88 0.57 0.34 0.30 0.27 0.14 0.06 0.01 0.00 0.00 0.00 0.00 0.01 0.02 0.02 0.01 0.00 0.00 0.00 0.00 0.00 0.00 0.00 0.00 0.00 0.00 0.00 0.00 0.01 0.01 0.02 0.04 0.07 0.12 0.20 0.23 0.26 0.30 0.32
0.21 0.44 0.61 0.60 0.62 0.57 0.41 0.30 0.20 0.15 0.09 0.02 0.00 0.00 0.00 0.00 0.00 0.00 0.01 0.01 0.01 0.00 0.00 0.00 0.00 0.00 0.00 0.00 0.00 0.00 0.00 0.00 0.00 0.00 0.00 0.00 0.01 0.02 0.06 0.12 0.17 0.21 0.27 0.29
0.06 0.12 0.16 0.18 0.21 0.19 0.16 0.11 0.07 0.06 0.05 0.01 0.00 0.00 0.00 0.00 0.00 0.00 0.00 0.01 0.01 0.00 0.00 0.00 0.00 0.00 0.00 0.00 0.00 0.00 0.00 0.00 0.00 0.00 0.00 0.00 0.01 0.01 0.03 0.06 0.13 0.21 0.24 0.23
0.02 0.02 0.02 0.04 0.05 0.06 0.07 0.05 0.03 0.03 0.02 0.01 0.00 0.00 0.00 0.00 0.00 0.00 0.00 0.01 0.01 0.01 0.00 0.00 0.00 0.00 0.00 0.00 0.00 0.00 0.00 0.00 0.00 0.00 0.00 0.00 0.01 0.01 0.02 0.02 0.06 0.13 0.15 0.15
0.01 0.01 0.02 0.01 0.01 0.02 0.04 0.02 0.01 0.02 0.01 0.00 0.00 0.00 0.00 0.00 0.00 0.00 0.00 0.00 0.01 0.01 0.00 0.00 0.00 0.00 0.00 0.00 0.00 0.00 0.00 0.00 0.00 0.00 0.00 0.00 0.01 0.02 0.02 0.02 0.03 0.05 0.06 0.08

GEFSCGP_prec_meanprecacc_138.txt.gz
Total_Precipitation_Accumulation
0.33 0.52 0.75 0.84 0.88 0.77 0.60 0.46 0.39 0.37 0.36 0.35 0.31 0.27 0.22 0.23 0.19 0.18 0.19 0.19 0.19 0.16 0.19 0.24 0.27 0.28 0.26 0.26 0.29 0.36 0.41 0.51 0.63 0.86 1.19 1.62 1.84 1.97 1.99 2.01 1.90 1.70 1.48 1.49
0.40 0.38 0.33 0.42 0.47 0.52 0.48 0.43 0.37 0.33 0.30 0.28 0.20 0.16 0.14 0.12 0.10 0.12 0.12 0.14 0.17 0.16 0.14 0.13 0.16 0.17 0.16 0.15 0.18 0.27 0.34 0.42 0.57 0.85 1.17 1.52 1.88 1.97 2.00 2.01 1.97 1.83 1.71 1.72
0.33 0.29 0.28 0.35 0.40 0.42 0.41 0.43 0.39 0.35 0.33 0.25 0.19 0.16 0.12 0.08 0.08 0.09 0.10 0.11 0.15 0.15 0.14 0.12 0.10 0.11 0.11 0.12 0.13 0.19 0.24 0.39 0.67 1.01 1.33 1.53 1.82 1.95 2.02 1.98 1.99 2.01 1.97 1.87
0.43 0.32 0.28 0.31 0.32 0.32 0.39 0.30 0.26 0.24 0.27 0.23 0.17 0.21 0.15 0.11 0.13 0.14 0.15 0.15 0.18 0.20 0.17 0.13 0.11 0.08 0.09 0.10 0.11 0.14 0.20 0.40 0.74 1.08 1.34 1.59 1.94 2.05 2.03 2.07 2.06 2.08 2.10 2.06
0.41 0.28 0.27 0.25 0.23 0.23 0.30 0.21 0.18 0.16 0.18 0.16 0.11 0.15 0.15 0.13 0.18 0.23 0.24 0.24 0.24 0.22 0.17 0.14 0.12 0.10 0.11 0.11 0.14 0.20 0.34 0.53 0.78 0.99 1.24 1.60 1.86 1.99 2.14 2.09 2.07 2.08 2.15 2.17
0.36 0.23 0.22 0.21 0.20 0.16 0.18 0.16 0.15 0.15 0.16 0.18 0.09 0.16 0.24 0.22 0.21 0.22 0.23 0.23 0.23 0.22 0.18 0.18 0.16 0.16 0.16 0.19 0.25 0.33 0.49 0.64 0.85 1.02 1.22 1.41 1.67 1.82 1.97 2.07 2.02 2.03 2.10 2.20
0.27 0.21 0.16 0.13 0.16 0.12 0.11 0.18 0.27 0.28 0.32 0.25 0.11 0.21 0.35 0.26 0.20 0.19 0.20 0.22 0.24 0.25 0.27 0.31 0.31 0.35 0.41 0.45 0.48 0.56 0.66 0.76 0.87 0.97 1.07 1.13 1.31 1.48 1.54 1.72 1.81 1.94 1.96 2.02
0.16 0.15 0.10 0.07 0.09 0.10 0.08 0.14 0.29 0.35 0.30 0.24 0.20 0.38 0.42 0.29 0.23 0.23 0.23 0.26 0.29 0.37 0.43 0.53 0.61 0.70 0.76 0.76 0.74 0.81 0.86 0.85 0.83 0.88 0.94 0.97 1.04 1.13 1.22 1.27 1.32 1.51 1.68 1.72
0.12 0.11 0.06 0.05 0.07 0.08 0.07 0.09 0.14 0.22 0.19 0.19 0.23 0.43 0.45 0.32 0.31 0.31 0.32 0.34 0.42 0.61 0.71 0.82 0.91 0.92 0.93 0.91 0.86 0.87 0.89 0.86 0.84 0.84 0.84 0.80 0.80 0.87 0.98 1.01 1.09 1.16 1.26 1.28
0.10 0.08 0.05 0.05 0.05 0.05 0.06 0.10 0.18 0.32 0.41 0.37 0.35 0.49 0.52 0.44 0.40 0.37 0.41 0.50 0.66 0.93 1.07 1.20 1.27 1.17 1.10 1.09 1.13 1.02 0.93 0.86 0.82 0.82 0.82 0.76 0.73 0.78 0.82 0.83 0.90 0.89 0.91 0.94
0.07 0.08 0.06 0.04 0.04 0.06 0.11 0.17 0.26 0.42 0.49 0.62 0.73 0.85 0.69 0.59 0.59 0.67 0.76 0.83 1.02 1.29 1.44 1.53 1.54 1.43 1.23 1.10 1.10 1.04 0.93 0.82 0.72 0.71 0.76 0.76 0.71 0.73 0.78 0.77 0.73 0.67 0.70 0.78
0.07 0.14 0.11 0.05 0.08 0.12 0.23 0.37 0.51 0.80 0.77 0.69 0.89 1.09 0.84 0.69 0.71 0.74 0.81 0.92 1.11 1.24 1.31 1.35 1.30 1.29 1.18 1.09 1.00 0.96 0.85 0.71 0.65 0.70 0.73 0.75 0.67 0.62 0.65 0.66 0.68 0.59 0.56 0.62
0.14 0.23 0.26 0.19 0.22 0.30 0.37 0.45 0.54 0.66 0.79 0.86 1.06 1.24 0.92 0.71 0.69 0.75 0.87 0.92 0.90 0.89 0.98 1.08 1.13 1.04 1.00 0.92 0.87 0.95 0.95 0.83 0.81 0.85 0.90 0.83 0.70 0.66 0.65 0.61 0.64 0.59 0.56 0.61
0.19 0.26 0.33 0.38 0.42 0.48 0.51 0.46 0.44 0.56 0.76 0.84 0.95 0.97 0.75 0.63 0.62 0.64 0.72 0.72 0.70 0.74 0.78 0.84 0.92 0.88 0.89 0.83 0.80 0.89 0.94 0.95 1.02 1.10 1.06 0.90 0.77 0.70 0.64 0.60 0.56 0.57 0.59 0.62
0.12 0.14 0.16 0.16 0.16 0.24 0.43 0.56 0.51 0.54 0.61 0.84 0.76 0.60 0.54 0.51 0.53 0.54 0.56 0.56 0.52 0.56 0.56 0.55 0.55 0.56 0.63 0.63 0.61 0.65 0.72 0.83 0.98 1.05 0.94 0.80 0.68 0.58 0.53 0.56 0.53 0.54 0.61 0.64
0.04 0.04 0.03 0.04 0.06 0.15 0.37 0.49 0.52 0.52 0.48 0.47 0.42 0.40 0.30 0.29 0.34 0.33 0.32 0.33 0.32 0.32 0.33 0.31 0.28 0.28 0.33 0.33 0.35 0.39 0.47 0.62 0.85 0.93 0.81 0.64 0.56 0.53 0.49 0.48 0.45 0.44 0.47 0.53
0.01 0.04 0.06 0.05 0.06 0.14 0.38 0.42 0.46 0.35 0.20 0.17 0.23 0.24 0.17 0.18 0.26 0.26 0.27 0.29 0.25 0.23 0.23 0.24 0.22 0.20 0.20 0.20 0.23 0.31 0.37 0.50 0.60 0.62 0.58 0.47 0.41 0.40 0.39 0.38 0.38 0.41 0.43 0.47
0.03 0.08 0.11 0.09 0.12 0.33 0.59 0.46 0.39 0.31 0.16 0.10 0.11 0.11 0.12 0.16 0.20 0.19 0.22 0.27 0.24 0.20 0.21 0.21 0.21 0.20 0.21 0.22 0.23 0.33 0.37 0.39 0.45 0.52 0.51 0.44 0.39 0.36 0.36 0.34 0.36 0.44 0.45 0.44
0.11 0.13 0.17 0.17 0.20 0.37 0.46 0.31 0.26 0.34 0.33 0.12 0.08 0.08 0.10 0.11 0.15 0.13 0.13 0.17 0.17 0.14 0.13 0.13 0.13 0.12 0.12 0.12 0.11 0.13 0.17 0.22 0.27 0.30 0.35 0.34 0.29 0.31 0.34 0.34 0.39 0.43 0.44 0.48
0.23 0.20 0.23 0.23 0.26 0.37 0.31 0.14 0.11 0.23 0.43 0.17 0.06 0.05 0.04 0.05 0.08 0.06 0.06 0.06 0.05 0.04 0.03 0.03 0.03 0.03 0.03 0.02 0.03 0.04 0.05 0.06 0.09 0.10 0.14 0.19 0.19 0.23 0.29 0.38 0.44 0.42 0.41 0.47
0.14 0.21 0.29 0.37 0.47 0.62 0.42 0.18 0.13 0.30 0.40 0.15 0.04 0.01 0.01 0.01 0.02 0.02 0.03 0.03 0.01 0.00 0.00 0.00 0.00 0.01 0.01 0.01 0.01 0.02 0.02 0.02 0.02 0.02 0.04 0.07 0.11 0.17 0.26 0.33 0.32 0.33 0.36 0.39
0.20 0.32 0.46 0.55 0.71 0.88 0.57 0.34 0.30 0.27 0.14 0.06 0.01 0.00 0.00 0.00 0.00 0.01 0.02 0.02 0.01 0.00 0.00 0.00 0.00 0.00 0.00 0.00 0.00 0.00 0.00 0.00 0.00 0.01 0.01 0.02 0.04 0.07 0.12 0.20 0.23 0.26 0.30 0.32
0.21 0.44 0.61 0.60 0.62 0.57 0.41 0.30 0.20 0.15 0.09 0.02 0.00 0.00 0.00 0.00 0.00 0.00 0.01 0.01 0.01 0.00 0.00 0.00 0.00 0.00 0.00 0.00 0.00 0.00 0.00 0.00 0.00 0.00 0.00 0.00 0.01 0.02 0.06 0.12 0.17 0.21 0.27 0.30
0.06 0.12 0.16 0.18 0.21 0.19 0.16 0.11 0.07 0.06 0.05 0.01 0.00 0.00 0.00 0.00 0.00 0.00 0.00 0.01 0.01 0.00 0.00 0.00 0.00 0.00 0.00 0.00 0.00 0.00 0.00 0.00 0.00 0.00 0.00 0.00 0.01 0.01 0.03 0.06 0.13 0.21 0.24 0.23
0.02 0.02 0.02 0.04 0.05 0.06 0.07 0.05 0.03 0.03 0.02 0.01 0.00 0.00 0.00 0.00 0.00 0.00 0.00 0.01 0.01 0.01 0.00 0.00 0.00 0.00 0.00 0.00 0.00 0.00 0.00 0.00 0.00 0.00 0.00 0.00 0.01 0.02 0.02 0.02 0.06 0.13 0.15 0.15
0.01 0.01 0.02 0.01 0.01 0.02 0.04 0.02 0.01 0.02 0.01 0.00 0.00 0.00 0.00 0.00 0.00 0.00 0.00 0.00 0.01 0.01 0.00 0.00 0.00 0.00 0.00 0.00 0.00 0.00 0.00 0.00 0.00 0.00 0.00 0.01 0.01 0.02 0.02 0.02 0.04 0.06 0.06 0.08

GEFSCGP_prec_meanprecacc_144.txt.gz
Total_Precipitation_Accumulation
0.35 0.54 0.76 0.86 0.90 0.80 0.63 0.50 0.47 0.43 0.40 0.40 0.37 0.34 0.29 0.32 0.25 0.21 0.22 0.23 0.25 0.23 0.27 0.29 0.30 0.30 0.28 0.27 0.31 0.37 0.42 0.52 0.63 0.86 1.19 1.62 1.84 1.97 1.99 2.01 1.90 1.70 1.48 1.49
0.43 0.40 0.34 0.44 0.49 0.55 0.53 0.48 0.44 0.40 0.36 0.33 0.25 0.21 0.19 0.18 0.14 0.14 0.14 0.16 0.20 0.21 0.21 0.18 0.18 0.19 0.17 0.16 0.18 0.28 0.34 0.43 0.57 0.85 1.17 1.52 1.88 1.97 2.00 2.01 1.97 1.84 1.71 1.72
0.35 0.31 0.29 0.37 0.44 0.47 0.46 0.47 0.44 0.42 0.42 0.32 0.24 0.20 0.16 0.13 0.13 0.12 0.13 0.14 0.17 0.17 0.17 0.17 0.14 0.13 0.13 0.13 0.13 0.19 0.25 0.39 0.67 1.01 1.33 1.53 1.82 1.95 2.02 1.98 1.99 2.01 1.97 1.87
0.44 0.33 0.30 0.34 0.37 0.36 0.44 0.33 0.29 0.30 0.36 0.33 0.25 0.27 0.19 0.15 0.18 0.18 0.20 0.20 0.22 0.22 0.19 0.18 0.17 0.12 0.10 0.10 0.12 0.15 0.21 0.41 0.74 1.09 1.35 1.59 1.94 2.05 2.03 2.07 2.06 2.08 2.10 2.06
0.42 0.29 0.28 0.27 0.25 0.25 0.34 0.24 0.22 0.22 0.26 0.27 0.18 0.21 0.22 0.19 0.22 0.28 0.28 0.27 0.27 0.25 0.19 0.17 0.15 0.13 0.12 0.12 0.14 0.20 0.34 0.53 0.79 0.99 1.24 1.60 1.86 1.99 2.14 2.09 2.07 2.08 2.15 2.17
0.37 0.24 0.23 0.23 0.21 0.18 0.20 0.19 0.21 0.22 0.23 0.25 0.13 0.19 0.30 0.27 0.23 0.25 0.25 0.25 0.25 0.23 0.20 0.19 0.18 0.17 0.17 0.20 0.25 0.34 0.50 0.65 0.85 1.02 1.22 1.41 1.68 1.83 1.97 2.08 2.02 2.03 2.10 2.20
0.29 0.22 0.16 0.14 0.17 0.14 0.14 0.24 0.35 0.35 0.38 0.31 0.16 0.25 0.39 0.29 0.22 0.22 0.22 0.23 0.24 0.26 0.27 0.31 0.32 0.35 0.41 0.45 0.48 0.57 0.66 0.77 0.88 0.97 1.07 1.14 1.31 1.48 1.54 1.72 1.81 1.94 1.96 2.02
0.19 0.18 0.12 0.08 0.10 0.12 0.11 0.20 0.35 0.39 0.35 0.31 0.27 0.44 0.47 0.32 0.25 0.24 0.25 0.27 0.30 0.39 0.45 0.54 0.62 0.70 0.76 0.76 0.74 0.81 0.87 0.85 0.83 0.88 0.94 0.97 1.04 1.13 1.22 1.27 1.32 1.51 1.68 1.72
0.17 0.15 0.08 0.08 0.10 0.11 0.10 0.14 0.19 0.27 0.23 0.23 0.27 0.48 0.48 0.35 0.33 0.32 0.33 0.36 0.44 0.64 0.74 0.84 0.92 0.93 0.93 0.91 0.86 0.87 0.89 0.87 0.84 0.85 0.84 0.80 0.80 0.87 0.98 1.01 1.09 1.16 1.26 1.28
0.16 0.13 0.08 0.08 0.08 0.08 0.09 0.14 0.21 0.39 0.48 0.42 0.39 0.53 0.56 0.48 0.41 0.38 0.43 0.51 0.68 0.95 1.09 1.22 1.29 1.19 1.10 1.10 1.14 1.02 0.93 0.86 0.83 0.83 0.82 0.76 0.73 0.78 0.82 0.83 0.90 0.89 0.91 0.94
0.11 0.12 0.09 0.06 0.07 0.08 0.13 0.21 0.31 0.48 0.57 0.70 0.78 0.88 0.71 0.61 0.61 0.68 0.78 0.85 1.06 1.33 1.47 1.56 1.57 1.45 1.24 1.11 1.10 1.04 0.93 0.82 0.72 0.71 0.76 0.76 0.71 0.73 0.78 0.77 0.73 0.67 0.70 0.78
0.10 0.16 0.13 0.07 0.09 0.13 0.24 0.40 0.55 0.86 0.85 0.74 0.91 1.11 0.85 0.70 0.72 0.76 0.82 0.95 1.16 1.28 1.34 1.37 1.32 1.30 1.18 1.09 1.00 0.96 0.85 0.71 0.65 0.70 0.73 0.75 0.67 0.62 0.65 0.66 0.68 0.59 0.56 0.62
0.16 0.26 0.29 0.22 0.24 0.31 0.38 0.47 0.57 0.69 0.84 0.90 1.07 1.24 0.93 0.71 0.69 0.76 0.88 0.93 0.96 0.93 1.00 1.09 1.14 1.05 1.00 0.93 0.88 0.95 0.95 0.83 0.81 0.85 0.90 0.83 0.70 0.66 0.65 0.61 0.64 0.59 0.56 0.61
0.20 0.28 0.35 0.41 0.44 0.50 0.53 0.47 0.46 0.57 0.78 0.86 0.95 0.98 0.75 0.63 0.62 0.65 0.73 0.73 0.75 0.77 0.80 0.85 0.92 0.88 0.89 0.83 0.81 0.89 0.94 0.95 1.02 1.10 1.06 0.90 0.77 0.70 0.64 0.60 0.56 0.57 0.59 0.62
0.13 0.15 0.17 0.18 0.18 0.25 0.44 0.57 0.52 0.55 0.63 0.86 0.76 0.61 0.55 0.51 0.54 0.55 0.56 0.57 0.53 0.58 0.57 0.56 0.55 0.57 0.63 0.63 0.61 0.65 0.72 0.83 0.98 1.05 0.94 0.80 0.68 0.58 0.53 0.56 0.53 0.54 0.61 0.64
0.05 0.04 0.03 0.04 0.07 0.15 0.38 0.49 0.52 0.53 0.49 0.49 0.42 0.40 0.30 0.29 0.34 0.34 0.32 0.34 0.33 0.33 0.33 0.31 0.28 0.28 0.33 0.33 0.35 0.39 0.47 0.62 0.85 0.93 0.81 0.64 0.56 0.53 0.49 0.48 0.45 0.44 0.47 0.53
0.02 0.04 0.06 0.05 0.07 0.14 0.39 0.42 0.47 0.35 0.21 0.18 0.23 0.24 0.17 0.19 0.27 0.26 0.27 0.29 0.25 0.23 0.24 0.24 0.22 0.20 0.20 0.20 0.23 0.31 0.37 0.50 0.60 0.63 0.58 0.47 0.41 0.40 0.39 0.38 0.38 0.41 0.43 0.47
0.03 0.08 0.12 0.09 0.12 0.34 0.59 0.46 0.39 0.31 0.17 0.10 0.11 0.11 0.12 0.16 0.21 0.20 0.22 0.27 0.24 0.20 0.21 0.21 0.21 0.20 0.21 0.22 0.23 0.33 0.37 0.39 0.45 0.52 0.51 0.44 0.39 0.36 0.36 0.34 0.36 0.44 0.45 0.44
0.11 0.13 0.17 0.17 0.20 0.37 0.46 0.31 0.26 0.34 0.33 0.12 0.08 0.08 0.10 0.12 0.15 0.13 0.14 0.18 0.17 0.14 0.13 0.13 0.13 0.12 0.12 0.12 0.11 0.13 0.17 0.22 0.27 0.30 0.35 0.34 0.29 0.31 0.34 0.34 0.39 0.43 0.44 0.48
0.23 0.20 0.24 0.24 0.26 0.38 0.31 0.14 0.11 0.23 0.43 0.17 0.06 0.05 0.04 0.05 0.09 0.06 0.06 0.06 0.06 0.04 0.03 0.03 0.03 0.03 0.03 0.03 0.03 0.04 0.05 0.06 0.09 0.10 0.14 0.19 0.19 0.23 0.29 0.38 0.44 0.42 0.41 0.47
0.14 0.21 0.29 0.38 0.48 0.62 0.42 0.18 0.13 0.30 0.40 0.15 0.04 0.01 0.01 0.01 0.02 0.02 0.03 0.03 0.02 0.01 0.01 0.01 0.01 0.01 0.01 0.01 0.01 0.02 0.02 0.02 0.02 0.02 0.04 0.07 0.11 0.17 0.26 0.33 0.32 0.33 0.36 0.40
0.20 0.32 0.46 0.55 0.71 0.89 0.57 0.34 0.30 0.27 0.14 0.06 0.01 0.00 0.00 0.00 0.00 0.01 0.02 0.02 0.01 0.00 0.00 0.00 0.00 0.00 0.00 0.00 0.00 0.00 0.00 0.00 0.00 0.01 0.01 0.02 0.04 0.07 0.12 0.20 0.23 0.26 0.30 0.32
0.21 0.44 0.61 0.60 0.62 0.57 0.41 0.30 0.20 0.15 0.09 0.02 0.00 0.00 0.00 0.00 0.00 0.00 0.01 0.01 0.01 0.00 0.00 0.00 0.00 0.00 0.00 0.00 0.00 0.00 0.00 0.00 0.00 0.00 0.00 0.00 0.01 0.02 0.06 0.12 0.17 0.21 0.27 0.30
0.06 0.12 0.16 0.18 0.21 0.19 0.16 0.11 0.07 0.06 0.05 0.01 0.00 0.00 0.00 0.00 0.00 0.00 0.00 0.01 0.01 0.00 0.00 0.00 0.00 0.00 0.00 0.00 0.00 0.00 0.00 0.00 0.00 0.00 0.00 0.00 0.01 0.01 0.03 0.06 0.13 0.21 0.24 0.23
0.02 0.02 0.03 0.04 0.05 0.06 0.07 0.05 0.03 0.03 0.02 0.01 0.00 0.00 0.00 0.00 0.00 0.00 0.00 0.01 0.01 0.01 0.00 0.00 0.00 0.00 0.00 0.00 0.00 0.00 0.00 0.00 0.00 0.00 0.00 0.00 0.01 0.02 0.02 0.02 0.06 0.13 0.16 0.15
0.01 0.01 0.02 0.02 0.01 0.02 0.04 0.02 0.01 0.02 0.01 0.00 0.00 0.00 0.00 0.00 0.00 0.00 0.00 0.00 0.01 0.01 0.00 0.00 0.00 0.00 0.00 0.00 0.00 0.00 0.00 0.00 0.00 0.00 0.00 0.01 0.01 0.02 0.02 0.02 0.04 0.06 0.06 0.08

GEFSCGP_prec_meanprecacc_150.txt.gz
Total_Precipitation_Accumulation
0.37 0.56 0.78 0.88 0.92 0.82 0.65 0.52 0.51 0.48 0.47 0.45 0.41 0.39 0.35 0.38 0.31 0.26 0.26 0.26 0.27 0.26 0.29 0.32 0.35 0.35 0.31 0.29 0.32 0.38 0.43 0.53 0.64 0.86 1.19 1.62 1.84 1.97 1.99 2.01 1.90 1.70 1.48 1.49
0.44 0.42 0.36 0.45 0.50 0.57 0.55 0.50 0.47 0.46 0.42 0.38 0.28 0.24 0.25 0.23 0.18 0.17 0.18 0.19 0.22 0.23 0.23 0.21 0.22 0.25 0.21 0.18 0.19 0.28 0.34 0.43 0.57 0.85 1.18 1.53 1.89 1.97 2.00 2.01 1.97 1.84 1.71 1.72
0.36 0.32 0.31 0.38 0.45 0.49 0.48 0.49 0.47 0.48 0.47 0.36 0.28 0.24 0.22 0.17 0.15 0.15 0.15 0.16 0.20 0.20 0.20 0.20 0.18 0.17 0.17 0.15 0.14 0.19 0.25 0.39 0.67 1.01 1.34 1.53 1.83 1.95 2.02 1.98 1.99 2.01 1.97 1.88
0.45 0.33 0.31 0.36 0.38 0.38 0.46 0.35 0.31 0.34 0.42 0.39 0.29 0.31 0.24 0.18 0.20 0.21 0.21 0.21 0.24 0.25 0.21 0.20 0.20 0.16 0.13 0.13 0.12 0.15 0.22 0.41 0.75 1.09 1.35 1.59 1.94 2.06 2.04 2.07 2.06 2.08 2.10 2.07
0.43 0.30 0.29 0.29 0.27 0.26 0.36 0.28 0.26 0.26 0.30 0.31 0.21 0.23 0.25 0.21 0.24 0.30 0.30 0.29 0.29 0.26 0.21 0.18 0.16 0.16 0.14 0.14 0.15 0.21 0.35 0.54 0.80 1.01 1.25 1.61 1.87 1.99 2.15 2.09 2.07 2.08 2.15 2.17
0.39 0.26 0.24 0.24 0.23 0.20 0.23 0.25 0.27 0.26 0.26 0.27 0.14 0.20 0.31 0.28 0.24 0.26 0.27 0.26 0.26 0.24 0.22 0.21 0.19 0.18 0.19 0.21 0.26 0.34 0.50 0.66 0.87 1.04 1.23 1.42 1.68 1.83 1.98 2.08 2.02 2.03 2.10 2.20
0.31 0.24 0.18 0.15 0.20 0.18 0.19 0.29 0.40 0.39 0.42 0.33 0.17 0.26 0.40 0.30 0.22 0.22 0.23 0.24 0.25 0.26 0.28 0.33 0.33 0.36 0.42 0.46 0.49 0.57 0.67 0.78 0.89 0.98 1.08 1.14 1.31 1.48 1.55 1.72 1.81 1.95 1.97 2.02
0.22 0.20 0.14 0.10 0.12 0.14 0.14 0.23 0.38 0.42 0.37 0.32 0.28 0.44 0.48 0.32 0.25 0.25 0.25 0.28 0.31 0.39 0.45 0.55 0.63 0.71 0.77 0.76 0.75 0.81 0.87 0.85 0.85 0.90 0.96 0.98 1.05 1.13 1.22 1.27 1.32 1.51 1.68 1.72
0.18 0.16 0.10 0.10 0.11 0.13 0.12 0.15 0.21 0.28 0.24 0.24 0.28 0.48 0.48 0.35 0.33 0.33 0.34 0.36 0.45 0.64 0.74 0.84 0.93 0.94 0.94 0.91 0.86 0.87 0.90 0.87 0.85 0.86 0.85 0.81 0.80 0.87 0.98 1.01 1.09 1.16 1.26 1.28
0.17 0.14 0.10 0.09 0.11 0.10 0.11 0.16 0.23 0.40 0.49 0.43 0.39 0.53 0.56 0.48 0.41 0.39 0.43 0.52 0.68 0.95 1.09 1.22 1.30 1.20 1.11 1.10 1.14 1.03 0.93 0.86 0.83 0.84 0.83 0.77 0.73 0.78 0.82 0.83 0.90 0.89 0.91 0.94
0.12 0.13 0.10 0.08 0.09 0.10 0.14 0.22 0.32 0.50 0.58 0.71 0.79 0.89 0.72 0.62 0.61 0.69 0.78 0.86 1.07 1.33 1.48 1.57 1.58 1.46 1.25 1.12 1.11 1.05 0.94 0.82 0.72 0.71 0.77 0.77 0.72 0.73 0.78 0.77 0.73 0.67 0.70 0.78
0.11 0.17 0.14 0.08 0.11 0.15 0.26 0.41 0.56 0.87 0.86 0.75 0.92 1.11 0.85 0.71 0.73 0.77 0.83 0.96 1.16 1.30 1.36 1.39 1.33 1.31 1.20 1.11 1.02 0.96 0.86 0.72 0.67 0.71 0.73 0.75 0.67 0.62 0.65 0.66 0.68 0.59 0.56 0.62
0.18 0.28 0.30 0.23 0.25 0.33 0.40 0.48 0.57 0.69 0.84 0.90 1.07 1.24 0.93 0.71 0.70 0.77 0.89 0.94 0.97 0.95 1.01 1.10 1.15 1.06 1.01 0.94 0.88 0.95 0.96 0.84 0.82 0.85 0.91 0.84 0.70 0.66 0.65 0.61 0.64 0.59 0.56 0.61
0.22 0.30 0.36 0.42 0.45 0.50 0.54 0.48 0.46 0.58 0.79 0.86 0.95 0.98 0.75 0.63 0.63 0.66 0.73 0.74 0.78 0.79 0.81 0.86 0.93 0.89 0.90 0.84 0.81 0.90 0.95 0.96 1.03 1.10 1.06 0.90 0.77 0.70 0.64 0.60 0.56 0.57 0.59 0.62
0.15 0.17 0.18 0.19 0.18 0.26 0.45 0.58 0.52 0.55 0.64 0.87 0.76 0.61 0.55 0.52 0.54 0.55 0.57 0.60 0.57 0.58 0.57 0.56 0.55 0.57 0.63 0.63 0.61 0.65 0.72 0.83 0.98 1.06 0.94 0.80 0.68 0.58 0.53 0.56 0.53 0.54 0.61 0.64
0.07 0.06 0.04 0.05 0.08 0.16 0.39 0.50 0.53 0.53 0.50 0.50 0.42 0.40 0.31 0.30 0.35 0.34 0.34 0.37 0.34 0.33 0.33 0.31 0.28 0.28 0.33 0.33 0.35 0.40 0.48 0.62 0.85 0.93 0.81 0.64 0.56 0.53 0.49 0.48 0.45 0.44 0.47 0.53
0.03 0.06 0.07 0.06 0.08 0.16 0.39 0.42 0.47 0.36 0.21 0.18 0.23 0.24 0.17 0.19 0.27 0.26 0.28 0.30 0.26 0.24 0.24 0.24 0.23 0.20 0.20 0.20 0.23 0.31 0.37 0.50 0.60 0.63 0.58 0.48 0.42 0.40 0.39 0.38 0.38 0.41 0.43 0.47
0.04 0.09 0.13 0.10 0.13 0.35 0.60 0.46 0.39 0.31 0.17 0.11 0.11 0.11 0.12 0.16 0.21 0.20 0.23 0.28 0.25 0.21 0.21 0.21 0.21 0.20 0.21 0.22 0.23 0.33 0.37 0.39 0.45 0.52 0.51 0.44 0.39 0.36 0.36 0.34 0.36 0.44 0.45 0.44
0.12 0.14 0.18 0.19 0.21 0.38 0.46 0.31 0.26 0.34 0.33 0.12 0.08 0.08 0.10 0.12 0.15 0.13 0.14 0.18 0.17 0.14 0.13 0.13 0.13 0.12 0.12 0.12 0.11 0.14 0.17 0.23 0.27 0.30 0.35 0.34 0.29 0.31 0.34 0.34 0.39 0.43 0.44 0.48
0.24 0.21 0.25 0.25 0.27 0.38 0.31 0.14 0.11 0.23 0.43 0.17 0.06 0.05 0.04 0.05 0.09 0.06 0.06 0.06 0.06 0.04 0.03 0.03 0.04 0.04 0.04 0.03 0.03 0.04 0.05 0.06 0.09 0.10 0.14 0.19 0.19 0.23 0.29 0.38 0.44 0.42 0.41 0.47
0.14 0.21 0.30 0.39 0.49 0.63 0.42 0.18 0.13 0.30 0.40 0.15 0.04 0.01 0.01 0.01 0.02 0.02 0.04 0.03 0.02 0.01 0.01 0.01 0.01 0.01 0.02 0.02 0.01 0.02 0.02 0.02 0.02 0.02 0.04 0.07 0.11 0.17 0.26 0.33 0.32 0.33 0.36 0.40
0.20 0.33 0.46 0.56 0.72 0.89 0.57 0.34 0.30 0.27 0.14 0.06 0.01 0.00 0.00 0.01 0.01 0.01 0.02 0.03 0.01 0.00 0.00 0.00 0.00 0.00 0.00 0.00 0.00 0.00 0.00 0.00 0.00 0.01 0.01 0.02 0.04 0.07 0.13 0.20 0.23 0.26 0.30 0.32
0.21 0.44 0.61 0.61 0.62 0.58 0.41 0.30 0.20 0.15 0.09 0.02 0.00 0.00 0.00 0.00 0.00 0.00 0.01 0.02 0.01 0.00 0.00 0.00 0.00 0.00 0.00 0.00 0.00 0.00 0.00 0.00 0.00 0.00 0.00 0.01 0.01 0.02 0.06 0.12 0.17 0.21 0.27 0.30
0.07 0.13 0.16 0.19 0.21 0.20 0.16 0.11 0.07 0.06 0.05 0.01 0.00 0.00 0.00 0.00 0.00 0.00 0.00 0.01 0.01 0.01 0.00 0.00 0.00 0.00 0.00 0.00 0.00 0.00 0.00 0.00 0.00 0.00 0.00 0.01 0.01 0.01 0.03 0.06 0.13 0.21 0.24 0.23
0.04 0.03 0.03 0.04 0.05 0.06 0.07 0.05 0.03 0.03 0.02 0.01 0.00 0.00 0.00 0.00 0.00 0.00 0.00 0.01 0.01 0.01 0.00 0.00 0.00 0.00 0.00 0.00 0.00 0.00 0.00 0.00 0.00 0.00 0.00 0.00 0.01 0.02 0.02 0.02 0.06 0.13 0.16 0.15
0.03 0.04 0.04 0.02 0.01 0.02 0.04 0.02 0.01 0.02 0.01 0.00 0.00 0.00 0.00 0.00 0.00 0.00 0.00 0.00 0.01 0.01 0.00 0.00 0.00 0.00 0.00 0.00 0.00 0.00 0.00 0.00 0.00 0.00 0.00 0.01 0.01 0.02 0.02 0.02 0.04 0.06 0.06 0.08

GEFSCGP_prec_meanprecacc_156.txt.gz
Total_Precipitation_Accumulation
0.37 0.57 0.80 0.91 0.95 0.83 0.66 0.55 0.53 0.51 0.52 0.53 0.49 0.46 0.44 0.43 0.37 0.32 0.31 0.30 0.30 0.27 0.31 0.33 0.37 0.37 0.33 0.31 0.34 0.39 0.43 0.53 0.64 0.86 1.19 1.62 1.84 1.97 1.99 2.01 1.91 1.70 1.48 1.50
0.45 0.43 0.37 0.45 0.52 0.58 0.56 0.52 0.50 0.48 0.45 0.45 0.35 0.30 0.31 0.29 0.22 0.21 0.22 0.21 0.24 0.24 0.26 0.22 0.23 0.26 0.23 0.20 0.20 0.29 0.34 0.43 0.57 0.85 1.18 1.53 1.89 1.97 2.00 2.01 1.97 1.84 1.72 1.72
0.37 0.33 0.31 0.39 0.46 0.51 0.50 0.51 0.49 0.50 0.50 0.43 0.35 0.30 0.29 0.23 0.20 0.19 0.18 0.18 0.22 0.21 0.22 0.21 0.19 0.18 0.19 0.17 0.15 0.20 0.25 0.39 0.68 1.02 1.34 1.53 1.83 1.96 2.02 1.99 2.00 2.02 1.97 1.88
0.46 0.34 0.31 0.37 0.39 0.39 0.48 0.36 0.33 0.36 0.46 0.46 0.35 0.37 0.30 0.24 0.25 0.24 0.23 0.23 0.26 0.26 0.22 0.20 0.20 0.17 0.15 0.15 0.14 0.16 0.23 0.42 0.75 1.10 1.35 1.59 1.94 2.06 2.04 2.07 2.07 2.08 2.10 2.07
0.45 0.31 0.30 0.30 0.28 0.27 0.38 0.30 0.28 0.28 0.35 0.36 0.26 0.28 0.29 0.26 0.29 0.33 0.31 0.30 0.31 0.28 0.22 0.19 0.17 0.16 0.15 0.16 0.17 0.22 0.36 0.55 0.80 1.01 1.26 1.62 1.87 1.99 2.15 2.09 2.07 2.08 2.15 2.18
0.40 0.27 0.25 0.25 0.23 0.21 0.25 0.30 0.31 0.29 0.31 0.32 0.18 0.24 0.34 0.31 0.27 0.28 0.27 0.26 0.27 0.25 0.22 0.22 0.19 0.18 0.20 0.23 0.28 0.36 0.51 0.66 0.87 1.04 1.24 1.43 1.68 1.83 1.98 2.08 2.02 2.03 2.10 2.20
0.33 0.26 0.19 0.16 0.21 0.21 0.22 0.34 0.46 0.44 0.46 0.37 0.19 0.28 0.42 0.31 0.24 0.24 0.24 0.24 0.26 0.27 0.28 0.34 0.34 0.36 0.43 0.48 0.50 0.59 0.68 0.78 0.90 0.99 1.08 1.16 1.32 1.49 1.55 1.72 1.81 1.95 1.97 2.02
0.24 0.22 0.15 0.11 0.14 0.17 0.17 0.27 0.43 0.46 0.40 0.35 0.30 0.46 0.49 0.33 0.27 0.26 0.26 0.28 0.32 0.39 0.45 0.56 0.64 0.71 0.77 0.78 0.76 0.83 0.88 0.86 0.85 0.90 0.97 0.99 1.06 1.14 1.22 1.27 1.32 1.51 1.68 1.72
0.20 0.18 0.11 0.11 0.12 0.15 0.15 0.19 0.24 0.32 0.27 0.27 0.30 0.49 0.49 0.36 0.34 0.34 0.34 0.37 0.45 0.64 0.74 0.85 0.93 0.95 0.94 0.92 0.87 0.88 0.91 0.87 0.86 0.87 0.86 0.82 0.81 0.88 0.98 1.01 1.09 1.16 1.26 1.28
0.18 0.17 0.12 0.11 0.13 0.12 0.14 0.20 0.27 0.44 0.52 0.45 0.41 0.55 0.57 0.49 0.42 0.39 0.44 0.52 0.69 0.95 1.09 1.22 1.30 1.21 1.12 1.11 1.15 1.03 0.94 0.86 0.83 0.84 0.83 0.77 0.73 0.79 0.83 0.83 0.90 0.89 0.91 0.94
0.15 0.16 0.13 0.10 0.10 0.12 0.17 0.25 0.34 0.52 0.60 0.73 0.80 0.90 0.72 0.62 0.61 0.69 0.79 0.86 1.07 1.33 1.48 1.57 1.58 1.47 1.26 1.12 1.11 1.05 0.94 0.82 0.72 0.71 0.77 0.77 0.72 0.73 0.78 0.78 0.73 0.67 0.70 0.78
0.13 0.21 0.17 0.10 0.12 0.16 0.27 0.42 0.57 0.89 0.87 0.76 0.92 1.12 0.85 0.71 0.73 0.77 0.83 0.96 1.17 1.30 1.36 1.39 1.34 1.32 1.21 1.12 1.02 0.97 0.86 0.72 0.67 0.71 0.74 0.76 0.68 0.62 0.65 0.66 0.68 0.59 0.56 0.62
0.19 0.29 0.32 0.25 0.28 0.35 0.41 0.48 0.58 0.70 0.85 0.91 1.08 1.25 0.93 0.72 0.70 0.77 0.89 0.94 0.98 0.95 1.02 1.10 1.16 1.07 1.02 0.94 0.89 0.96 0.96 0.84 0.82 0.85 0.91 0.84 0.71 0.67 0.65 0.61 0.64 0.59 0.56 0.61
0.24 0.31 0.37 0.43 0.46 0.52 0.55 0.49 0.47 0.58 0.80 0.87 0.96 0.98 0.76 0.64 0.63 0.66 0.74 0.76 0.80 0.80 0.82 0.86 0.93 0.90 0.90 0.84 0.82 0.91 0.95 0.96 1.03 1.10 1.07 0.90 0.78 0.70 0.64 0.60 0.56 0.57 0.59 0.62
0.17 0.18 0.19 0.19 0.19 0.27 0.46 0.58 0.53 0.55 0.64 0.88 0.77 0.61 0.55 0.52 0.55 0.56 0.60 0.63 0.58 0.59 0.58 0.56 0.56 0.57 0.63 0.64 0.61 0.66 0.73 0.83 0.98 1.06 0.95 0.81 0.68 0.58 0.53 0.56 0.53 0.54 0.61 0.64
0.10 0.09 0.06 0.06 0.08 0.17 0.39 0.50 0.53 0.53 0.50 0.50 0.42 0.40 0.31 0.30 0.35 0.35 0.37 0.38 0.35 0.34 0.34 0.32 0.29 0.28 0.33 0.33 0.36 0.40 0.48 0.63 0.85 0.94 0.81 0.64 0.57 0.53 0.49 0.48 0.45 0.44 0.47 0.53
0.06 0.09 0.10 0.08 0.09 0.16 0.40 0.42 0.47 0.36 0.21 0.19 0.23 0.25 0.18 0.19 0.27 0.27 0.31 0.31 0.26 0.24 0.25 0.25 0.23 0.21 0.21 0.20 0.23 0.31 0.37 0.50 0.61 0.64 0.59 0.48 0.42 0.40 0.39 0.38 0.38 0.41 0.43 0.47
0.04 0.12 0.18 0.14 0.15 0.36 0.60 0.46 0.39 0.31 0.17 0.11 0.11 0.11 0.12 0.17 0.21 0.20 0.24 0.29 0.25 0.21 0.22 0.22 0.22 0.21 0.22 0.22 0.24 0.33 0.38 0.40 0.46 0.53 0.51 0.44 0.39 0.36 0.36 0.34 0.36 0.44 0.45 0.44
0.12 0.16 0.22 0.23 0.24 0.39 0.47 0.31 0.27 0.34 0.33 0.12 0.08 0.09 0.10 0.12 0.15 0.13 0.14 0.19 0.18 0.15 0.13 0.14 0.14 0.13 0.13 0.12 0.11 0.14 0.18 0.23 0.27 0.30 0.35 0.34 0.29 0.31 0.34 0.34 0.39 0.43 0.44 0.48
0.24 0.22 0.28 0.29 0.29 0.40 0.32 0.14 0.11 0.23 0.43 0.17 0.07 0.05 0.04 0.05 0.09 0.06 0.06 0.06 0.06 0.05 0.04 0.04 0.04 0.04 0.04 0.03 0.03 0.04 0.05 0.07 0.09 0.10 0.14 0.19 0.19 0.23 0.29 0.38 0.44 0.42 0.41 0.47
0.15 0.22 0.32 0.42 0.51 0.64 0.43 0.18 0.13 0.30 0.40 0.15 0.04 0.01 0.01 0.01 0.02 0.02 0.04 0.03 0.02 0.01 0.01 0.01 0.01 0.02 0.02 0.02 0.02 0.02 0.02 0.02 0.03 0.03 0.04 0.07 0.11 0.17 0.26 0.33 0.32 0.33 0.36 0.40
0.22 0.34 0.47 0.57 0.74 0.90 0.58 0.34 0.31 0.27 0.14 0.06 0.01 0.00 0.00 0.01 0.01 0.01 0.03 0.03 0.02 0.01 0.00 0.00 0.00 0.01 0.01 0.01 0.01 0.00 0.00 0.01 0.01 0.01 0.01 0.02 0.04 0.07 0.13 0.20 0.23 0.26 0.30 0.32
0.23 0.46 0.63 0.62 0.64 0.59 0.42 0.31 0.21 0.15 0.09 0.02 0.00 0.00 0.00 0.00 0.00 0.00 0.01 0.02 0.02 0.01 0.00 0.00 0.00 0.00 0.01 0.00 0.00 0.00 0.00 0.01 0.01 0.00 0.00 0.01 0.01 0.02 0.06 0.12 0.17 0.21 0.27 0.30
0.09 0.14 0.17 0.20 0.23 0.21 0.17 0.12 0.08 0.06 0.05 0.01 0.00 0.00 0.00 0.00 0.00 0.00 0.00 0.01 0.02 0.01 0.00 0.00 0.00 0.01 0.01 0.01 0.01 0.01 0.01 0.01 0.00 0.00 0.00 0.01 0.01 0.02 0.03 0.06 0.13 0.21 0.24 0.23
0.06 0.05 0.05 0.06 0.06 0.07 0.07 0.05 0.04 0.03 0.02 0.01 0.00 0.00 0.00 0.00 0.00 0.00 0.00 0.01 0.02 0.01 0.00 0.00 0.00 0.01 0.01 0.01 0.01 0.01 0.01 0.00 0.00 0.00 0.00 0.01 0.01 0.02 0.02 0.02 0.06 0.13 0.16 0.15
0.05 0.06 0.06 0.04 0.02 0.03 0.05 0.03 0.02 0.02 0.01 0.00 0.00 0.00 0.00 0.00 0.00 0.00 0.00 0.01 0.02 0.01 0.00 0.00 0.00 0.01 0.01 0.01 0.01 0.00 0.00 0.00 0.00 0.00 0.00 0.01 0.01 0.02 0.02 0.03 0.04 0.06 0.07 0.09

GEFSCGP_prec_meanprecacc_162.txt.gz
Total_Precipitation_Accumulation
0.39 0.61 0.87 0.96 0.99 0.86 0.69 0.60 0.59 0.54 0.54 0.58 0.56 0.54 0.54 0.53 0.46 0.38 0.36 0.34 0.33 0.30 0.33 0.36 0.39 0.38 0.33 0.31 0.35 0.40 0.44 0.54 0.65 0.87 1.19 1.62 1.84 1.97 1.99 2.01 1.91 1.70 1.48 1.50
0.48 0.48 0.40 0.49 0.53 0.59 0.57 0.58 0.55 0.51 0.49 0.49 0.43 0.39 0.40 0.38 0.28 0.25 0.26 0.25 0.27 0.27 0.28 0.24 0.26 0.28 0.24 0.21 0.21 0.30 0.36 0.45 0.58 0.86 1.18 1.53 1.89 1.97 2.00 2.01 1.97 1.84 1.72 1.73
0.40 0.36 0.33 0.41 0.47 0.53 0.51 0.56 0.53 0.53 0.54 0.48 0.42 0.39 0.40 0.33 0.25 0.23 0.22 0.21 0.24 0.23 0.24 0.22 0.20 0.20 0.20 0.18 0.16 0.21 0.26 0.40 0.69 1.02 1.34 1.53 1.83 1.96 2.02 1.99 2.00 2.02 1.97 1.88
0.47 0.34 0.32 0.39 0.40 0.41 0.53 0.39 0.35 0.37 0.49 0.52 0.42 0.47 0.39 0.32 0.33 0.30 0.27 0.25 0.28 0.28 0.24 0.22 0.21 0.17 0.15 0.15 0.14 0.17 0.24 0.43 0.77 1.10 1.36 1.59 1.94 2.06 2.04 2.07 2.08 2.08 2.11 2.07
0.46 0.31 0.31 0.32 0.29 0.28 0.39 0.31 0.29 0.29 0.38 0.42 0.31 0.34 0.36 0.31 0.35 0.38 0.33 0.31 0.33 0.30 0.23 0.19 0.17 0.16 0.15 0.16 0.17 0.22 0.36 0.56 0.82 1.02 1.26 1.62 1.87 1.99 2.15 2.10 2.08 2.09 2.16 2.18
0.40 0.27 0.25 0.26 0.24 0.22 0.25 0.32 0.34 0.32 0.35 0.39 0.22 0.28 0.39 0.34 0.29 0.30 0.29 0.28 0.29 0.27 0.24 0.22 0.20 0.19 0.20 0.23 0.28 0.36 0.51 0.66 0.88 1.06 1.25 1.43 1.69 1.83 1.98 2.08 2.02 2.03 2.11 2.21
0.35 0.27 0.19 0.16 0.22 0.22 0.24 0.42 0.56 0.53 0.53 0.43 0.22 0.31 0.44 0.32 0.24 0.25 0.25 0.25 0.27 0.29 0.29 0.34 0.34 0.37 0.43 0.48 0.50 0.59 0.68 0.78 0.91 1.01 1.11 1.17 1.32 1.49 1.55 1.72 1.81 1.95 1.97 2.03
0.28 0.26 0.15 0.11 0.14 0.19 0.19 0.33 0.53 0.56 0.48 0.40 0.32 0.48 0.50 0.34 0.27 0.27 0.27 0.30 0.33 0.41 0.46 0.56 0.64 0.71 0.77 0.78 0.76 0.83 0.89 0.88 0.86 0.91 0.97 1.00 1.06 1.14 1.22 1.27 1.32 1.51 1.68 1.72
0.24 0.22 0.12 0.11 0.13 0.16 0.18 0.22 0.29 0.38 0.32 0.32 0.33 0.50 0.50 0.37 0.35 0.35 0.35 0.39 0.48 0.66 0.75 0.85 0.94 0.95 0.94 0.92 0.87 0.88 0.91 0.89 0.87 0.88 0.86 0.82 0.81 0.88 0.99 1.01 1.09 1.16 1.26 1.28
0.20 0.22 0.13 0.11 0.13 0.13 0.15 0.21 0.30 0.51 0.59 0.52 0.45 0.57 0.59 0.49 0.42 0.40 0.44 0.54 0.71 0.97 1.10 1.23 1.30 1.21 1.12 1.11 1.15 1.04 0.95 0.88 0.84 0.84 0.84 0.77 0.73 0.79 0.83 0.83 0.90 0.89 0.91 0.94
0.16 0.21 0.17 0.11 0.11 0.12 0.18 0.26 0.37 0.58 0.65 0.80 0.86 0.94 0.74 0.62 0.62 0.69 0.79 0.87 1.08 1.35 1.49 1.58 1.59 1.47 1.27 1.13 1.11 1.06 0.95 0.83 0.73 0.72 0.77 0.77 0.72 0.73 0.78 0.78 0.73 0.67 0.70 0.78
0.14 0.24 0.21 0.12 0.13 0.17 0.28 0.43 0.59 0.95 0.91 0.79 0.97 1.16 0.86 0.71 0.74 0.77 0.84 0.96 1.18 1.31 1.37 1.40 1.34 1.33 1.22 1.12 1.03 0.97 0.86 0.72 0.67 0.71 0.74 0.76 0.68 0.62 0.65 0.66 0.68 0.59 0.56 0.62
0.21 0.33 0.39 0.32 0.32 0.36 0.42 0.49 0.59 0.72 0.88 0.93 1.11 1.28 0.94 0.72 0.71 0.78 0.89 0.95 0.99 0.98 1.03 1.12 1.16 1.07 1.02 0.95 0.90 0.97 0.96 0.84 0.82 0.85 0.91 0.84 0.71 0.67 0.65 0.61 0.64 0.59 0.56 0.61
0.25 0.34 0.41 0.49 0.51 0.54 0.56 0.50 0.48 0.60 0.82 0.89 0.97 0.99 0.77 0.65 0.64 0.67 0.75 0.79 0.82 0.82 0.85 0.89 0.94 0.90 0.91 0.84 0.82 0.91 0.96 0.96 1.03 1.10 1.07 0.90 0.78 0.70 0.64 0.60 0.56 0.57 0.59 0.62
0.18 0.20 0.20 0.20 0.20 0.28 0.47 0.59 0.54 0.56 0.65 0.89 0.77 0.62 0.56 0.53 0.55 0.57 0.61 0.65 0.61 0.61 0.62 0.60 0.57 0.58 0.63 0.64 0.62 0.66 0.73 0.84 0.98 1.06 0.95 0.81 0.68 0.58 0.53 0.56 0.53 0.54 0.61 0.64
0.12 0.10 0.07 0.07 0.09 0.17 0.40 0.50 0.53 0.53 0.51 0.51 0.43 0.40 0.31 0.30 0.36 0.37 0.39 0.39 0.37 0.36 0.37 0.35 0.31 0.29 0.33 0.34 0.36 0.40 0.48 0.63 0.86 0.94 0.82 0.65 0.57 0.54 0.49 0.48 0.45 0.44 0.47 0.53
0.07 0.11 0.12 0.10 0.10 0.17 0.41 0.43 0.47 0.36 0.23 0.20 0.24 0.25 0.18 0.19 0.28 0.30 0.33 0.33 0.29 0.26 0.27 0.27 0.24 0.21 0.22 0.21 0.24 0.32 0.38 0.51 0.62 0.66 0.60 0.48 0.42 0.40 0.39 0.38 0.38 0.41 0.43 0.47
0.05 0.13 0.21 0.18 0.18 0.39 0.61 0.47 0.39 0.32 0.18 0.11 0.11 0.11 0.12 0.17 0.22 0.21 0.26 0.31 0.27 0.23 0.24 0.24 0.24 0.23 0.24 0.26 0.27 0.36 0.40 0.42 0.47 0.54 0.53 0.45 0.40 0.37 0.36 0.35 0.36 0.44 0.45 0.44
0.12 0.17 0.26 0.27 0.29 0.41 0.48 0.32 0.27 0.34 0.33 0.13 0.09 0.09 0.10 0.12 0.16 0.14 0.15 0.20 0.20 0.16 0.15 0.15 0.15 0.14 0.14 0.14 0.14 0.16 0.20 0.25 0.28 0.31 0.36 0.35 0.30 0.31 0.34 0.34 0.40 0.44 0.44 0.48
0.25 0.23 0.31 0.33 0.35 0.45 0.35 0.15 0.11 0.24 0.44 0.17 0.07 0.06 0.04 0.05 0.10 0.07 0.06 0.07 0.08 0.07 0.05 0.05 0.05 0.05 0.05 0.04 0.04 0.05 0.06 0.07 0.09 0.10 0.15 0.19 0.20 0.23 0.29 0.38 0.44 0.42 0.41 0.47
0.17 0.23 0.33 0.44 0.55 0.68 0.45 0.19 0.14 0.32 0.42 0.16 0.05 0.02 0.02 0.02 0.02 0.02 0.04 0.03 0.02 0.02 0.02 0.01 0.02 0.02 0.02 0.02 0.03 0.03 0.04 0.03 0.03 0.03 0.04 0.07 0.12 0.17 0.26 0.33 0.32 0.33 0.36 0.40
0.25 0.37 0.50 0.60 0.79 0.95 0.60 0.37 0.33 0.28 0.15 0.06 0.02 0.01 0.01 0.01 0.01 0.01 0.03 0.03 0.02 0.01 0.01 0.01 0.01 0.01 0.01 0.01 0.01 0.02 0.02 0.01 0.01 0.01 0.01 0.02 0.05 0.07 0.13 0.20 0.23 0.26 0.30 0.32
0.25 0.49 0.66 0.66 0.68 0.62 0.45 0.34 0.24 0.17 0.10 0.02 0.01 0.00 0.00 0.00 0.00 0.01 0.01 0.02 0.02 0.01 0.00 0.00 0.01 0.01 0.01 0.00 0.00 0.00 0.01 0.01 0.01 0.01 0.01 0.01 0.01 0.02 0.06 0.12 0.17 0.21 0.27 0.30
0.09 0.16 0.19 0.22 0.25 0.23 0.18 0.14 0.10 0.07 0.05 0.01 0.00 0.00 0.00 0.00 0.00 0.00 0.01 0.01 0.02 0.01 0.00 0.01 0.01 0.01 0.01 0.01 0.01 0.01 0.01 0.01 0.01 0.01 0.01 0.01 0.01 0.02 0.03 0.06 0.13 0.22 0.24 0.23
0.07 0.07 0.06 0.07 0.07 0.08 0.08 0.06 0.05 0.04 0.02 0.01 0.00 0.00 0.00 0.00 0.00 0.00 0.00 0.01 0.02 0.01 0.00 0.01 0.01 0.01 0.01 0.01 0.01 0.01 0.01 0.01 0.01 0.01 0.01 0.01 0.01 0.02 0.02 0.03 0.07 0.14 0.16 0.16
0.07 0.08 0.07 0.05 0.03 0.04 0.05 0.04 0.03 0.03 0.01 0.00 0.00 0.00 0.00 0.00 0.00 0.00 0.00 0.01 0.02 0.02 0.01 0.00 0.01 0.02 0.02 0.01 0.01 0.01 0.01 0.01 0.01 0.02 0.01 0.01 0.01 0.02 0.02 0.03 0.04 0.07 0.07 0.09

GEFSCGP_prec_meanprecacc_168.txt.gz
Total_Precipitation_Accumulation
0.41 0.64 0.90 0.99 1.01 0.89 0.72 0.64 0.64 0.62 0.60 0.63 0.60 0.59 0.61 0.60 0.56 0.49 0.42 0.40 0.37 0.32 0.36 0.40 0.42 0.41 0.35 0.32 0.36 0.41 0.46 0.56 0.68 0.90 1.21 1.63 1.84 1.98 2.00 2.01 1.91 1.70 1.48 1.50
0.50 0.49 0.42 0.51 0.55 0.62 0.59 0.60 0.59 0.57 0.54 0.53 0.46 0.43 0.46 0.44 0.36 0.32 0.30 0.30 0.30 0.29 0.30 0.27 0.30 0.31 0.26 0.22 0.22 0.31 0.37 0.46 0.61 0.89 1.20 1.53 1.89 1.97 2.00 2.01 1.97 1.85 1.72 1.73
0.41 0.37 0.35 0.45 0.51 0.55 0.54 0.58 0.55 0.57 0.58 0.52 0.44 0.42 0.45 0.39 0.30 0.26 0.24 0.25 0.27 0.25 0.25 0.25 0.24 0.24 0.22 0.19 0.16 0.21 0.27 0.41 0.70 1.05 1.36 1.54 1.84 1.96 2.02 1.99 2.00 2.02 1.98 1.88
0.48 0.35 0.34 0.43 0.43 0.43 0.56 0.41 0.36 0.39 0.52 0.56 0.45 0.50 0.44 0.37 0.39 0.34 0.28 0.27 0.30 0.30 0.25 0.24 0.25 0.21 0.17 0.16 0.15 0.17 0.24 0.44 0.77 1.12 1.37 1.60 1.95 2.06 2.04 2.07 2.08 2.09 2.11 2.07
0.47 0.32 0.32 0.35 0.31 0.30 0.41 0.32 0.31 0.32 0.40 0.45 0.34 0.36 0.38 0.36 0.42 0.44 0.36 0.32 0.34 0.31 0.24 0.22 0.21 0.19 0.17 0.17 0.18 0.22 0.36 0.56 0.82 1.03 1.28 1.63 1.88 1.99 2.15 2.10 2.08 2.10 2.16 2.18
0.41 0.27 0.26 0.27 0.26 0.23 0.27 0.34 0.36 0.34 0.38 0.42 0.24 0.30 0.41 0.36 0.33 0.35 0.34 0.29 0.30 0.29 0.25 0.25 0.23 0.21 0.21 0.24 0.29 0.36 0.51 0.66 0.89 1.07 1.27 1.45 1.69 1.84 1.98 2.08 2.03 2.04 2.12 2.22
0.36 0.27 0.20 0.17 0.23 0.23 0.26 0.46 0.61 0.56 0.56 0.44 0.23 0.32 0.45 0.33 0.26 0.27 0.28 0.27 0.28 0.30 0.31 0.36 0.36 0.38 0.44 0.48 0.51 0.59 0.68 0.79 0.91 1.01 1.12 1.18 1.33 1.50 1.55 1.72 1.81 1.95 1.97 2.04
0.30 0.27 0.16 0.12 0.16 0.22 0.22 0.36 0.58 0.60 0.50 0.42 0.34 0.50 0.51 0.35 0.28 0.28 0.28 0.32 0.35 0.42 0.48 0.57 0.65 0.73 0.79 0.78 0.77 0.84 0.90 0.88 0.87 0.92 0.98 1.01 1.07 1.15 1.22 1.27 1.32 1.51 1.68 1.73
0.26 0.24 0.12 0.11 0.13 0.17 0.19 0.25 0.33 0.42 0.34 0.35 0.36 0.52 0.51 0.38 0.36 0.36 0.36 0.41 0.50 0.67 0.76 0.86 0.94 0.95 0.95 0.93 0.88 0.89 0.92 0.90 0.88 0.88 0.87 0.83 0.82 0.89 0.99 1.01 1.09 1.16 1.26 1.28
0.22 0.24 0.15 0.12 0.14 0.14 0.16 0.25 0.37 0.57 0.64 0.56 0.48 0.60 0.62 0.52 0.44 0.41 0.45 0.55 0.73 0.99 1.12 1.24 1.32 1.22 1.13 1.12 1.16 1.05 0.96 0.89 0.85 0.85 0.84 0.78 0.74 0.79 0.83 0.83 0.90 0.90 0.91 0.94
0.17 0.24 0.20 0.13 0.12 0.13 0.19 0.29 0.41 0.62 0.69 0.84 0.92 1.00 0.78 0.65 0.63 0.70 0.80 0.89 1.10 1.37 1.52 1.61 1.61 1.50 1.29 1.15 1.14 1.07 0.96 0.84 0.74 0.73 0.78 0.77 0.72 0.74 0.78 0.78 0.73 0.67 0.70 0.78
0.16 0.26 0.24 0.13 0.14 0.18 0.30 0.45 0.63 0.99 0.96 0.86 1.04 1.20 0.91 0.74 0.76 0.79 0.85 0.98 1.20 1.33 1.39 1.43 1.37 1.35 1.23 1.14 1.05 0.99 0.88 0.74 0.68 0.72 0.74 0.76 0.68 0.63 0.66 0.67 0.69 0.59 0.56 0.62
0.22 0.34 0.41 0.35 0.35 0.38 0.45 0.51 0.61 0.75 0.92 0.99 1.17 1.32 0.97 0.75 0.74 0.79 0.91 0.97 1.02 1.00 1.06 1.15 1.19 1.08 1.04 0.97 0.91 0.98 0.98 0.86 0.83 0.86 0.91 0.84 0.71 0.67 0.65 0.61 0.64 0.59 0.56 0.61
0.26 0.35 0.44 0.53 0.55 0.57 0.58 0.51 0.49 0.62 0.86 0.92 1.00 1.03 0.79 0.67 0.67 0.70 0.77 0.81 0.85 0.86 0.88 0.91 0.96 0.91 0.93 0.86 0.83 0.92 0.97 0.97 1.04 1.11 1.07 0.91 0.78 0.71 0.65 0.60 0.57 0.57 0.59 0.62
0.20 0.22 0.22 0.23 0.22 0.30 0.48 0.60 0.54 0.57 0.68 0.92 0.79 0.63 0.57 0.54 0.58 0.59 0.63 0.67 0.63 0.67 0.66 0.63 0.59 0.60 0.66 0.66 0.63 0.67 0.75 0.84 0.99 1.06 0.95 0.81 0.69 0.59 0.55 0.57 0.53 0.55 0.61 0.64
0.12 0.11 0.09 0.09 0.10 0.19 0.41 0.51 0.54 0.54 0.53 0.53 0.44 0.41 0.32 0.31 0.37 0.38 0.42 0.41 0.39 0.41 0.41 0.39 0.34 0.32 0.36 0.35 0.37 0.41 0.50 0.64 0.86 0.94 0.82 0.65 0.58 0.55 0.51 0.49 0.46 0.45 0.47 0.53
0.07 0.12 0.15 0.12 0.10 0.18 0.42 0.43 0.48 0.37 0.24 0.21 0.25 0.25 0.18 0.20 0.29 0.31 0.35 0.35 0.30 0.29 0.31 0.30 0.28 0.24 0.24 0.25 0.28 0.35 0.42 0.54 0.64 0.67 0.62 0.51 0.45 0.43 0.41 0.39 0.39 0.41 0.44 0.47
0.07 0.15 0.24 0.20 0.19 0.40 0.62 0.48 0.40 0.33 0.20 0.13 0.13 0.12 0.13 0.17 0.23 0.22 0.27 0.33 0.29 0.25 0.26 0.26 0.26 0.26 0.28 0.31 0.32 0.41 0.45 0.46 0.50 0.56 0.57 0.48 0.42 0.39 0.38 0.36 0.37 0.45 0.45 0.44
0.14 0.20 0.29 0.29 0.30 0.42 0.48 0.33 0.29 0.37 0.35 0.14 0.10 0.10 0.11 0.13 0.17 0.16 0.17 0.22 0.21 0.18 0.16 0.16 0.17 0.16 0.17 0.19 0.22 0.24 0.24 0.27 0.29 0.33 0.38 0.37 0.32 0.32 0.36 0.35 0.40 0.44 0.44 0.48
0.26 0.25 0.33 0.35 0.36 0.47 0.38 0.18 0.14 0.27 0.47 0.19 0.07 0.06 0.05 0.07 0.11 0.09 0.08 0.09 0.09 0.09 0.07 0.06 0.07 0.07 0.07 0.06 0.09 0.11 0.10 0.09 0.10 0.11 0.16 0.20 0.20 0.23 0.29 0.39 0.45 0.43 0.41 0.47
0.18 0.24 0.35 0.46 0.57 0.70 0.49 0.23 0.16 0.35 0.45 0.18 0.05 0.02 0.02 0.02 0.03 0.03 0.05 0.06 0.04 0.04 0.04 0.04 0.04 0.05 0.04 0.04 0.05 0.07 0.06 0.04 0.04 0.04 0.05 0.08 0.12 0.17 0.26 0.33 0.33 0.33 0.37 0.40
0.26 0.38 0.51 0.63 0.82 0.98 0.64 0.41 0.35 0.30 0.18 0.07 0.03 0.01 0.02 0.02 0.02 0.03 0.05 0.06 0.04 0.03 0.03 0.03 0.03 0.04 0.03 0.02 0.02 0.04 0.04 0.02 0.02 0.02 0.02 0.03 0.05 0.08 0.13 0.20 0.24 0.27 0.31 0.33
0.27 0.51 0.68 0.68 0.71 0.66 0.49 0.37 0.26 0.18 0.11 0.03 0.01 0.01 0.01 0.01 0.01 0.02 0.03 0.03 0.03 0.02 0.02 0.02 0.03 0.03 0.02 0.01 0.01 0.01 0.02 0.02 0.02 0.01 0.01 0.02 0.02 0.03 0.07 0.13 0.18 0.21 0.28 0.30
0.12 0.18 0.22 0.25 0.28 0.26 0.22 0.17 0.12 0.08 0.06 0.02 0.01 0.01 0.01 0.01 0.01 0.01 0.02 0.02 0.02 0.01 0.01 0.02 0.03 0.03 0.02 0.01 0.01 0.01 0.02 0.02 0.02 0.01 0.01 0.01 0.01 0.02 0.04 0.07 0.13 0.22 0.24 0.23
0.09 0.08 0.08 0.09 0.09 0.09 0.10 0.09 0.08 0.06 0.03 0.01 0.01 0.01 0.02 0.01 0.01 0.01 0.01 0.02 0.02 0.01 0.01 0.02 0.02 0.02 0.03 0.02 0.01 0.01 0.01 0.01 0.02 0.02 0.01 0.01 0.01 0.02 0.02 0.03 0.07 0.14 0.16 0.16
0.08 0.09 0.09 0.07 0.05 0.05 0.07 0.05 0.04 0.04 0.02 0.01 0.01 0.01 0.01 0.01 0.01 0.01 0.01 0.01 0.02 0.02 0.01 0.01 0.02 0.03 0.03 0.02 0.01 0.01 0.01 0.01 0.01 0.02 0.01 0.01 0.02 0.02 0.02 0.03 0.04 0.07 0.07 0.09

GEFSCGP_prec_meanprecacc_174.txt.gz
Total_Precipitation_Accumulation
0.42 0.66 0.93 1.01 1.02 0.91 0.73 0.65 0.66 0.63 0.61 0.65 0.65 0.64 0.66 0.67 0.64 0.55 0.47 0.43 0.40 0.35 0.38 0.41 0.44 0.42 0.35 0.33 0.37 0.43 0.49 0.59 0.72 0.92 1.22 1.63 1.85 1.98 2.00 2.02 1.91 1.70 1.49 1.50
0.51 0.51 0.45 0.53 0.57 0.63 0.61 0.62 0.61 0.58 0.55 0.55 0.49 0.47 0.50 0.49 0.42 0.37 0.36 0.34 0.34 0.31 0.32 0.29 0.31 0.32 0.27 0.23 0.23 0.33 0.40 0.49 0.64 0.92 1.22 1.55 1.91 1.98 2.00 2.01 1.97 1.85 1.72 1.73
0.43 0.39 0.38 0.48 0.53 0.57 0.56 0.60 0.57 0.59 0.60 0.54 0.46 0.44 0.47 0.42 0.34 0.30 0.29 0.28 0.30 0.26 0.28 0.27 0.26 0.26 0.24 0.21 0.18 0.24 0.29 0.43 0.73 1.07 1.39 1.58 1.86 1.97 2.03 1.99 2.01 2.02 1.98 1.89
0.50 0.38 0.38 0.46 0.46 0.45 0.58 0.42 0.37 0.40 0.54 0.58 0.46 0.52 0.45 0.38 0.40 0.36 0.31 0.31 0.32 0.31 0.27 0.26 0.27 0.24 0.20 0.17 0.16 0.19 0.26 0.45 0.79 1.14 1.39 1.63 1.98 2.08 2.05 2.08 2.08 2.09 2.11 2.07
0.48 0.33 0.34 0.37 0.34 0.32 0.44 0.34 0.33 0.34 0.43 0.47 0.35 0.36 0.39 0.37 0.43 0.45 0.37 0.37 0.35 0.31 0.25 0.23 0.22 0.22 0.20 0.18 0.18 0.23 0.37 0.57 0.83 1.04 1.30 1.66 1.91 2.03 2.17 2.10 2.09 2.10 2.16 2.18
0.41 0.28 0.27 0.29 0.28 0.26 0.30 0.36 0.38 0.37 0.40 0.43 0.24 0.30 0.41 0.37 0.34 0.36 0.35 0.32 0.31 0.29 0.26 0.26 0.24 0.23 0.23 0.25 0.30 0.37 0.52 0.67 0.89 1.08 1.29 1.48 1.73 1.86 1.99 2.09 2.04 2.04 2.12 2.22
0.37 0.28 0.21 0.19 0.26 0.26 0.28 0.48 0.63 0.59 0.58 0.46 0.23 0.32 0.45 0.34 0.27 0.27 0.29 0.28 0.28 0.31 0.33 0.36 0.37 0.40 0.46 0.49 0.52 0.60 0.69 0.80 0.92 1.02 1.14 1.21 1.38 1.53 1.57 1.73 1.82 1.95 1.97 2.04
0.30 0.28 0.17 0.14 0.19 0.24 0.24 0.37 0.59 0.62 0.52 0.43 0.34 0.50 0.52 0.35 0.29 0.29 0.29 0.33 0.35 0.43 0.49 0.59 0.66 0.74 0.80 0.79 0.77 0.84 0.90 0.89 0.88 0.93 1.00 1.03 1.10 1.19 1.25 1.29 1.33 1.51 1.68 1.73
0.26 0.25 0.13 0.12 0.15 0.18 0.21 0.27 0.34 0.43 0.35 0.35 0.36 0.52 0.51 0.38 0.37 0.36 0.37 0.42 0.50 0.68 0.78 0.87 0.95 0.97 0.96 0.93 0.88 0.89 0.93 0.91 0.89 0.90 0.89 0.85 0.84 0.91 1.01 1.02 1.09 1.17 1.27 1.28
0.23 0.25 0.15 0.13 0.16 0.15 0.18 0.28 0.38 0.58 0.65 0.57 0.48 0.60 0.62 0.52 0.44 0.41 0.46 0.56 0.73 1.00 1.13 1.25 1.33 1.24 1.14 1.14 1.17 1.05 0.96 0.90 0.86 0.86 0.86 0.79 0.76 0.81 0.85 0.84 0.91 0.90 0.92 0.94
0.18 0.25 0.21 0.15 0.13 0.14 0.20 0.30 0.42 0.64 0.70 0.85 0.93 1.00 0.79 0.66 0.63 0.71 0.81 0.89 1.11 1.38 1.53 1.63 1.63 1.52 1.31 1.17 1.16 1.08 0.97 0.85 0.75 0.74 0.79 0.79 0.74 0.76 0.81 0.80 0.75 0.68 0.72 0.79
0.17 0.27 0.25 0.15 0.15 0.18 0.31 0.46 0.63 1.00 0.97 0.86 1.05 1.21 0.91 0.75 0.76 0.79 0.86 0.99 1.21 1.33 1.40 1.45 1.40 1.38 1.25 1.16 1.07 1.00 0.88 0.74 0.69 0.73 0.75 0.77 0.69 0.64 0.68 0.69 0.70 0.61 0.58 0.62
0.23 0.35 0.42 0.37 0.36 0.39 0.45 0.52 0.62 0.75 0.92 0.99 1.17 1.32 0.97 0.75 0.74 0.79 0.91 0.98 1.03 1.00 1.07 1.16 1.22 1.11 1.06 0.99 0.93 0.99 0.99 0.87 0.84 0.87 0.93 0.86 0.72 0.68 0.66 0.64 0.66 0.61 0.58 0.61
0.28 0.36 0.45 0.54 0.56 0.57 0.58 0.51 0.49 0.63 0.86 0.93 1.00 1.03 0.79 0.67 0.67 0.70 0.77 0.81 0.86 0.86 0.89 0.92 0.98 0.94 0.95 0.89 0.85 0.94 0.98 0.98 1.05 1.13 1.09 0.92 0.79 0.71 0.65 0.62 0.60 0.60 0.60 0.63
0.22 0.23 0.23 0.24 0.22 0.30 0.49 0.60 0.54 0.58 0.68 0.92 0.79 0.63 0.58 0.55 0.58 0.60 0.64 0.67 0.64 0.67 0.67 0.64 0.60 0.62 0.68 0.68 0.65 0.69 0.76 0.86 1.01 1.08 0.97 0.83 0.70 0.60 0.55 0.58 0.55 0.57 0.63 0.65
0.14 0.13 0.10 0.09 0.10 0.19 0.41 0.51 0.54 0.54 0.53 0.53 0.45 0.41 0.32 0.31 0.37 0.39 0.42 0.42 0.39 0.41 0.42 0.40 0.36 0.34 0.39 0.38 0.39 0.43 0.52 0.67 0.88 0.96 0.83 0.66 0.58 0.56 0.52 0.50 0.47 0.46 0.48 0.54
0.10 0.14 0.16 0.13 0.11 0.19 0.42 0.43 0.48 0.38 0.24 0.21 0.25 0.25 0.18 0.20 0.29 0.31 0.35 0.36 0.31 0.30 0.32 0.31 0.30 0.26 0.27 0.27 0.30 0.37 0.44 0.56 0.66 0.69 0.64 0.52 0.45 0.43 0.41 0.40 0.40 0.42 0.44 0.47
0.09 0.18 0.27 0.21 0.20 0.41 0.62 0.48 0.40 0.34 0.20 0.13 0.13 0.12 0.13 0.17 0.23 0.23 0.28 0.34 0.30 0.26 0.27 0.26 0.27 0.28 0.30 0.34 0.36 0.45 0.49 0.49 0.52 0.59 0.59 0.50 0.42 0.39 0.38 0.36 0.37 0.45 0.46 0.44
0.15 0.21 0.31 0.30 0.31 0.42 0.49 0.33 0.29 0.37 0.36 0.15 0.11 0.11 0.11 0.13 0.17 0.16 0.18 0.22 0.22 0.19 0.17 0.17 0.17 0.17 0.19 0.21 0.25 0.27 0.28 0.29 0.32 0.36 0.41 0.38 0.32 0.34 0.37 0.36 0.40 0.44 0.44 0.48
0.27 0.26 0.35 0.36 0.36 0.47 0.39 0.18 0.14 0.27 0.48 0.20 0.08 0.07 0.05 0.07 0.11 0.09 0.08 0.09 0.10 0.10 0.08 0.07 0.07 0.08 0.08 0.08 0.12 0.15 0.12 0.10 0.11 0.13 0.19 0.21 0.21 0.24 0.31 0.40 0.46 0.44 0.42 0.47
0.18 0.25 0.35 0.46 0.57 0.71 0.49 0.23 0.16 0.35 0.46 0.18 0.06 0.03 0.03 0.03 0.03 0.04 0.05 0.07 0.05 0.05 0.05 0.04 0.04 0.05 0.06 0.06 0.07 0.10 0.08 0.05 0.05 0.06 0.08 0.09 0.13 0.19 0.28 0.35 0.34 0.35 0.37 0.41
0.27 0.39 0.52 0.63 0.82 0.99 0.64 0.41 0.36 0.31 0.18 0.08 0.03 0.02 0.02 0.02 0.02 0.03 0.06 0.06 0.05 0.05 0.04 0.03 0.03 0.05 0.05 0.04 0.04 0.06 0.06 0.04 0.04 0.04 0.05 0.05 0.06 0.09 0.14 0.21 0.24 0.27 0.31 0.33
0.27 0.52 0.69 0.68 0.72 0.66 0.49 0.38 0.26 0.19 0.12 0.04 0.02 0.02 0.02 0.01 0.01 0.02 0.03 0.04 0.04 0.02 0.02 0.03 0.04 0.04 0.04 0.03 0.03 0.03 0.05 0.06 0.05 0.03 0.03 0.03 0.03 0.04 0.07 0.13 0.18 0.22 0.28 0.30
0.12 0.19 0.23 0.26 0.29 0.27 0.22 0.18 0.13 0.09 0.06 0.02 0.02 0.02 0.02 0.02 0.01 0.02 0.02 0.03 0.03 0.02 0.02 0.04 0.05 0.05 0.04 0.03 0.04 0.04 0.05 0.06 0.05 0.04 0.03 0.03 0.03 0.04 0.05 0.07 0.14 0.22 0.25 0.24
0.10 0.09 0.09 0.11 0.11 0.11 0.11 0.10 0.09 0.06 0.03 0.02 0.01 0.02 0.03 0.02 0.02 0.02 0.03 0.04 0.04 0.02 0.02 0.03 0.04 0.05 0.05 0.04 0.03 0.04 0.04 0.04 0.05 0.04 0.03 0.03 0.03 0.03 0.03 0.03 0.07 0.14 0.17 0.16
0.10 0.10 0.10 0.08 0.06 0.06 0.08 0.06 0.05 0.05 0.03 0.03 0.02 0.02 0.02 0.02 0.02 0.03 0.03 0.02 0.03 0.03 0.02 0.02 0.03 0.04 0.06 0.06 0.04 0.04 0.05 0.04 0.05 0.05 0.03 0.03 0.03 0.04 0.04 0.04 0.05 0.07 0.08 0.10

GEFSCGP_prec_meanprecacc_180.txt.gz
Total_Precipitation_Accumulation
0.42 0.67 0.94 1.02 1.03 0.92 0.76 0.68 0.68 0.64 0.62 0.68 0.67 0.68 0.71 0.71 0.68 0.60 0.50 0.45 0.42 0.37 0.42 0.44 0.45 0.43 0.36 0.33 0.38 0.44 0.50 0.60 0.73 0.94 1.23 1.64 1.85 1.99 2.00 2.02 1.91 1.70 1.49 1.50
0.51 0.52 0.46 0.54 0.57 0.64 0.63 0.65 0.64 0.61 0.56 0.56 0.52 0.51 0.54 0.54 0.46 0.42 0.39 0.35 0.35 0.33 0.36 0.33 0.33 0.33 0.28 0.24 0.24 0.34 0.41 0.51 0.65 0.94 1.24 1.57 1.91 1.99 2.00 2.02 1.98 1.85 1.72 1.73
0.44 0.41 0.39 0.49 0.55 0.59 0.58 0.63 0.61 0.62 0.61 0.55 0.48 0.48 0.52 0.47 0.37 0.32 0.31 0.31 0.32 0.29 0.31 0.30 0.29 0.27 0.25 0.21 0.19 0.25 0.31 0.45 0.75 1.09 1.41 1.60 1.88 1.98 2.03 1.99 2.01 2.03 1.98 1.89
0.52 0.40 0.39 0.48 0.48 0.47 0.61 0.44 0.40 0.43 0.56 0.61 0.48 0.55 0.49 0.42 0.43 0.37 0.33 0.33 0.33 0.33 0.29 0.28 0.30 0.27 0.21 0.18 0.17 0.20 0.27 0.47 0.81 1.15 1.41 1.65 2.00 2.10 2.06 2.09 2.08 2.09 2.11 2.07
0.50 0.35 0.35 0.39 0.35 0.33 0.46 0.36 0.34 0.37 0.46 0.49 0.36 0.38 0.42 0.40 0.45 0.46 0.39 0.39 0.36 0.32 0.27 0.25 0.25 0.24 0.22 0.20 0.20 0.24 0.40 0.59 0.85 1.05 1.31 1.67 1.93 2.05 2.18 2.11 2.09 2.10 2.16 2.18
0.42 0.29 0.28 0.30 0.29 0.27 0.32 0.37 0.40 0.39 0.43 0.45 0.25 0.31 0.42 0.38 0.35 0.36 0.37 0.35 0.32 0.29 0.27 0.27 0.26 0.25 0.26 0.27 0.31 0.38 0.53 0.68 0.91 1.09 1.29 1.49 1.75 1.88 2.01 2.11 2.05 2.05 2.12 2.22
0.38 0.29 0.22 0.19 0.27 0.28 0.30 0.49 0.66 0.62 0.61 0.49 0.25 0.33 0.46 0.34 0.27 0.28 0.30 0.31 0.29 0.32 0.33 0.37 0.38 0.42 0.48 0.51 0.53 0.61 0.70 0.81 0.93 1.03 1.14 1.23 1.40 1.55 1.58 1.75 1.84 1.97 1.98 2.05
0.31 0.30 0.19 0.15 0.20 0.28 0.26 0.39 0.62 0.64 0.54 0.45 0.36 0.51 0.53 0.35 0.29 0.29 0.29 0.34 0.36 0.43 0.49 0.59 0.66 0.75 0.82 0.81 0.80 0.87 0.92 0.90 0.89 0.94 1.01 1.05 1.13 1.22 1.28 1.31 1.34 1.52 1.69 1.73
0.27 0.26 0.14 0.14 0.16 0.20 0.23 0.29 0.35 0.44 0.36 0.37 0.38 0.53 0.51 0.38 0.37 0.36 0.37 0.42 0.51 0.68 0.78 0.87 0.96 0.98 0.98 0.95 0.91 0.92 0.95 0.92 0.90 0.90 0.90 0.86 0.86 0.93 1.04 1.06 1.12 1.18 1.27 1.28
0.23 0.26 0.16 0.14 0.18 0.17 0.20 0.30 0.40 0.60 0.67 0.59 0.50 0.61 0.63 0.53 0.45 0.42 0.46 0.56 0.74 1.00 1.13 1.25 1.34 1.24 1.15 1.15 1.20 1.09 0.99 0.91 0.87 0.87 0.87 0.80 0.77 0.83 0.87 0.87 0.92 0.91 0.92 0.94
0.19 0.26 0.22 0.15 0.15 0.16 0.21 0.32 0.44 0.65 0.72 0.87 0.94 1.01 0.80 0.67 0.64 0.71 0.82 0.90 1.11 1.38 1.53 1.63 1.63 1.53 1.32 1.19 1.18 1.12 1.00 0.87 0.76 0.75 0.80 0.80 0.75 0.77 0.82 0.81 0.76 0.69 0.72 0.79
0.17 0.28 0.27 0.17 0.16 0.19 0.32 0.47 0.64 1.02 0.99 0.88 1.06 1.21 0.92 0.75 0.76 0.79 0.86 0.99 1.21 1.34 1.40 1.45 1.40 1.38 1.27 1.17 1.08 1.04 0.92 0.77 0.71 0.74 0.77 0.78 0.70 0.65 0.69 0.71 0.73 0.63 0.58 0.62
0.25 0.37 0.44 0.38 0.38 0.39 0.46 0.52 0.63 0.76 0.94 1.00 1.18 1.33 0.97 0.75 0.74 0.80 0.92 0.98 1.03 1.00 1.07 1.17 1.22 1.11 1.07 1.00 0.95 1.02 1.03 0.90 0.87 0.89 0.94 0.86 0.73 0.68 0.67 0.65 0.69 0.64 0.60 0.62
0.31 0.37 0.46 0.55 0.57 0.58 0.59 0.52 0.50 0.63 0.87 0.93 1.00 1.03 0.79 0.67 0.67 0.70 0.78 0.82 0.86 0.87 0.89 0.92 0.98 0.94 0.95 0.89 0.87 0.97 1.01 1.01 1.08 1.14 1.10 0.93 0.79 0.72 0.66 0.62 0.61 0.62 0.63 0.65
0.24 0.25 0.24 0.24 0.23 0.31 0.50 0.61 0.55 0.58 0.68 0.92 0.79 0.64 0.58 0.55 0.58 0.60 0.65 0.68 0.65 0.68 0.68 0.65 0.61 0.62 0.68 0.69 0.66 0.71 0.79 0.89 1.03 1.10 0.99 0.84 0.71 0.60 0.56 0.58 0.55 0.59 0.65 0.67
0.16 0.15 0.12 0.10 0.11 0.20 0.42 0.52 0.55 0.54 0.53 0.53 0.45 0.42 0.32 0.31 0.37 0.39 0.42 0.42 0.40 0.42 0.43 0.41 0.37 0.35 0.39 0.38 0.41 0.45 0.54 0.69 0.90 0.98 0.85 0.68 0.60 0.57 0.52 0.51 0.48 0.47 0.50 0.56
0.13 0.17 0.18 0.14 0.12 0.19 0.42 0.43 0.49 0.38 0.24 0.21 0.25 0.26 0.18 0.20 0.29 0.31 0.36 0.36 0.31 0.31 0.33 0.32 0.31 0.27 0.27 0.28 0.31 0.39 0.45 0.58 0.68 0.71 0.66 0.53 0.47 0.44 0.42 0.41 0.41 0.42 0.44 0.48
0.10 0.20 0.29 0.24 0.23 0.42 0.62 0.48 0.40 0.34 0.20 0.13 0.13 0.12 0.13 0.17 0.23 0.23 0.28 0.34 0.30 0.26 0.28 0.27 0.28 0.28 0.30 0.34 0.37 0.47 0.51 0.51 0.54 0.61 0.62 0.52 0.45 0.41 0.39 0.37 0.37 0.45 0.46 0.45
0.16 0.22 0.33 0.32 0.34 0.44 0.49 0.33 0.29 0.37 0.36 0.15 0.11 0.11 0.11 0.13 0.17 0.16 0.18 0.23 0.23 0.19 0.17 0.17 0.18 0.17 0.19 0.22 0.25 0.29 0.30 0.32 0.34 0.39 0.45 0.41 0.34 0.35 0.38 0.36 0.41 0.44 0.45 0.49
0.28 0.27 0.36 0.37 0.38 0.48 0.39 0.18 0.14 0.27 0.49 0.20 0.09 0.07 0.05 0.07 0.11 0.09 0.09 0.09 0.10 0.10 0.08 0.07 0.08 0.08 0.08 0.08 0.12 0.16 0.14 0.11 0.13 0.16 0.21 0.23 0.23 0.26 0.31 0.40 0.46 0.44 0.42 0.48
0.18 0.26 0.36 0.47 0.58 0.71 0.50 0.23 0.16 0.36 0.47 0.18 0.06 0.03 0.03 0.03 0.04 0.04 0.06 0.07 0.05 0.06 0.06 0.04 0.04 0.06 0.06 0.06 0.07 0.10 0.10 0.07 0.06 0.07 0.10 0.11 0.14 0.20 0.29 0.36 0.35 0.35 0.38 0.41
0.27 0.40 0.53 0.64 0.83 0.99 0.64 0.41 0.36 0.32 0.19 0.09 0.03 0.02 0.02 0.02 0.02 0.04 0.06 0.06 0.05 0.05 0.05 0.04 0.04 0.05 0.05 0.05 0.05 0.07 0.08 0.07 0.07 0.06 0.06 0.07 0.08 0.11 0.16 0.23 0.26 0.28 0.32 0.34
0.28 0.53 0.70 0.70 0.73 0.66 0.49 0.38 0.27 0.19 0.12 0.04 0.03 0.03 0.02 0.02 0.02 0.03 0.04 0.04 0.04 0.04 0.04 0.04 0.05 0.05 0.04 0.04 0.05 0.05 0.07 0.09 0.09 0.06 0.05 0.05 0.06 0.07 0.10 0.15 0.20 0.23 0.29 0.31
0.14 0.19 0.23 0.27 0.30 0.27 0.23 0.18 0.13 0.09 0.07 0.03 0.02 0.03 0.03 0.03 0.02 0.02 0.03 0.03 0.04 0.03 0.04 0.06 0.08 0.07 0.05 0.04 0.06 0.06 0.07 0.08 0.09 0.07 0.06 0.05 0.06 0.06 0.07 0.09 0.15 0.23 0.26 0.24
0.11 0.09 0.10 0.12 0.12 0.12 0.11 0.10 0.09 0.07 0.04 0.02 0.02 0.03 0.04 0.03 0.03 0.03 0.04 0.05 0.05 0.04 0.03 0.05 0.07 0.08 0.07 0.05 0.05 0.06 0.06 0.07 0.08 0.07 0.05 0.06 0.05 0.06 0.05 0.04 0.08 0.15 0.18 0.17
0.11 0.11 0.11 0.09 0.07 0.07 0.08 0.07 0.06 0.06 0.04 0.03 0.03 0.03 0.03 0.03 0.05 0.07 0.05 0.04 0.05 0.04 0.03 0.03 0.04 0.06 0.07 0.07 0.05 0.05 0.06 0.06 0.07 0.08 0.06 0.06 0.06 0.06 0.05 0.05 0.06 0.08 0.09 0.10

GEFSCGP_prec_meanprecacc_186.txt.gz
Total_Precipitation_Accumulation
0.42 0.68 0.96 1.04 1.05 0.95 0.77 0.71 0.71 0.65 0.64 0.69 0.69 0.71 0.75 0.73 0.70 0.63 0.52 0.48 0.45 0.41 0.45 0.46 0.47 0.45 0.40 0.36 0.39 0.44 0.51 0.61 0.74 0.94 1.24 1.64 1.86 1.99 2.00 2.02 1.91 1.71 1.49 1.50
0.54 0.54 0.47 0.55 0.58 0.66 0.65 0.69 0.68 0.62 0.57 0.57 0.53 0.54 0.58 0.57 0.48 0.44 0.41 0.38 0.38 0.36 0.39 0.35 0.35 0.34 0.31 0.26 0.25 0.35 0.42 0.52 0.67 0.95 1.25 1.57 1.92 1.99 2.01 2.02 1.98 1.85 1.72 1.73
0.46 0.41 0.39 0.50 0.56 0.61 0.61 0.68 0.66 0.65 0.62 0.56 0.50 0.52 0.56 0.51 0.39 0.33 0.32 0.33 0.34 0.30 0.33 0.31 0.31 0.30 0.27 0.23 0.19 0.27 0.32 0.47 0.76 1.10 1.41 1.60 1.88 1.98 2.03 2.00 2.01 2.03 1.98 1.89
0.53 0.40 0.39 0.49 0.50 0.49 0.65 0.46 0.41 0.45 0.61 0.65 0.51 0.63 0.55 0.45 0.45 0.39 0.35 0.34 0.34 0.34 0.30 0.30 0.33 0.30 0.24 0.20 0.18 0.22 0.29 0.50 0.82 1.15 1.41 1.65 2.00 2.10 2.06 2.09 2.08 2.09 2.11 2.07
0.51 0.36 0.37 0.41 0.37 0.35 0.48 0.38 0.36 0.39 0.51 0.56 0.41 0.45 0.50 0.44 0.49 0.48 0.41 0.40 0.37 0.33 0.28 0.26 0.27 0.27 0.25 0.24 0.25 0.29 0.42 0.61 0.86 1.06 1.31 1.68 1.94 2.05 2.19 2.12 2.09 2.10 2.17 2.18
0.43 0.30 0.29 0.31 0.30 0.28 0.33 0.39 0.43 0.42 0.48 0.53 0.30 0.36 0.50 0.44 0.38 0.38 0.38 0.37 0.33 0.30 0.28 0.28 0.28 0.28 0.29 0.30 0.35 0.45 0.60 0.72 0.92 1.10 1.30 1.49 1.75 1.88 2.02 2.11 2.06 2.05 2.12 2.22
0.39 0.31 0.23 0.20 0.28 0.29 0.32 0.55 0.74 0.70 0.70 0.56 0.26 0.35 0.50 0.36 0.28 0.29 0.31 0.33 0.30 0.32 0.33 0.38 0.39 0.44 0.51 0.54 0.57 0.65 0.74 0.84 0.97 1.07 1.16 1.23 1.40 1.55 1.59 1.75 1.84 1.97 1.98 2.05
0.33 0.32 0.20 0.16 0.21 0.29 0.29 0.44 0.70 0.72 0.62 0.51 0.37 0.54 0.55 0.36 0.30 0.30 0.31 0.36 0.37 0.44 0.49 0.59 0.66 0.76 0.83 0.83 0.82 0.88 0.93 0.92 0.93 0.99 1.04 1.06 1.14 1.22 1.29 1.31 1.35 1.52 1.69 1.73
0.29 0.28 0.14 0.14 0.16 0.21 0.25 0.31 0.37 0.48 0.41 0.43 0.42 0.56 0.53 0.39 0.38 0.37 0.39 0.44 0.52 0.69 0.78 0.87 0.96 0.98 0.98 0.97 0.92 0.93 0.96 0.94 0.92 0.94 0.94 0.88 0.87 0.93 1.04 1.06 1.12 1.18 1.27 1.29
0.25 0.28 0.17 0.14 0.18 0.17 0.22 0.32 0.42 0.65 0.75 0.66 0.55 0.66 0.68 0.55 0.46 0.43 0.47 0.58 0.75 1.00 1.13 1.26 1.34 1.25 1.16 1.17 1.20 1.09 0.99 0.93 0.89 0.89 0.89 0.82 0.79 0.84 0.87 0.87 0.93 0.92 0.93 0.95
0.20 0.29 0.24 0.16 0.16 0.18 0.23 0.33 0.46 0.70 0.77 0.94 1.01 1.07 0.81 0.67 0.64 0.71 0.82 0.91 1.12 1.38 1.54 1.63 1.64 1.54 1.34 1.20 1.19 1.13 1.00 0.88 0.77 0.76 0.82 0.81 0.76 0.78 0.83 0.82 0.77 0.70 0.73 0.80
0.19 0.31 0.30 0.18 0.16 0.19 0.32 0.47 0.65 1.06 1.04 0.92 1.12 1.26 0.92 0.75 0.76 0.79 0.87 1.00 1.22 1.34 1.41 1.46 1.41 1.39 1.28 1.18 1.10 1.05 0.93 0.78 0.71 0.75 0.78 0.80 0.72 0.67 0.71 0.72 0.75 0.64 0.60 0.63
0.27 0.39 0.48 0.42 0.40 0.40 0.46 0.52 0.63 0.77 0.96 1.04 1.24 1.38 0.98 0.75 0.74 0.80 0.92 0.99 1.04 1.01 1.08 1.17 1.22 1.12 1.07 1.01 0.95 1.03 1.03 0.91 0.88 0.90 0.96 0.88 0.74 0.69 0.68 0.66 0.71 0.65 0.61 0.63
0.32 0.39 0.49 0.59 0.59 0.59 0.59 0.52 0.50 0.64 0.89 0.96 1.03 1.06 0.81 0.67 0.67 0.71 0.79 0.83 0.87 0.87 0.90 0.93 0.99 0.94 0.96 0.90 0.88 0.98 1.02 1.02 1.09 1.15 1.12 0.95 0.81 0.73 0.66 0.63 0.63 0.64 0.65 0.67
0.25 0.27 0.26 0.26 0.24 0.32 0.51 0.61 0.55 0.58 0.68 0.93 0.81 0.65 0.59 0.55 0.58 0.60 0.65 0.68 0.65 0.69 0.68 0.65 0.63 0.64 0.70 0.70 0.67 0.73 0.81 0.90 1.04 1.11 1.00 0.86 0.74 0.62 0.57 0.59 0.57 0.61 0.67 0.68
0.17 0.17 0.13 0.11 0.12 0.21 0.44 0.53 0.55 0.55 0.53 0.54 0.45 0.42 0.33 0.32 0.38 0.39 0.43 0.43 0.41 0.43 0.44 0.42 0.38 0.37 0.42 0.40 0.42 0.46 0.56 0.72 0.92 0.99 0.86 0.70 0.62 0.59 0.54 0.52 0.49 0.48 0.51 0.57
0.14 0.18 0.20 0.16 0.13 0.21 0.44 0.44 0.49 0.38 0.25 0.22 0.25 0.26 0.19 0.21 0.29 0.31 0.36 0.37 0.32 0.32 0.33 0.33 0.32 0.29 0.31 0.30 0.32 0.40 0.47 0.60 0.70 0.72 0.67 0.55 0.49 0.46 0.44 0.42 0.42 0.44 0.46 0.49
0.11 0.21 0.31 0.26 0.25 0.46 0.63 0.48 0.41 0.34 0.20 0.13 0.13 0.12 0.13 0.18 0.23 0.23 0.28 0.35 0.31 0.27 0.28 0.28 0.29 0.29 0.32 0.37 0.39 0.48 0.53 0.52 0.55 0.62 0.63 0.53 0.46 0.43 0.41 0.38 0.38 0.46 0.47 0.46
0.17 0.23 0.35 0.35 0.38 0.46 0.50 0.34 0.30 0.38 0.36 0.15 0.11 0.11 0.11 0.13 0.18 0.16 0.18 0.23 0.23 0.19 0.17 0.17 0.18 0.18 0.20 0.23 0.27 0.30 0.32 0.34 0.35 0.40 0.46 0.42 0.35 0.37 0.40 0.38 0.41 0.45 0.46 0.50
0.29 0.28 0.38 0.40 0.42 0.52 0.41 0.19 0.15 0.28 0.49 0.21 0.09 0.07 0.06 0.07 0.12 0.10 0.09 0.10 0.10 0.10 0.08 0.07 0.08 0.09 0.08 0.08 0.13 0.17 0.15 0.13 0.14 0.17 0.23 0.25 0.24 0.27 0.34 0.42 0.47 0.45 0.43 0.48
0.20 0.27 0.38 0.49 0.61 0.73 0.51 0.24 0.17 0.37 0.48 0.19 0.06 0.03 0.03 0.03 0.04 0.04 0.06 0.07 0.06 0.06 0.06 0.05 0.05 0.06 0.06 0.06 0.07 0.11 0.11 0.08 0.08 0.09 0.11 0.13 0.17 0.23 0.33 0.39 0.36 0.36 0.38 0.42
0.29 0.41 0.54 0.66 0.86 1.02 0.66 0.42 0.37 0.33 0.19 0.09 0.04 0.02 0.03 0.03 0.03 0.04 0.06 0.07 0.06 0.05 0.05 0.04 0.05 0.06 0.06 0.05 0.05 0.07 0.08 0.08 0.09 0.08 0.08 0.09 0.11 0.14 0.19 0.26 0.29 0.30 0.33 0.35
0.30 0.54 0.71 0.71 0.75 0.68 0.50 0.40 0.28 0.20 0.13 0.04 0.03 0.03 0.02 0.02 0.02 0.03 0.04 0.04 0.04 0.04 0.04 0.05 0.06 0.06 0.05 0.05 0.05 0.05 0.07 0.10 0.11 0.08 0.07 0.07 0.08 0.10 0.13 0.19 0.23 0.26 0.30 0.32
0.15 0.21 0.24 0.27 0.30 0.28 0.23 0.19 0.14 0.10 0.07 0.03 0.03 0.03 0.03 0.03 0.02 0.03 0.03 0.04 0.05 0.04 0.04 0.06 0.09 0.08 0.07 0.05 0.07 0.07 0.08 0.09 0.11 0.09 0.08 0.08 0.09 0.09 0.10 0.13 0.19 0.27 0.28 0.25
0.12 0.11 0.11 0.13 0.13 0.12 0.12 0.10 0.09 0.07 0.04 0.02 0.02 0.03 0.04 0.04 0.04 0.03 0.05 0.07 0.07 0.04 0.04 0.06 0.08 0.10 0.08 0.07 0.06 0.07 0.07 0.08 0.09 0.08 0.07 0.08 0.08 0.09 0.08 0.08 0.11 0.18 0.20 0.19
0.11 0.12 0.13 0.11 0.08 0.08 0.09 0.07 0.06 0.06 0.04 0.03 0.03 0.03 0.04 0.04 0.05 0.07 0.06 0.08 0.09 0.06 0.04 0.04 0.05 0.07 0.09 0.08 0.07 0.07 0.08 0.08 0.08 0.09 0.08 0.08 0.08 0.09 0.08 0.07 0.08 0.10 0.11 0.12

GEFSCGP_prec_meanprecacc_192.txt.gz
Total_Precipitation_Accumulation
0.43 0.69 0.97 1.05 1.06 0.96 0.80 0.75 0.75 0.70 0.67 0.71 0.71 0.73 0.77 0.77 0.76 0.69 0.56 0.50 0.47 0.43 0.46 0.46 0.48 0.48 0.45 0.41 0.41 0.47 0.53 0.64 0.76 0.96 1.25 1.65 1.86 1.99 2.00 2.02 1.92 1.71 1.49 1.51
0.54 0.55 0.47 0.55 0.60 0.68 0.67 0.71 0.71 0.66 0.59 0.59 0.55 0.56 0.60 0.59 0.51 0.48 0.43 0.40 0.41 0.37 0.40 0.36 0.36 0.36 0.34 0.32 0.29 0.39 0.45 0.56 0.71 0.98 1.27 1.58 1.92 1.99 2.01 2.02 1.98 1.85 1.73 1.73
0.47 0.42 0.39 0.51 0.57 0.62 0.64 0.70 0.68 0.70 0.66 0.58 0.52 0.54 0.58 0.53 0.43 0.37 0.35 0.34 0.35 0.32 0.35 0.33 0.32 0.31 0.28 0.25 0.22 0.30 0.36 0.51 0.79 1.13 1.44 1.62 1.89 1.99 2.04 2.00 2.02 2.03 1.98 1.89
0.53 0.40 0.40 0.50 0.51 0.50 0.68 0.48 0.44 0.49 0.69 0.71 0.54 0.65 0.56 0.46 0.49 0.45 0.39 0.36 0.35 0.35 0.32 0.32 0.34 0.31 0.25 0.21 0.20 0.25 0.33 0.53 0.87 1.20 1.45 1.67 2.02 2.11 2.06 2.09 2.09 2.09 2.11 2.08
0.52 0.37 0.38 0.43 0.38 0.36 0.49 0.39 0.39 0.43 0.56 0.61 0.47 0.48 0.51 0.45 0.51 0.52 0.46 0.44 0.38 0.34 0.28 0.27 0.27 0.27 0.26 0.25 0.26 0.31 0.44 0.65 0.92 1.14 1.39 1.72 1.95 2.06 2.19 2.12 2.09 2.10 2.17 2.18
0.44 0.31 0.30 0.32 0.31 0.29 0.33 0.41 0.46 0.46 0.53 0.58 0.33 0.40 0.52 0.46 0.39 0.41 0.43 0.42 0.35 0.31 0.29 0.28 0.29 0.29 0.30 0.31 0.37 0.47 0.62 0.75 0.97 1.16 1.38 1.55 1.77 1.89 2.02 2.11 2.06 2.05 2.12 2.22
0.40 0.31 0.24 0.21 0.30 0.30 0.33 0.57 0.78 0.76 0.76 0.61 0.28 0.39 0.53 0.39 0.30 0.30 0.33 0.36 0.33 0.34 0.35 0.39 0.41 0.46 0.53 0.56 0.59 0.67 0.77 0.87 0.99 1.11 1.21 1.27 1.42 1.56 1.59 1.76 1.85 1.97 1.98 2.05
0.34 0.33 0.21 0.17 0.24 0.30 0.29 0.46 0.73 0.78 0.68 0.54 0.40 0.58 0.58 0.39 0.32 0.32 0.32 0.38 0.39 0.46 0.52 0.63 0.71 0.78 0.85 0.85 0.85 0.91 0.96 0.94 0.95 1.01 1.07 1.09 1.16 1.23 1.29 1.32 1.35 1.53 1.69 1.73
0.30 0.29 0.15 0.15 0.19 0.23 0.26 0.33 0.40 0.52 0.44 0.47 0.48 0.61 0.55 0.41 0.39 0.39 0.40 0.45 0.53 0.70 0.79 0.89 1.00 1.01 1.00 0.99 0.95 0.96 0.97 0.95 0.94 0.96 0.95 0.90 0.88 0.94 1.05 1.06 1.13 1.18 1.27 1.29
0.28 0.30 0.17 0.15 0.20 0.20 0.23 0.34 0.46 0.70 0.80 0.71 0.60 0.71 0.71 0.57 0.47 0.44 0.49 0.59 0.77 1.02 1.15 1.27 1.35 1.27 1.18 1.18 1.22 1.11 1.00 0.93 0.89 0.90 0.91 0.83 0.79 0.85 0.89 0.88 0.94 0.92 0.94 0.95
0.23 0.33 0.26 0.17 0.17 0.20 0.25 0.36 0.51 0.75 0.85 1.00 1.06 1.12 0.85 0.69 0.65 0.73 0.85 0.94 1.15 1.40 1.55 1.64 1.65 1.55 1.35 1.22 1.21 1.14 1.01 0.89 0.78 0.76 0.83 0.82 0.77 0.80 0.84 0.83 0.78 0.71 0.74 0.81
0.21 0.34 0.33 0.19 0.17 0.21 0.34 0.50 0.68 1.10 1.09 0.98 1.17 1.30 0.95 0.78 0.78 0.81 0.89 1.04 1.26 1.37 1.44 1.48 1.43 1.41 1.30 1.20 1.10 1.06 0.94 0.79 0.72 0.76 0.79 0.80 0.72 0.68 0.72 0.73 0.76 0.66 0.61 0.64
0.28 0.41 0.51 0.44 0.41 0.41 0.47 0.53 0.64 0.78 0.98 1.07 1.27 1.43 1.01 0.78 0.76 0.81 0.94 1.02 1.06 1.04 1.12 1.21 1.25 1.14 1.09 1.02 0.96 1.04 1.05 0.92 0.89 0.91 0.97 0.89 0.74 0.70 0.70 0.69 0.74 0.68 0.63 0.65
0.33 0.40 0.50 0.61 0.60 0.60 0.60 0.53 0.51 0.65 0.91 0.98 1.05 1.10 0.85 0.71 0.69 0.72 0.80 0.85 0.90 0.90 0.94 0.97 1.02 0.97 0.98 0.93 0.89 0.99 1.03 1.03 1.10 1.16 1.13 0.96 0.82 0.74 0.69 0.66 0.67 0.67 0.67 0.68
0.26 0.27 0.26 0.26 0.25 0.33 0.51 0.62 0.56 0.60 0.70 0.94 0.82 0.67 0.62 0.57 0.60 0.62 0.66 0.70 0.70 0.74 0.72 0.68 0.66 0.67 0.72 0.73 0.69 0.74 0.82 0.91 1.05 1.12 1.01 0.88 0.75 0.65 0.60 0.63 0.60 0.64 0.70 0.70
0.18 0.17 0.14 0.12 0.12 0.21 0.44 0.54 0.55 0.55 0.55 0.55 0.46 0.44 0.36 0.34 0.40 0.41 0.44 0.44 0.43 0.47 0.47 0.45 0.41 0.42 0.47 0.43 0.44 0.48 0.57 0.73 0.92 1.01 0.89 0.73 0.65 0.63 0.57 0.55 0.52 0.52 0.55 0.59
0.15 0.19 0.22 0.17 0.14 0.22 0.44 0.45 0.50 0.38 0.25 0.22 0.26 0.27 0.20 0.23 0.31 0.32 0.37 0.38 0.33 0.33 0.35 0.36 0.36 0.35 0.38 0.35 0.36 0.44 0.50 0.62 0.72 0.75 0.70 0.59 0.53 0.49 0.46 0.44 0.45 0.47 0.48 0.51
0.12 0.22 0.33 0.27 0.27 0.48 0.64 0.49 0.42 0.36 0.21 0.14 0.14 0.13 0.14 0.19 0.25 0.24 0.30 0.36 0.31 0.28 0.30 0.30 0.31 0.34 0.38 0.42 0.43 0.51 0.56 0.56 0.60 0.66 0.66 0.56 0.48 0.44 0.42 0.39 0.41 0.49 0.49 0.48
0.18 0.25 0.37 0.36 0.39 0.48 0.51 0.35 0.32 0.40 0.38 0.16 0.12 0.11 0.12 0.14 0.19 0.17 0.19 0.24 0.23 0.20 0.18 0.18 0.19 0.20 0.24 0.29 0.33 0.35 0.35 0.37 0.39 0.44 0.49 0.45 0.37 0.38 0.42 0.40 0.44 0.48 0.48 0.52
0.30 0.29 0.40 0.42 0.44 0.53 0.42 0.20 0.16 0.30 0.52 0.22 0.10 0.07 0.06 0.07 0.13 0.11 0.10 0.10 0.11 0.11 0.09 0.08 0.09 0.09 0.09 0.12 0.19 0.21 0.19 0.17 0.17 0.20 0.26 0.28 0.26 0.30 0.36 0.45 0.50 0.48 0.45 0.50
0.22 0.28 0.39 0.51 0.63 0.74 0.52 0.25 0.18 0.40 0.52 0.21 0.07 0.04 0.04 0.04 0.04 0.05 0.07 0.08 0.06 0.07 0.06 0.06 0.06 0.07 0.07 0.08 0.11 0.13 0.12 0.10 0.10 0.11 0.13 0.16 0.20 0.25 0.34 0.41 0.39 0.38 0.40 0.43
0.31 0.43 0.55 0.68 0.88 1.03 0.67 0.43 0.38 0.35 0.22 0.11 0.05 0.03 0.04 0.04 0.04 0.05 0.07 0.07 0.06 0.06 0.06 0.05 0.06 0.06 0.07 0.07 0.07 0.08 0.09 0.09 0.10 0.09 0.09 0.11 0.13 0.16 0.20 0.28 0.32 0.33 0.35 0.35
0.31 0.56 0.73 0.72 0.76 0.69 0.50 0.40 0.30 0.21 0.14 0.06 0.04 0.04 0.03 0.03 0.03 0.04 0.04 0.05 0.05 0.04 0.05 0.05 0.07 0.07 0.07 0.07 0.06 0.07 0.08 0.11 0.12 0.10 0.08 0.09 0.11 0.12 0.15 0.21 0.26 0.30 0.33 0.34
0.15 0.21 0.25 0.28 0.31 0.28 0.23 0.19 0.15 0.11 0.08 0.03 0.03 0.03 0.04 0.03 0.03 0.04 0.04 0.04 0.05 0.04 0.05 0.06 0.10 0.10 0.09 0.08 0.09 0.10 0.10 0.11 0.13 0.11 0.10 0.10 0.12 0.12 0.12 0.16 0.23 0.31 0.31 0.27
0.13 0.11 0.11 0.13 0.13 0.13 0.12 0.11 0.10 0.08 0.04 0.03 0.02 0.03 0.04 0.04 0.04 0.04 0.05 0.08 0.08 0.05 0.04 0.06 0.09 0.11 0.11 0.10 0.10 0.11 0.11 0.11 0.11 0.10 0.10 0.10 0.11 0.12 0.11 0.11 0.14 0.20 0.23 0.21
0.12 0.13 0.13 0.11 0.08 0.08 0.09 0.07 0.06 0.06 0.04 0.04 0.03 0.03 0.04 0.04 0.06 0.08 0.07 0.09 0.11 0.07 0.05 0.05 0.06 0.08 0.10 0.10 0.10 0.10 0.12 0.12 0.12 0.12 0.12 0.12 0.11 0.12 0.10 0.10 0.11 0.13 0.13 0.14

GEFSCGP_prec_meanprecacc_198.txt.gz
Total_Precipitation_Accumulation
0.43 0.69 0.97 1.05 1.06 0.97 0.80 0.76 0.77 0.71 0.68 0.73 0.73 0.75 0.78 0.79 0.78 0.70 0.57 0.51 0.48 0.44 0.46 0.47 0.48 0.49 0.49 0.45 0.45 0.50 0.57 0.68 0.79 1.00 1.29 1.68 1.88 2.00 2.01 2.02 1.92 1.71 1.49 1.51
0.55 0.55 0.47 0.56 0.60 0.69 0.68 0.72 0.72 0.67 0.60 0.60 0.56 0.58 0.61 0.61 0.53 0.49 0.45 0.41 0.42 0.39 0.41 0.37 0.36 0.37 0.36 0.34 0.33 0.43 0.49 0.59 0.75 1.02 1.30 1.61 1.94 2.00 2.01 2.02 1.98 1.86 1.73 1.73
0.47 0.42 0.39 0.51 0.57 0.62 0.64 0.71 0.69 0.70 0.67 0.59 0.53 0.55 0.59 0.55 0.45 0.39 0.36 0.36 0.36 0.33 0.36 0.34 0.33 0.31 0.29 0.26 0.24 0.33 0.39 0.54 0.84 1.18 1.47 1.64 1.90 2.00 2.04 2.00 2.02 2.03 1.98 1.89
0.54 0.41 0.40 0.50 0.51 0.51 0.68 0.49 0.45 0.50 0.70 0.72 0.55 0.66 0.56 0.47 0.50 0.46 0.40 0.37 0.36 0.36 0.34 0.32 0.35 0.32 0.25 0.21 0.20 0.27 0.35 0.56 0.91 1.24 1.49 1.72 2.06 2.13 2.07 2.09 2.09 2.09 2.11 2.08
0.52 0.38 0.38 0.43 0.38 0.36 0.49 0.40 0.40 0.44 0.57 0.62 0.48 0.49 0.51 0.46 0.51 0.53 0.47 0.44 0.39 0.35 0.30 0.28 0.28 0.28 0.27 0.25 0.27 0.32 0.45 0.67 0.95 1.17 1.43 1.77 2.00 2.09 2.20 2.12 2.10 2.10 2.17 2.19
0.45 0.31 0.31 0.33 0.31 0.30 0.34 0.43 0.48 0.48 0.56 0.61 0.34 0.40 0.52 0.47 0.39 0.41 0.43 0.43 0.36 0.32 0.30 0.29 0.30 0.29 0.31 0.32 0.38 0.48 0.63 0.76 0.98 1.19 1.41 1.58 1.80 1.91 2.03 2.12 2.06 2.06 2.13 2.23
0.41 0.31 0.24 0.22 0.31 0.31 0.34 0.59 0.80 0.79 0.80 0.65 0.29 0.39 0.53 0.39 0.30 0.31 0.34 0.38 0.35 0.35 0.36 0.40 0.41 0.46 0.53 0.57 0.60 0.68 0.78 0.89 1.01 1.13 1.23 1.29 1.44 1.58 1.60 1.76 1.85 1.98 1.99 2.05
0.35 0.34 0.21 0.18 0.25 0.31 0.30 0.47 0.75 0.80 0.70 0.56 0.42 0.59 0.60 0.40 0.33 0.33 0.33 0.39 0.41 0.47 0.53 0.64 0.71 0.79 0.86 0.86 0.86 0.92 0.97 0.96 0.97 1.03 1.09 1.11 1.17 1.25 1.30 1.33 1.36 1.54 1.69 1.74
0.31 0.30 0.16 0.17 0.21 0.25 0.28 0.35 0.42 0.53 0.45 0.48 0.49 0.62 0.57 0.42 0.40 0.40 0.41 0.46 0.54 0.72 0.81 0.90 1.00 1.01 1.01 1.00 0.96 0.97 0.99 0.96 0.95 0.98 0.98 0.91 0.89 0.96 1.07 1.08 1.14 1.21 1.29 1.30
0.29 0.31 0.18 0.16 0.22 0.21 0.24 0.35 0.48 0.71 0.81 0.73 0.61 0.72 0.72 0.57 0.48 0.45 0.50 0.60 0.77 1.03 1.16 1.27 1.35 1.27 1.19 1.20 1.24 1.13 1.03 0.95 0.91 0.91 0.92 0.84 0.81 0.87 0.91 0.90 0.95 0.94 0.96 0.98
0.24 0.34 0.27 0.18 0.18 0.21 0.26 0.37 0.52 0.77 0.87 1.03 1.08 1.13 0.86 0.70 0.66 0.74 0.85 0.94 1.16 1.41 1.56 1.65 1.65 1.55 1.36 1.25 1.24 1.16 1.04 0.90 0.79 0.77 0.83 0.83 0.79 0.82 0.86 0.84 0.79 0.73 0.76 0.83
0.22 0.34 0.33 0.20 0.17 0.21 0.35 0.51 0.69 1.11 1.10 1.00 1.19 1.32 0.96 0.78 0.78 0.81 0.89 1.05 1.27 1.39 1.45 1.49 1.44 1.42 1.31 1.22 1.13 1.09 0.96 0.80 0.73 0.77 0.79 0.81 0.73 0.69 0.73 0.74 0.77 0.67 0.63 0.66
0.29 0.42 0.52 0.44 0.41 0.41 0.48 0.54 0.64 0.79 0.99 1.09 1.29 1.45 1.02 0.78 0.76 0.82 0.94 1.03 1.07 1.05 1.13 1.22 1.27 1.15 1.10 1.04 0.98 1.08 1.08 0.94 0.90 0.92 0.97 0.90 0.75 0.71 0.71 0.69 0.74 0.69 0.64 0.66
0.34 0.41 0.51 0.61 0.61 0.60 0.61 0.54 0.52 0.66 0.91 0.99 1.06 1.12 0.87 0.72 0.70 0.73 0.82 0.86 0.90 0.91 0.95 0.98 1.04 0.99 1.00 0.95 0.91 1.02 1.07 1.06 1.11 1.18 1.14 0.97 0.82 0.75 0.70 0.67 0.69 0.68 0.68 0.70
0.28 0.28 0.27 0.27 0.25 0.34 0.53 0.63 0.56 0.60 0.70 0.95 0.83 0.69 0.65 0.59 0.62 0.64 0.68 0.72 0.71 0.76 0.74 0.70 0.68 0.69 0.75 0.74 0.71 0.77 0.85 0.94 1.06 1.13 1.03 0.90 0.77 0.67 0.62 0.65 0.62 0.66 0.73 0.72
0.20 0.19 0.15 0.13 0.13 0.22 0.45 0.55 0.56 0.56 0.55 0.55 0.46 0.45 0.37 0.35 0.41 0.43 0.47 0.46 0.45 0.49 0.49 0.47 0.43 0.44 0.49 0.44 0.46 0.50 0.59 0.75 0.94 1.03 0.92 0.75 0.67 0.65 0.59 0.57 0.54 0.54 0.57 0.61
0.18 0.21 0.23 0.18 0.15 0.23 0.45 0.46 0.51 0.39 0.25 0.22 0.26 0.27 0.21 0.25 0.33 0.35 0.40 0.40 0.35 0.35 0.37 0.38 0.39 0.37 0.40 0.37 0.38 0.45 0.52 0.65 0.74 0.78 0.72 0.60 0.54 0.50 0.47 0.46 0.47 0.48 0.50 0.53
0.14 0.24 0.34 0.28 0.28 0.49 0.64 0.49 0.43 0.36 0.22 0.14 0.14 0.13 0.15 0.21 0.27 0.27 0.32 0.38 0.34 0.30 0.31 0.33 0.35 0.36 0.41 0.44 0.45 0.54 0.60 0.59 0.62 0.68 0.67 0.57 0.49 0.45 0.43 0.41 0.42 0.51 0.51 0.50
0.19 0.26 0.38 0.37 0.40 0.49 0.51 0.35 0.32 0.41 0.38 0.17 0.12 0.12 0.12 0.15 0.20 0.19 0.21 0.25 0.25 0.21 0.19 0.19 0.21 0.22 0.27 0.32 0.36 0.38 0.39 0.41 0.42 0.45 0.51 0.46 0.38 0.40 0.44 0.42 0.46 0.50 0.50 0.54
0.31 0.30 0.41 0.42 0.44 0.54 0.42 0.20 0.17 0.31 0.53 0.23 0.10 0.08 0.06 0.08 0.13 0.12 0.11 0.11 0.12 0.12 0.09 0.09 0.10 0.10 0.11 0.15 0.23 0.26 0.22 0.20 0.20 0.23 0.28 0.31 0.29 0.32 0.38 0.48 0.53 0.50 0.47 0.51
0.24 0.30 0.40 0.52 0.63 0.75 0.52 0.25 0.19 0.40 0.52 0.21 0.08 0.04 0.04 0.04 0.05 0.06 0.07 0.08 0.07 0.07 0.07 0.07 0.07 0.08 0.09 0.11 0.15 0.16 0.17 0.14 0.14 0.15 0.17 0.20 0.23 0.28 0.37 0.43 0.41 0.39 0.41 0.44
0.33 0.44 0.57 0.69 0.89 1.03 0.67 0.43 0.39 0.35 0.22 0.12 0.05 0.03 0.04 0.04 0.04 0.05 0.07 0.07 0.07 0.06 0.07 0.06 0.06 0.08 0.09 0.09 0.08 0.10 0.10 0.11 0.12 0.11 0.11 0.13 0.15 0.17 0.22 0.29 0.33 0.34 0.36 0.36
0.32 0.56 0.73 0.73 0.76 0.69 0.51 0.40 0.30 0.22 0.14 0.06 0.04 0.04 0.03 0.03 0.03 0.04 0.05 0.05 0.06 0.05 0.05 0.05 0.07 0.08 0.08 0.08 0.07 0.08 0.10 0.13 0.14 0.11 0.09 0.10 0.13 0.14 0.16 0.23 0.27 0.31 0.34 0.35
0.15 0.21 0.25 0.28 0.31 0.28 0.23 0.19 0.15 0.11 0.08 0.03 0.03 0.03 0.04 0.04 0.03 0.04 0.05 0.05 0.06 0.05 0.05 0.07 0.10 0.10 0.09 0.09 0.10 0.11 0.12 0.13 0.14 0.12 0.11 0.11 0.13 0.14 0.14 0.18 0.25 0.33 0.32 0.28
0.13 0.11 0.12 0.13 0.13 0.13 0.12 0.11 0.10 0.08 0.04 0.03 0.02 0.03 0.05 0.05 0.05 0.05 0.06 0.08 0.08 0.06 0.05 0.07 0.09 0.11 0.12 0.12 0.13 0.14 0.13 0.12 0.12 0.12 0.11 0.11 0.12 0.14 0.14 0.14 0.17 0.24 0.27 0.24
0.12 0.13 0.13 0.11 0.08 0.08 0.09 0.07 0.06 0.06 0.04 0.04 0.03 0.04 0.04 0.04 0.06 0.08 0.07 0.10 0.11 0.08 0.06 0.06 0.06 0.09 0.11 0.12 0.14 0.14 0.16 0.15 0.15 0.13 0.13 0.13 0.12 0.13 0.12 0.13 0.14 0.17 0.17 0.20

GEFSCGP_prec_meanprecacc_204.txt.gz
Total_Precipitation_Accumulation
0.44 0.69 0.98 1.05 1.06 0.97 0.81 0.77 0.78 0.72 0.69 0.73 0.74 0.76 0.79 0.80 0.83 0.75 0.59 0.53 0.50 0.46 0.48 0.49 0.50 0.51 0.52 0.53 0.53 0.55 0.60 0.70 0.81 1.01 1.30 1.70 1.91 2.04 2.03 2.04 1.94 1.72 1.51 1.52
0.55 0.56 0.48 0.56 0.60 0.69 0.68 0.73 0.73 0.68 0.60 0.60 0.57 0.58 0.62 0.62 0.55 0.52 0.47 0.43 0.45 0.41 0.42 0.38 0.37 0.38 0.37 0.37 0.40 0.52 0.55 0.63 0.77 1.03 1.31 1.63 1.96 2.03 2.03 2.04 1.99 1.87 1.74 1.74
0.48 0.42 0.40 0.51 0.57 0.63 0.64 0.71 0.70 0.72 0.68 0.60 0.54 0.55 0.60 0.55 0.46 0.40 0.37 0.37 0.39 0.35 0.37 0.36 0.34 0.32 0.29 0.26 0.26 0.38 0.47 0.60 0.88 1.21 1.49 1.67 1.94 2.02 2.05 2.01 2.02 2.04 1.99 1.89
0.54 0.41 0.40 0.51 0.52 0.51 0.68 0.49 0.46 0.51 0.71 0.73 0.56 0.67 0.57 0.48 0.52 0.47 0.41 0.38 0.38 0.37 0.35 0.34 0.36 0.33 0.26 0.22 0.21 0.28 0.37 0.59 0.94 1.28 1.53 1.77 2.11 2.16 2.09 2.10 2.09 2.10 2.12 2.08
0.53 0.38 0.38 0.44 0.38 0.36 0.50 0.40 0.41 0.45 0.59 0.63 0.48 0.49 0.52 0.46 0.52 0.53 0.47 0.45 0.39 0.35 0.30 0.28 0.29 0.29 0.27 0.26 0.27 0.33 0.46 0.68 0.96 1.18 1.45 1.81 2.04 2.12 2.23 2.14 2.11 2.11 2.17 2.19
0.45 0.32 0.31 0.33 0.32 0.30 0.35 0.43 0.49 0.50 0.58 0.62 0.35 0.41 0.53 0.47 0.40 0.42 0.44 0.43 0.37 0.33 0.31 0.30 0.30 0.29 0.31 0.33 0.38 0.48 0.63 0.77 1.00 1.20 1.42 1.60 1.83 1.95 2.07 2.14 2.07 2.07 2.13 2.23
0.41 0.32 0.24 0.22 0.32 0.32 0.35 0.60 0.82 0.81 0.81 0.66 0.30 0.40 0.54 0.39 0.30 0.31 0.35 0.38 0.36 0.37 0.37 0.40 0.42 0.47 0.53 0.57 0.60 0.69 0.79 0.90 1.02 1.14 1.24 1.31 1.46 1.62 1.65 1.79 1.87 1.99 1.99 2.06
0.36 0.35 0.22 0.19 0.25 0.32 0.31 0.48 0.77 0.82 0.71 0.57 0.42 0.59 0.60 0.40 0.33 0.33 0.34 0.39 0.41 0.49 0.54 0.65 0.72 0.79 0.86 0.87 0.86 0.93 0.98 0.97 0.98 1.04 1.10 1.14 1.19 1.27 1.33 1.36 1.39 1.55 1.70 1.74
0.33 0.32 0.17 0.17 0.21 0.26 0.29 0.36 0.42 0.54 0.46 0.49 0.50 0.62 0.57 0.42 0.40 0.40 0.41 0.46 0.54 0.72 0.82 0.91 1.01 1.02 1.01 1.00 0.96 0.97 0.99 0.97 0.96 0.99 1.00 0.93 0.91 0.97 1.09 1.12 1.18 1.23 1.30 1.31
0.31 0.34 0.19 0.17 0.23 0.22 0.26 0.37 0.49 0.73 0.83 0.74 0.62 0.73 0.73 0.57 0.48 0.45 0.50 0.60 0.78 1.03 1.17 1.28 1.36 1.28 1.20 1.21 1.25 1.14 1.03 0.96 0.91 0.92 0.94 0.86 0.82 0.88 0.93 0.92 0.97 0.96 0.98 0.99
0.26 0.37 0.29 0.19 0.19 0.22 0.28 0.39 0.54 0.79 0.88 1.04 1.09 1.14 0.87 0.70 0.66 0.74 0.86 0.95 1.16 1.41 1.56 1.65 1.66 1.56 1.37 1.25 1.24 1.17 1.04 0.91 0.80 0.78 0.84 0.85 0.80 0.82 0.87 0.85 0.80 0.75 0.79 0.85
0.23 0.37 0.35 0.21 0.18 0.22 0.37 0.52 0.70 1.13 1.12 1.01 1.20 1.34 0.98 0.78 0.78 0.82 0.90 1.05 1.27 1.39 1.46 1.49 1.44 1.43 1.31 1.22 1.13 1.10 0.97 0.81 0.74 0.78 0.80 0.82 0.74 0.70 0.74 0.75 0.78 0.69 0.66 0.68
0.31 0.44 0.53 0.46 0.42 0.42 0.51 0.56 0.65 0.79 1.00 1.10 1.30 1.47 1.04 0.78 0.77 0.83 0.95 1.03 1.07 1.06 1.14 1.23 1.27 1.15 1.11 1.04 0.99 1.08 1.09 0.95 0.91 0.93 0.98 0.90 0.76 0.71 0.72 0.71 0.76 0.70 0.66 0.67
0.37 0.44 0.52 0.63 0.62 0.61 0.63 0.55 0.53 0.67 0.92 1.00 1.07 1.14 0.90 0.73 0.72 0.74 0.83 0.87 0.91 0.92 0.95 0.99 1.04 0.99 1.01 0.95 0.92 1.04 1.09 1.08 1.13 1.18 1.14 0.97 0.83 0.76 0.71 0.68 0.69 0.68 0.68 0.70
0.32 0.31 0.28 0.27 0.26 0.34 0.53 0.64 0.57 0.61 0.71 0.95 0.84 0.71 0.68 0.62 0.63 0.65 0.69 0.72 0.72 0.77 0.75 0.71 0.69 0.70 0.76 0.75 0.72 0.78 0.88 0.97 1.08 1.14 1.04 0.90 0.78 0.68 0.63 0.66 0.63 0.67 0.74 0.73
0.24 0.22 0.16 0.13 0.13 0.22 0.46 0.56 0.57 0.56 0.55 0.56 0.47 0.47 0.39 0.38 0.43 0.46 0.49 0.47 0.47 0.50 0.50 0.48 0.45 0.45 0.50 0.46 0.47 0.51 0.62 0.77 0.96 1.04 0.93 0.76 0.69 0.66 0.60 0.58 0.55 0.55 0.58 0.61
0.21 0.25 0.26 0.20 0.16 0.24 0.47 0.48 0.52 0.39 0.26 0.23 0.27 0.28 0.23 0.27 0.36 0.38 0.43 0.42 0.37 0.37 0.40 0.40 0.40 0.39 0.42 0.38 0.39 0.47 0.54 0.68 0.77 0.80 0.74 0.62 0.55 0.52 0.48 0.47 0.48 0.49 0.51 0.54
0.17 0.27 0.38 0.31 0.30 0.51 0.66 0.51 0.44 0.37 0.22 0.14 0.14 0.13 0.16 0.22 0.30 0.30 0.35 0.41 0.36 0.32 0.34 0.36 0.38 0.38 0.42 0.45 0.47 0.56 0.62 0.63 0.65 0.70 0.68 0.58 0.50 0.46 0.44 0.42 0.43 0.51 0.51 0.51
0.21 0.29 0.41 0.39 0.42 0.50 0.51 0.35 0.32 0.41 0.39 0.17 0.12 0.12 0.13 0.16 0.22 0.22 0.24 0.28 0.27 0.23 0.21 0.22 0.23 0.24 0.29 0.34 0.38 0.40 0.42 0.44 0.45 0.48 0.53 0.47 0.40 0.41 0.45 0.43 0.47 0.51 0.51 0.54
0.33 0.33 0.45 0.45 0.46 0.55 0.42 0.20 0.17 0.31 0.53 0.23 0.10 0.08 0.07 0.08 0.14 0.13 0.12 0.14 0.14 0.13 0.11 0.11 0.11 0.12 0.13 0.17 0.26 0.29 0.28 0.24 0.23 0.25 0.30 0.32 0.31 0.33 0.39 0.49 0.54 0.51 0.47 0.52
0.26 0.32 0.43 0.54 0.65 0.75 0.52 0.25 0.19 0.40 0.52 0.21 0.08 0.04 0.04 0.04 0.05 0.06 0.08 0.09 0.08 0.08 0.09 0.09 0.09 0.10 0.11 0.14 0.17 0.20 0.23 0.18 0.17 0.17 0.20 0.22 0.25 0.29 0.37 0.44 0.42 0.40 0.41 0.44
0.35 0.46 0.58 0.70 0.90 1.04 0.67 0.43 0.39 0.35 0.22 0.12 0.05 0.03 0.04 0.04 0.04 0.05 0.07 0.07 0.07 0.07 0.08 0.08 0.08 0.09 0.11 0.11 0.11 0.13 0.13 0.15 0.16 0.14 0.15 0.17 0.17 0.19 0.23 0.29 0.33 0.35 0.36 0.37
0.34 0.58 0.75 0.74 0.77 0.69 0.51 0.41 0.30 0.22 0.14 0.06 0.04 0.04 0.03 0.03 0.03 0.04 0.05 0.05 0.06 0.05 0.06 0.06 0.08 0.09 0.11 0.10 0.09 0.09 0.11 0.14 0.17 0.15 0.13 0.14 0.16 0.16 0.18 0.24 0.28 0.32 0.35 0.35
0.18 0.23 0.27 0.29 0.31 0.28 0.23 0.19 0.15 0.11 0.08 0.04 0.03 0.04 0.04 0.04 0.03 0.04 0.05 0.05 0.06 0.05 0.05 0.07 0.11 0.11 0.11 0.10 0.11 0.12 0.12 0.13 0.15 0.14 0.13 0.14 0.15 0.17 0.16 0.20 0.27 0.34 0.33 0.29
0.15 0.13 0.14 0.14 0.13 0.13 0.12 0.11 0.10 0.08 0.04 0.03 0.02 0.03 0.05 0.05 0.05 0.05 0.06 0.08 0.08 0.06 0.05 0.07 0.10 0.12 0.12 0.13 0.13 0.14 0.13 0.13 0.13 0.12 0.12 0.13 0.14 0.16 0.16 0.15 0.18 0.26 0.28 0.26
0.14 0.15 0.15 0.12 0.08 0.09 0.10 0.07 0.06 0.06 0.04 0.04 0.03 0.04 0.04 0.05 0.06 0.08 0.07 0.10 0.12 0.09 0.06 0.06 0.07 0.10 0.11 0.13 0.15 0.15 0.17 0.17 0.16 0.14 0.14 0.14 0.14 0.15 0.14 0.14 0.15 0.19 0.19 0.22

GEFSCGP_prec_meanprecacc_210.txt.gz
Total_Precipitation_Accumulation
0.44 0.70 0.99 1.06 1.07 0.98 0.82 0.79 0.81 0.74 0.70 0.76 0.77 0.80 0.82 0.83 0.87 0.79 0.63 0.56 0.52 0.49 0.51 0.51 0.52 0.54 0.55 0.56 0.57 0.57 0.63 0.71 0.83 1.03 1.32 1.71 1.93 2.05 2.05 2.06 1.95 1.73 1.51 1.52
0.57 0.57 0.48 0.56 0.61 0.70 0.69 0.74 0.76 0.70 0.61 0.62 0.59 0.62 0.64 0.63 0.58 0.55 0.50 0.46 0.47 0.43 0.45 0.41 0.39 0.39 0.40 0.40 0.43 0.55 0.57 0.66 0.79 1.06 1.33 1.64 1.98 2.05 2.05 2.05 2.02 1.89 1.75 1.75
0.49 0.43 0.40 0.51 0.58 0.64 0.65 0.72 0.72 0.75 0.70 0.61 0.56 0.60 0.62 0.56 0.47 0.41 0.39 0.39 0.41 0.38 0.41 0.38 0.36 0.33 0.32 0.28 0.27 0.40 0.51 0.65 0.92 1.24 1.52 1.69 1.95 2.03 2.07 2.03 2.04 2.06 2.00 1.91
0.55 0.41 0.41 0.51 0.52 0.52 0.70 0.49 0.46 0.52 0.74 0.76 0.57 0.70 0.59 0.49 0.52 0.47 0.41 0.38 0.38 0.39 0.37 0.36 0.38 0.34 0.28 0.23 0.21 0.28 0.38 0.61 0.98 1.33 1.56 1.80 2.16 2.21 2.12 2.13 2.12 2.12 2.13 2.09
0.53 0.38 0.39 0.44 0.39 0.37 0.50 0.41 0.41 0.46 0.61 0.66 0.50 0.51 0.53 0.47 0.53 0.54 0.48 0.45 0.40 0.36 0.32 0.30 0.30 0.30 0.29 0.28 0.28 0.33 0.47 0.69 0.98 1.22 1.48 1.84 2.09 2.18 2.27 2.16 2.12 2.12 2.18 2.20
0.45 0.32 0.31 0.33 0.32 0.30 0.35 0.43 0.50 0.50 0.61 0.66 0.36 0.42 0.54 0.47 0.40 0.42 0.44 0.43 0.37 0.33 0.31 0.32 0.31 0.30 0.32 0.34 0.39 0.50 0.66 0.79 1.01 1.22 1.45 1.64 1.87 2.00 2.12 2.18 2.10 2.08 2.14 2.24
0.42 0.32 0.24 0.23 0.33 0.33 0.35 0.63 0.86 0.84 0.85 0.68 0.30 0.41 0.55 0.39 0.31 0.32 0.35 0.38 0.36 0.37 0.38 0.41 0.42 0.47 0.54 0.58 0.61 0.70 0.80 0.92 1.04 1.16 1.27 1.35 1.50 1.65 1.68 1.83 1.90 2.01 2.01 2.07
0.38 0.36 0.22 0.19 0.26 0.33 0.32 0.49 0.81 0.87 0.74 0.58 0.43 0.61 0.60 0.40 0.33 0.33 0.34 0.39 0.42 0.49 0.55 0.66 0.72 0.79 0.87 0.87 0.87 0.94 0.99 0.99 1.01 1.08 1.14 1.17 1.22 1.30 1.37 1.40 1.42 1.57 1.71 1.76
0.36 0.34 0.17 0.18 0.22 0.26 0.30 0.37 0.43 0.56 0.48 0.51 0.51 0.63 0.58 0.42 0.40 0.40 0.41 0.46 0.54 0.72 0.82 0.92 1.02 1.03 1.02 1.00 0.96 0.99 1.00 0.98 0.97 1.01 1.03 0.97 0.94 1.00 1.11 1.14 1.20 1.24 1.32 1.32
0.34 0.37 0.21 0.17 0.24 0.23 0.27 0.37 0.50 0.76 0.87 0.77 0.64 0.75 0.74 0.57 0.48 0.45 0.51 0.61 0.78 1.03 1.17 1.28 1.37 1.30 1.20 1.21 1.25 1.14 1.04 0.96 0.92 0.93 0.96 0.88 0.84 0.90 0.94 0.93 0.98 0.98 0.99 1.01
0.28 0.41 0.32 0.21 0.21 0.23 0.29 0.40 0.56 0.81 0.91 1.08 1.14 1.18 0.89 0.71 0.66 0.74 0.86 0.96 1.17 1.41 1.56 1.66 1.67 1.57 1.38 1.26 1.25 1.18 1.05 0.92 0.81 0.79 0.86 0.87 0.81 0.83 0.88 0.86 0.80 0.76 0.80 0.86
0.26 0.41 0.39 0.24 0.19 0.22 0.37 0.54 0.73 1.16 1.14 1.04 1.24 1.38 0.99 0.79 0.79 0.82 0.91 1.06 1.28 1.40 1.46 1.50 1.46 1.44 1.32 1.23 1.14 1.10 0.98 0.81 0.75 0.79 0.81 0.83 0.76 0.70 0.75 0.76 0.80 0.70 0.67 0.69
0.34 0.48 0.59 0.50 0.45 0.44 0.52 0.57 0.66 0.81 1.03 1.13 1.34 1.51 1.05 0.79 0.78 0.84 0.96 1.05 1.09 1.07 1.15 1.24 1.29 1.18 1.12 1.05 1.00 1.09 1.10 0.96 0.92 0.94 0.99 0.92 0.78 0.72 0.73 0.72 0.78 0.71 0.66 0.68
0.40 0.46 0.56 0.67 0.64 0.64 0.66 0.58 0.55 0.69 0.95 1.02 1.10 1.18 0.92 0.75 0.73 0.75 0.84 0.88 0.94 0.95 0.97 1.00 1.06 1.02 1.03 0.97 0.92 1.05 1.10 1.09 1.14 1.19 1.15 0.99 0.86 0.78 0.73 0.70 0.72 0.70 0.70 0.72
0.34 0.33 0.29 0.29 0.27 0.36 0.56 0.65 0.58 0.62 0.73 0.98 0.88 0.75 0.70 0.63 0.64 0.66 0.71 0.75 0.76 0.80 0.78 0.73 0.71 0.72 0.78 0.77 0.72 0.79 0.89 0.98 1.10 1.15 1.05 0.92 0.81 0.71 0.66 0.69 0.66 0.68 0.75 0.74
0.26 0.24 0.19 0.15 0.14 0.23 0.48 0.57 0.58 0.57 0.57 0.59 0.53 0.51 0.41 0.40 0.45 0.47 0.51 0.50 0.50 0.53 0.53 0.51 0.47 0.47 0.52 0.47 0.48 0.52 0.63 0.80 0.97 1.06 0.94 0.79 0.71 0.69 0.63 0.60 0.57 0.56 0.59 0.62
0.22 0.27 0.29 0.22 0.17 0.26 0.49 0.49 0.53 0.40 0.27 0.26 0.33 0.33 0.25 0.28 0.37 0.40 0.44 0.45 0.39 0.39 0.42 0.42 0.42 0.41 0.44 0.40 0.41 0.49 0.56 0.71 0.79 0.81 0.75 0.63 0.58 0.54 0.51 0.49 0.49 0.51 0.52 0.54
0.18 0.29 0.41 0.33 0.32 0.54 0.67 0.52 0.45 0.37 0.22 0.15 0.17 0.17 0.18 0.23 0.30 0.32 0.37 0.42 0.37 0.33 0.36 0.38 0.39 0.39 0.44 0.48 0.50 0.59 0.64 0.65 0.67 0.71 0.70 0.60 0.53 0.48 0.46 0.44 0.45 0.52 0.52 0.51
0.22 0.32 0.45 0.43 0.45 0.52 0.52 0.36 0.33 0.42 0.39 0.17 0.13 0.13 0.14 0.18 0.23 0.23 0.25 0.29 0.28 0.24 0.22 0.22 0.24 0.26 0.30 0.35 0.40 0.42 0.43 0.46 0.47 0.49 0.54 0.49 0.41 0.43 0.46 0.45 0.49 0.52 0.53 0.55
0.35 0.35 0.50 0.49 0.50 0.57 0.43 0.20 0.17 0.31 0.53 0.23 0.10 0.08 0.07 0.10 0.17 0.15 0.13 0.15 0.15 0.14 0.12 0.11 0.12 0.13 0.15 0.19 0.28 0.31 0.30 0.26 0.25 0.27 0.32 0.34 0.32 0.34 0.41 0.52 0.58 0.54 0.50 0.55
0.29 0.35 0.45 0.57 0.68 0.77 0.52 0.25 0.19 0.41 0.53 0.22 0.08 0.04 0.04 0.05 0.06 0.07 0.09 0.10 0.09 0.09 0.11 0.10 0.09 0.10 0.13 0.18 0.20 0.22 0.27 0.23 0.20 0.21 0.22 0.24 0.26 0.30 0.38 0.45 0.44 0.43 0.44 0.47
0.40 0.50 0.61 0.73 0.93 1.06 0.67 0.43 0.39 0.36 0.23 0.12 0.06 0.04 0.04 0.04 0.05 0.06 0.07 0.08 0.07 0.07 0.08 0.09 0.09 0.12 0.14 0.14 0.14 0.16 0.18 0.18 0.18 0.17 0.18 0.19 0.19 0.20 0.24 0.31 0.35 0.36 0.37 0.38
0.38 0.63 0.80 0.77 0.80 0.71 0.52 0.41 0.30 0.22 0.15 0.06 0.05 0.04 0.04 0.03 0.03 0.04 0.05 0.06 0.06 0.05 0.06 0.07 0.11 0.14 0.15 0.15 0.13 0.13 0.15 0.18 0.20 0.18 0.16 0.16 0.18 0.19 0.20 0.26 0.29 0.33 0.36 0.37
0.22 0.26 0.30 0.31 0.33 0.30 0.25 0.20 0.16 0.12 0.08 0.04 0.03 0.04 0.05 0.04 0.04 0.05 0.05 0.05 0.06 0.05 0.05 0.07 0.12 0.13 0.13 0.13 0.14 0.14 0.15 0.15 0.17 0.15 0.15 0.16 0.18 0.19 0.19 0.22 0.28 0.35 0.35 0.30
0.19 0.17 0.17 0.17 0.15 0.15 0.14 0.12 0.10 0.08 0.05 0.03 0.03 0.04 0.06 0.05 0.05 0.05 0.06 0.08 0.09 0.06 0.05 0.07 0.10 0.12 0.13 0.14 0.15 0.16 0.15 0.14 0.15 0.14 0.13 0.14 0.16 0.18 0.18 0.17 0.19 0.27 0.29 0.27
0.15 0.18 0.18 0.15 0.09 0.10 0.11 0.08 0.07 0.07 0.04 0.04 0.04 0.05 0.05 0.05 0.06 0.08 0.07 0.10 0.12 0.09 0.06 0.06 0.07 0.10 0.12 0.13 0.16 0.17 0.19 0.18 0.17 0.15 0.15 0.16 0.15 0.17 0.16 0.15 0.17 0.20 0.20 0.23

GEFSCGP_prec_meanprecacc_216.txt.gz
Total_Precipitation_Accumulation
0.45 0.72 1.01 1.07 1.08 0.99 0.83 0.80 0.82 0.75 0.71 0.79 0.80 0.83 0.86 0.86 0.89 0.81 0.65 0.61 0.60 0.57 0.58 0.56 0.57 0.59 0.60 0.60 0.58 0.58 0.64 0.71 0.83 1.03 1.32 1.71 1.93 2.06 2.05 2.06 1.96 1.74 1.52 1.53
0.58 0.58 0.49 0.57 0.61 0.70 0.70 0.76 0.77 0.71 0.62 0.64 0.62 0.65 0.67 0.66 0.60 0.57 0.51 0.47 0.50 0.49 0.53 0.47 0.44 0.45 0.45 0.44 0.47 0.58 0.59 0.66 0.79 1.06 1.33 1.64 1.98 2.05 2.06 2.06 2.02 1.89 1.75 1.76
0.49 0.44 0.41 0.52 0.59 0.65 0.67 0.74 0.72 0.76 0.72 0.63 0.58 0.63 0.65 0.59 0.49 0.43 0.40 0.40 0.43 0.41 0.45 0.43 0.39 0.37 0.36 0.32 0.30 0.43 0.52 0.66 0.93 1.26 1.53 1.69 1.96 2.04 2.08 2.04 2.05 2.07 2.01 1.91
0.55 0.42 0.41 0.52 0.53 0.53 0.71 0.51 0.47 0.53 0.76 0.78 0.60 0.73 0.61 0.52 0.54 0.48 0.43 0.39 0.40 0.41 0.40 0.39 0.41 0.38 0.31 0.26 0.24 0.31 0.40 0.63 1.01 1.35 1.57 1.81 2.17 2.22 2.13 2.14 2.12 2.12 2.14 2.10
0.54 0.38 0.39 0.45 0.39 0.37 0.51 0.42 0.42 0.47 0.62 0.67 0.51 0.53 0.54 0.48 0.54 0.55 0.49 0.46 0.41 0.37 0.33 0.32 0.33 0.33 0.32 0.31 0.31 0.36 0.49 0.71 1.01 1.24 1.50 1.86 2.11 2.18 2.27 2.17 2.12 2.12 2.19 2.21
0.46 0.32 0.31 0.34 0.32 0.31 0.36 0.45 0.51 0.52 0.62 0.67 0.36 0.42 0.55 0.48 0.40 0.43 0.45 0.44 0.38 0.34 0.32 0.33 0.34 0.34 0.36 0.37 0.42 0.52 0.68 0.81 1.03 1.24 1.48 1.67 1.90 2.02 2.12 2.18 2.10 2.08 2.14 2.24
0.44 0.33 0.25 0.23 0.33 0.33 0.37 0.65 0.90 0.89 0.89 0.69 0.30 0.41 0.55 0.40 0.31 0.32 0.36 0.39 0.37 0.39 0.41 0.44 0.45 0.52 0.59 0.62 0.64 0.72 0.83 0.95 1.06 1.19 1.32 1.39 1.53 1.68 1.70 1.84 1.91 2.02 2.01 2.08
0.39 0.37 0.23 0.20 0.27 0.34 0.33 0.51 0.84 0.90 0.77 0.60 0.44 0.62 0.61 0.41 0.34 0.34 0.34 0.40 0.43 0.50 0.57 0.67 0.73 0.81 0.89 0.90 0.90 0.96 1.01 1.03 1.05 1.11 1.18 1.22 1.26 1.35 1.40 1.42 1.42 1.58 1.72 1.76
0.37 0.35 0.18 0.19 0.22 0.27 0.31 0.38 0.45 0.59 0.50 0.52 0.52 0.64 0.59 0.43 0.41 0.41 0.42 0.47 0.56 0.73 0.83 0.92 1.04 1.04 1.03 1.02 0.98 1.00 1.04 1.01 1.01 1.05 1.05 1.00 0.98 1.03 1.14 1.16 1.21 1.25 1.32 1.33
0.35 0.38 0.22 0.18 0.25 0.23 0.27 0.38 0.52 0.79 0.89 0.79 0.65 0.76 0.75 0.58 0.49 0.46 0.53 0.64 0.80 1.05 1.18 1.29 1.38 1.31 1.21 1.22 1.27 1.16 1.07 0.99 0.95 0.96 0.99 0.90 0.87 0.92 0.97 0.94 0.99 0.98 1.00 1.02
0.29 0.42 0.33 0.23 0.23 0.25 0.30 0.42 0.58 0.84 0.93 1.09 1.15 1.19 0.90 0.72 0.67 0.75 0.89 1.00 1.19 1.43 1.58 1.67 1.68 1.58 1.39 1.27 1.26 1.19 1.06 0.94 0.83 0.82 0.90 0.91 0.84 0.85 0.90 0.88 0.81 0.76 0.80 0.86
0.27 0.42 0.40 0.25 0.20 0.24 0.40 0.56 0.76 1.19 1.18 1.07 1.26 1.40 1.00 0.80 0.80 0.83 0.93 1.09 1.30 1.42 1.49 1.52 1.48 1.46 1.34 1.24 1.15 1.11 0.99 0.83 0.77 0.82 0.84 0.86 0.78 0.73 0.78 0.79 0.81 0.71 0.68 0.70
0.36 0.50 0.61 0.53 0.47 0.46 0.54 0.60 0.69 0.86 1.07 1.16 1.36 1.53 1.05 0.80 0.79 0.85 0.97 1.06 1.11 1.10 1.19 1.28 1.32 1.20 1.14 1.07 1.01 1.10 1.11 0.97 0.93 0.96 1.02 0.94 0.81 0.76 0.76 0.75 0.80 0.73 0.68 0.69
0.41 0.48 0.58 0.70 0.68 0.66 0.68 0.60 0.57 0.72 0.98 1.05 1.12 1.19 0.93 0.75 0.74 0.77 0.86 0.90 0.97 0.98 1.03 1.04 1.09 1.04 1.05 0.98 0.94 1.06 1.12 1.11 1.15 1.20 1.18 1.02 0.90 0.81 0.74 0.72 0.74 0.72 0.72 0.73
0.35 0.35 0.30 0.31 0.30 0.38 0.58 0.67 0.60 0.63 0.74 1.00 0.89 0.77 0.71 0.65 0.66 0.68 0.75 0.79 0.81 0.86 0.85 0.78 0.75 0.76 0.80 0.78 0.74 0.80 0.91 1.00 1.11 1.17 1.07 0.96 0.86 0.74 0.68 0.71 0.68 0.71 0.77 0.76
0.27 0.26 0.20 0.16 0.15 0.24 0.49 0.59 0.59 0.58 0.58 0.61 0.54 0.52 0.43 0.41 0.47 0.50 0.56 0.55 0.57 0.60 0.59 0.56 0.51 0.51 0.55 0.49 0.49 0.54 0.65 0.81 1.00 1.08 0.97 0.82 0.74 0.72 0.66 0.63 0.59 0.59 0.62 0.64
0.24 0.28 0.31 0.23 0.18 0.27 0.50 0.50 0.54 0.41 0.29 0.28 0.34 0.34 0.27 0.29 0.38 0.42 0.49 0.49 0.44 0.46 0.48 0.50 0.49 0.45 0.47 0.43 0.43 0.51 0.59 0.73 0.81 0.83 0.77 0.67 0.62 0.59 0.54 0.51 0.52 0.54 0.55 0.56
0.19 0.31 0.43 0.35 0.34 0.55 0.68 0.53 0.46 0.38 0.23 0.16 0.18 0.20 0.20 0.24 0.32 0.34 0.39 0.45 0.41 0.37 0.40 0.43 0.44 0.44 0.47 0.51 0.52 0.60 0.66 0.67 0.70 0.73 0.72 0.64 0.58 0.53 0.48 0.45 0.47 0.56 0.57 0.54
0.22 0.32 0.47 0.45 0.47 0.53 0.52 0.36 0.34 0.43 0.40 0.18 0.14 0.16 0.16 0.19 0.25 0.24 0.26 0.31 0.31 0.27 0.24 0.25 0.27 0.29 0.35 0.39 0.43 0.44 0.46 0.48 0.50 0.53 0.57 0.51 0.44 0.46 0.50 0.48 0.52 0.55 0.56 0.58
0.35 0.36 0.51 0.51 0.53 0.59 0.43 0.20 0.17 0.32 0.54 0.24 0.11 0.09 0.08 0.11 0.18 0.15 0.14 0.15 0.15 0.16 0.15 0.14 0.14 0.16 0.18 0.22 0.32 0.37 0.34 0.29 0.29 0.30 0.36 0.36 0.34 0.37 0.44 0.55 0.61 0.57 0.53 0.57
0.30 0.36 0.47 0.60 0.71 0.78 0.53 0.26 0.20 0.43 0.54 0.23 0.09 0.05 0.05 0.06 0.07 0.08 0.10 0.11 0.10 0.11 0.13 0.14 0.12 0.13 0.15 0.20 0.23 0.26 0.31 0.27 0.24 0.23 0.25 0.26 0.29 0.32 0.41 0.47 0.45 0.44 0.46 0.48
0.41 0.52 0.64 0.76 0.96 1.08 0.68 0.45 0.42 0.39 0.24 0.14 0.07 0.05 0.05 0.06 0.06 0.07 0.08 0.09 0.08 0.08 0.10 0.10 0.11 0.13 0.16 0.17 0.16 0.18 0.21 0.22 0.23 0.21 0.21 0.22 0.22 0.22 0.26 0.32 0.36 0.38 0.39 0.39
0.40 0.65 0.83 0.82 0.84 0.74 0.54 0.44 0.34 0.25 0.17 0.08 0.07 0.06 0.05 0.05 0.06 0.06 0.07 0.07 0.07 0.06 0.07 0.08 0.12 0.15 0.17 0.16 0.14 0.15 0.17 0.20 0.24 0.23 0.20 0.19 0.20 0.20 0.22 0.27 0.31 0.34 0.37 0.38
0.23 0.27 0.32 0.34 0.36 0.34 0.28 0.24 0.20 0.15 0.11 0.06 0.05 0.06 0.07 0.07 0.07 0.07 0.07 0.07 0.08 0.06 0.06 0.08 0.13 0.15 0.16 0.16 0.17 0.18 0.18 0.18 0.20 0.19 0.19 0.19 0.20 0.21 0.20 0.24 0.30 0.36 0.36 0.32
0.20 0.18 0.19 0.19 0.17 0.18 0.18 0.16 0.15 0.12 0.08 0.06 0.04 0.05 0.08 0.07 0.07 0.06 0.07 0.10 0.10 0.08 0.07 0.09 0.11 0.14 0.15 0.17 0.19 0.20 0.19 0.17 0.18 0.17 0.16 0.17 0.18 0.20 0.20 0.19 0.21 0.27 0.30 0.28
0.16 0.20 0.21 0.16 0.11 0.13 0.14 0.11 0.10 0.10 0.09 0.07 0.06 0.07 0.07 0.07 0.08 0.09 0.08 0.11 0.13 0.10 0.07 0.08 0.09 0.11 0.13 0.15 0.19 0.21 0.23 0.22 0.20 0.18 0.17 0.18 0.18 0.19 0.17 0.17 0.18 0.21 0.21 0.24

GEFSCGP_prec_meanprecacc_222.txt.gz
Total_Precipitation_Accumulation
0.47 0.73 1.02 1.07 1.08 0.99 0.83 0.80 0.82 0.76 0.72 0.80 0.81 0.84 0.87 0.87 0.90 0.82 0.66 0.61 0.61 0.61 0.63 0.62 0.66 0.70 0.69 0.65 0.61 0.60 0.65 0.73 0.84 1.04 1.33 1.72 1.94 2.07 2.07 2.08 1.98 1.75 1.52 1.53
0.59 0.59 0.50 0.57 0.61 0.70 0.70 0.76 0.77 0.71 0.63 0.65 0.63 0.66 0.68 0.67 0.61 0.57 0.52 0.48 0.51 0.52 0.60 0.57 0.55 0.56 0.57 0.51 0.50 0.61 0.62 0.68 0.81 1.07 1.34 1.65 1.99 2.06 2.06 2.07 2.03 1.91 1.76 1.76
0.51 0.45 0.41 0.53 0.59 0.65 0.68 0.74 0.73 0.76 0.72 0.64 0.59 0.64 0.66 0.60 0.50 0.43 0.41 0.41 0.43 0.43 0.48 0.51 0.50 0.47 0.47 0.41 0.35 0.46 0.55 0.68 0.95 1.27 1.53 1.70 1.96 2.04 2.08 2.04 2.06 2.08 2.02 1.92
0.56 0.43 0.42 0.53 0.53 0.53 0.72 0.51 0.47 0.54 0.77 0.79 0.61 0.74 0.62 0.52 0.55 0.48 0.43 0.40 0.40 0.42 0.42 0.41 0.46 0.45 0.41 0.35 0.30 0.34 0.43 0.66 1.03 1.37 1.58 1.81 2.17 2.22 2.13 2.14 2.12 2.13 2.15 2.11
0.55 0.40 0.41 0.47 0.40 0.38 0.52 0.42 0.42 0.48 0.63 0.68 0.52 0.54 0.55 0.48 0.54 0.55 0.49 0.47 0.41 0.38 0.34 0.34 0.35 0.35 0.36 0.39 0.39 0.40 0.51 0.74 1.04 1.27 1.54 1.89 2.12 2.20 2.28 2.17 2.13 2.13 2.19 2.21
0.47 0.33 0.33 0.35 0.33 0.32 0.36 0.45 0.52 0.53 0.63 0.68 0.36 0.43 0.55 0.48 0.40 0.43 0.45 0.44 0.38 0.34 0.33 0.34 0.36 0.36 0.38 0.40 0.45 0.55 0.70 0.84 1.07 1.28 1.53 1.72 1.93 2.04 2.14 2.20 2.11 2.09 2.15 2.25
0.44 0.34 0.26 0.24 0.34 0.34 0.37 0.66 0.91 0.90 0.91 0.70 0.31 0.42 0.56 0.40 0.31 0.32 0.36 0.39 0.37 0.39 0.41 0.45 0.47 0.54 0.61 0.63 0.65 0.73 0.85 0.97 1.10 1.23 1.37 1.44 1.58 1.72 1.72 1.85 1.92 2.02 2.02 2.08
0.39 0.37 0.24 0.21 0.28 0.34 0.33 0.51 0.85 0.91 0.77 0.60 0.44 0.62 0.61 0.41 0.34 0.34 0.35 0.40 0.43 0.50 0.57 0.67 0.74 0.83 0.91 0.92 0.92 0.98 1.04 1.05 1.08 1.16 1.23 1.27 1.33 1.41 1.44 1.44 1.44 1.59 1.74 1.77
0.38 0.35 0.18 0.19 0.23 0.27 0.32 0.38 0.45 0.59 0.51 0.52 0.52 0.64 0.59 0.43 0.41 0.42 0.43 0.48 0.56 0.74 0.83 0.93 1.04 1.05 1.04 1.04 1.01 1.03 1.06 1.05 1.05 1.09 1.08 1.02 1.02 1.10 1.19 1.19 1.23 1.27 1.34 1.34
0.36 0.39 0.23 0.19 0.25 0.24 0.28 0.39 0.53 0.79 0.91 0.80 0.66 0.76 0.76 0.59 0.49 0.46 0.54 0.64 0.81 1.05 1.18 1.30 1.39 1.32 1.23 1.24 1.30 1.19 1.09 1.02 0.99 0.99 1.02 0.93 0.91 0.97 1.01 0.97 1.00 1.00 1.02 1.03
0.30 0.43 0.34 0.23 0.23 0.26 0.31 0.43 0.59 0.86 0.96 1.11 1.16 1.20 0.91 0.73 0.67 0.76 0.89 1.00 1.19 1.44 1.59 1.68 1.69 1.59 1.41 1.28 1.28 1.21 1.09 0.97 0.86 0.85 0.94 0.94 0.87 0.90 0.94 0.91 0.83 0.79 0.82 0.88
0.27 0.43 0.41 0.25 0.21 0.25 0.41 0.58 0.78 1.22 1.21 1.09 1.27 1.41 1.01 0.81 0.80 0.84 0.93 1.10 1.31 1.42 1.50 1.53 1.49 1.48 1.36 1.26 1.17 1.14 1.02 0.85 0.79 0.84 0.88 0.90 0.82 0.78 0.82 0.82 0.84 0.73 0.69 0.72
0.36 0.52 0.62 0.53 0.48 0.46 0.55 0.60 0.71 0.88 1.09 1.18 1.37 1.53 1.06 0.80 0.79 0.85 0.97 1.07 1.11 1.10 1.20 1.28 1.33 1.22 1.17 1.10 1.04 1.13 1.13 0.99 0.96 0.98 1.06 0.97 0.84 0.80 0.82 0.78 0.83 0.75 0.69 0.71
0.42 0.49 0.59 0.71 0.69 0.67 0.68 0.60 0.57 0.74 1.00 1.06 1.13 1.20 0.93 0.76 0.75 0.77 0.86 0.91 0.98 0.99 1.04 1.06 1.12 1.06 1.08 1.01 0.97 1.08 1.14 1.13 1.17 1.22 1.21 1.05 0.93 0.84 0.79 0.77 0.78 0.76 0.75 0.76
0.36 0.35 0.31 0.31 0.30 0.38 0.58 0.67 0.60 0.64 0.75 1.00 0.90 0.77 0.72 0.66 0.68 0.71 0.77 0.81 0.82 0.87 0.87 0.80 0.77 0.78 0.83 0.81 0.76 0.83 0.93 1.02 1.13 1.18 1.09 1.00 0.89 0.77 0.71 0.74 0.71 0.75 0.82 0.81
0.28 0.26 0.20 0.16 0.15 0.25 0.49 0.59 0.59 0.58 0.58 0.61 0.55 0.53 0.44 0.42 0.48 0.52 0.59 0.57 0.59 0.63 0.64 0.60 0.55 0.53 0.57 0.51 0.52 0.57 0.68 0.84 1.03 1.10 0.98 0.85 0.77 0.75 0.68 0.65 0.62 0.62 0.65 0.68
0.25 0.28 0.31 0.23 0.18 0.27 0.50 0.51 0.54 0.41 0.29 0.28 0.35 0.35 0.28 0.29 0.39 0.44 0.51 0.51 0.47 0.50 0.53 0.55 0.52 0.46 0.48 0.44 0.45 0.54 0.61 0.75 0.83 0.86 0.79 0.69 0.63 0.61 0.56 0.53 0.54 0.57 0.58 0.60
0.20 0.31 0.44 0.35 0.34 0.56 0.68 0.53 0.46 0.38 0.24 0.17 0.19 0.20 0.21 0.24 0.32 0.35 0.40 0.46 0.42 0.39 0.43 0.49 0.51 0.48 0.49 0.52 0.54 0.63 0.69 0.69 0.72 0.76 0.74 0.66 0.59 0.54 0.50 0.47 0.49 0.59 0.60 0.56
0.23 0.33 0.48 0.46 0.49 0.54 0.52 0.36 0.34 0.44 0.41 0.20 0.15 0.16 0.17 0.20 0.25 0.25 0.27 0.31 0.31 0.27 0.25 0.27 0.31 0.33 0.38 0.42 0.46 0.48 0.49 0.51 0.52 0.55 0.60 0.54 0.46 0.48 0.53 0.49 0.54 0.57 0.58 0.60
0.36 0.37 0.52 0.53 0.54 0.59 0.43 0.21 0.18 0.33 0.56 0.25 0.12 0.10 0.09 0.12 0.19 0.16 0.15 0.16 0.16 0.16 0.15 0.15 0.15 0.17 0.20 0.25 0.35 0.40 0.37 0.32 0.32 0.34 0.39 0.39 0.36 0.39 0.48 0.57 0.63 0.59 0.55 0.59
0.31 0.37 0.48 0.61 0.72 0.78 0.53 0.27 0.21 0.44 0.56 0.24 0.11 0.07 0.07 0.07 0.08 0.09 0.10 0.11 0.10 0.11 0.13 0.15 0.13 0.14 0.17 0.21 0.24 0.28 0.34 0.30 0.27 0.27 0.29 0.30 0.30 0.34 0.43 0.49 0.48 0.47 0.49 0.52
0.44 0.54 0.66 0.78 0.98 1.09 0.69 0.46 0.44 0.41 0.26 0.15 0.09 0.07 0.07 0.07 0.07 0.07 0.09 0.09 0.08 0.09 0.10 0.11 0.12 0.15 0.19 0.19 0.17 0.20 0.23 0.23 0.25 0.24 0.25 0.25 0.23 0.24 0.27 0.34 0.38 0.40 0.42 0.42
0.44 0.69 0.86 0.84 0.86 0.75 0.54 0.45 0.35 0.27 0.19 0.11 0.10 0.08 0.07 0.06 0.06 0.07 0.07 0.08 0.08 0.07 0.08 0.09 0.14 0.17 0.19 0.18 0.16 0.17 0.18 0.21 0.25 0.25 0.23 0.22 0.22 0.22 0.24 0.29 0.33 0.36 0.39 0.40
0.25 0.31 0.37 0.37 0.38 0.35 0.29 0.25 0.21 0.16 0.14 0.10 0.09 0.08 0.09 0.09 0.08 0.08 0.08 0.08 0.09 0.08 0.08 0.10 0.15 0.17 0.18 0.17 0.19 0.20 0.20 0.19 0.22 0.21 0.21 0.21 0.22 0.23 0.23 0.26 0.32 0.38 0.37 0.33
0.21 0.20 0.21 0.21 0.18 0.19 0.18 0.17 0.15 0.14 0.12 0.10 0.08 0.08 0.09 0.09 0.09 0.08 0.09 0.12 0.12 0.11 0.10 0.11 0.13 0.16 0.16 0.19 0.21 0.22 0.21 0.18 0.19 0.19 0.18 0.19 0.20 0.22 0.23 0.21 0.23 0.29 0.31 0.29
0.17 0.22 0.22 0.18 0.11 0.13 0.15 0.12 0.11 0.12 0.12 0.11 0.10 0.10 0.09 0.07 0.09 0.10 0.10 0.14 0.15 0.12 0.10 0.11 0.11 0.13 0.15 0.17 0.21 0.23 0.25 0.24 0.22 0.20 0.20 0.20 0.20 0.21 0.20 0.20 0.21 0.23 0.22 0.25

GEFSCGP_prec_meanprecacc_228.txt.gz
Total_Precipitation_Accumulation
0.48 0.75 1.03 1.08 1.08 1.00 0.83 0.81 0.83 0.76 0.73 0.80 0.81 0.84 0.88 0.88 0.91 0.83 0.66 0.62 0.61 0.61 0.63 0.63 0.67 0.72 0.73 0.71 0.68 0.65 0.68 0.76 0.87 1.07 1.35 1.75 1.97 2.09 2.08 2.09 2.00 1.77 1.53 1.54
0.60 0.61 0.51 0.57 0.61 0.70 0.71 0.77 0.77 0.72 0.63 0.65 0.63 0.66 0.68 0.67 0.62 0.58 0.52 0.48 0.52 0.52 0.60 0.58 0.56 0.59 0.62 0.61 0.61 0.70 0.67 0.72 0.84 1.09 1.36 1.67 2.00 2.07 2.08 2.08 2.05 1.93 1.77 1.77
0.52 0.45 0.41 0.53 0.59 0.65 0.68 0.74 0.73 0.77 0.73 0.64 0.60 0.65 0.66 0.60 0.50 0.44 0.41 0.41 0.43 0.43 0.49 0.51 0.51 0.50 0.54 0.52 0.48 0.58 0.65 0.74 0.99 1.30 1.55 1.71 1.98 2.05 2.09 2.05 2.07 2.09 2.03 1.93
0.57 0.43 0.43 0.53 0.54 0.54 0.72 0.51 0.47 0.54 0.78 0.80 0.62 0.75 0.62 0.52 0.55 0.48 0.43 0.40 0.41 0.42 0.42 0.42 0.47 0.47 0.44 0.41 0.39 0.45 0.54 0.75 1.10 1.42 1.61 1.83 2.19 2.24 2.14 2.15 2.13 2.13 2.16 2.12
0.56 0.41 0.42 0.48 0.41 0.39 0.52 0.42 0.43 0.48 0.64 0.69 0.52 0.54 0.56 0.49 0.54 0.55 0.49 0.47 0.42 0.38 0.35 0.34 0.35 0.36 0.37 0.41 0.42 0.46 0.61 0.84 1.12 1.33 1.58 1.92 2.14 2.21 2.29 2.18 2.14 2.14 2.20 2.22
0.47 0.34 0.34 0.37 0.34 0.32 0.37 0.46 0.53 0.53 0.64 0.68 0.37 0.43 0.56 0.48 0.41 0.43 0.45 0.44 0.38 0.34 0.33 0.34 0.36 0.37 0.39 0.42 0.47 0.58 0.74 0.90 1.14 1.33 1.57 1.75 1.96 2.06 2.16 2.21 2.12 2.10 2.16 2.26
0.44 0.34 0.27 0.25 0.35 0.35 0.38 0.67 0.92 0.90 0.91 0.70 0.31 0.42 0.56 0.40 0.31 0.32 0.36 0.39 0.38 0.39 0.41 0.45 0.47 0.55 0.62 0.64 0.67 0.75 0.87 1.01 1.14 1.27 1.40 1.47 1.61 1.75 1.75 1.88 1.94 2.04 2.04 2.09
0.40 0.38 0.24 0.22 0.28 0.35 0.34 0.52 0.86 0.91 0.78 0.60 0.44 0.62 0.61 0.41 0.34 0.34 0.35 0.40 0.43 0.50 0.57 0.67 0.74 0.83 0.92 0.94 0.95 1.00 1.06 1.07 1.11 1.19 1.25 1.30 1.37 1.45 1.48 1.49 1.48 1.62 1.76 1.79
0.38 0.35 0.19 0.19 0.23 0.28 0.33 0.39 0.46 0.60 0.51 0.53 0.53 0.65 0.59 0.43 0.41 0.42 0.43 0.48 0.56 0.74 0.83 0.93 1.04 1.05 1.05 1.06 1.04 1.06 1.09 1.07 1.08 1.12 1.12 1.06 1.06 1.14 1.24 1.24 1.29 1.30 1.36 1.36
0.36 0.39 0.23 0.19 0.26 0.25 0.29 0.40 0.54 0.81 0.92 0.80 0.66 0.76 0.76 0.59 0.49 0.46 0.54 0.65 0.81 1.06 1.18 1.30 1.39 1.32 1.24 1.26 1.32 1.22 1.14 1.07 1.03 1.03 1.06 0.98 0.95 1.02 1.07 1.03 1.07 1.04 1.05 1.05
0.30 0.44 0.34 0.24 0.24 0.27 0.32 0.44 0.60 0.88 0.97 1.12 1.16 1.20 0.92 0.74 0.67 0.76 0.89 1.01 1.19 1.44 1.59 1.68 1.69 1.60 1.41 1.29 1.29 1.24 1.15 1.04 0.92 0.90 0.99 0.99 0.91 0.94 0.98 0.95 0.89 0.84 0.87 0.92
0.27 0.44 0.42 0.26 0.21 0.25 0.41 0.59 0.79 1.24 1.22 1.09 1.28 1.42 1.02 0.82 0.81 0.84 0.93 1.10 1.31 1.42 1.50 1.53 1.49 1.49 1.37 1.27 1.18 1.16 1.07 0.92 0.86 0.90 0.93 0.95 0.85 0.83 0.87 0.86 0.89 0.78 0.73 0.74
0.37 0.52 0.63 0.54 0.48 0.47 0.55 0.61 0.71 0.88 1.10 1.18 1.38 1.54 1.07 0.81 0.80 0.85 0.97 1.07 1.12 1.11 1.20 1.29 1.34 1.23 1.18 1.11 1.05 1.16 1.18 1.06 1.01 1.02 1.09 1.01 0.86 0.85 0.88 0.83 0.88 0.80 0.72 0.72
0.42 0.49 0.59 0.71 0.69 0.67 0.69 0.61 0.57 0.74 1.01 1.06 1.13 1.20 0.95 0.77 0.76 0.78 0.87 0.92 0.99 1.00 1.05 1.07 1.13 1.08 1.09 1.04 1.00 1.12 1.17 1.16 1.20 1.26 1.23 1.08 0.96 0.88 0.84 0.82 0.84 0.80 0.77 0.78
0.37 0.35 0.31 0.31 0.30 0.38 0.58 0.68 0.60 0.64 0.75 1.01 0.90 0.77 0.73 0.67 0.69 0.73 0.78 0.82 0.83 0.87 0.88 0.81 0.78 0.80 0.86 0.85 0.80 0.86 0.96 1.04 1.15 1.20 1.12 1.03 0.93 0.81 0.75 0.78 0.75 0.78 0.83 0.82
0.28 0.26 0.20 0.16 0.15 0.25 0.50 0.59 0.59 0.58 0.58 0.61 0.55 0.54 0.44 0.42 0.49 0.53 0.60 0.58 0.60 0.64 0.64 0.61 0.56 0.55 0.59 0.52 0.55 0.59 0.70 0.86 1.04 1.11 0.99 0.87 0.80 0.79 0.72 0.68 0.65 0.65 0.68 0.70
0.26 0.29 0.32 0.23 0.18 0.27 0.51 0.51 0.54 0.41 0.29 0.28 0.35 0.36 0.28 0.29 0.39 0.44 0.52 0.52 0.47 0.50 0.53 0.55 0.53 0.47 0.50 0.46 0.47 0.56 0.63 0.76 0.86 0.88 0.81 0.71 0.66 0.64 0.58 0.55 0.56 0.59 0.61 0.62
0.21 0.32 0.45 0.36 0.35 0.57 0.68 0.53 0.46 0.39 0.24 0.17 0.20 0.21 0.21 0.25 0.32 0.35 0.40 0.46 0.42 0.39 0.43 0.49 0.51 0.49 0.50 0.54 0.56 0.65 0.71 0.71 0.74 0.78 0.76 0.68 0.61 0.56 0.52 0.48 0.50 0.60 0.62 0.59
0.23 0.34 0.49 0.47 0.49 0.54 0.52 0.36 0.35 0.44 0.42 0.20 0.16 0.16 0.17 0.20 0.25 0.25 0.27 0.31 0.31 0.27 0.25 0.27 0.32 0.34 0.39 0.43 0.48 0.49 0.50 0.52 0.54 0.57 0.62 0.56 0.47 0.50 0.54 0.51 0.55 0.59 0.59 0.62
0.36 0.38 0.54 0.54 0.56 0.60 0.43 0.21 0.18 0.33 0.57 0.26 0.13 0.11 0.09 0.12 0.19 0.16 0.15 0.16 0.16 0.16 0.16 0.15 0.15 0.17 0.20 0.25 0.36 0.41 0.39 0.34 0.33 0.36 0.41 0.41 0.38 0.41 0.49 0.58 0.64 0.60 0.56 0.61
0.32 0.38 0.50 0.63 0.74 0.79 0.53 0.27 0.22 0.46 0.57 0.25 0.11 0.08 0.08 0.08 0.09 0.09 0.11 0.12 0.10 0.12 0.14 0.15 0.14 0.14 0.18 0.22 0.25 0.29 0.35 0.32 0.29 0.30 0.32 0.32 0.32 0.35 0.44 0.50 0.48 0.48 0.50 0.53
0.45 0.55 0.67 0.80 1.00 1.11 0.69 0.47 0.45 0.42 0.26 0.16 0.10 0.07 0.08 0.09 0.08 0.08 0.09 0.10 0.09 0.09 0.11 0.12 0.13 0.15 0.20 0.20 0.18 0.21 0.24 0.25 0.27 0.26 0.28 0.27 0.25 0.25 0.28 0.35 0.39 0.42 0.43 0.45
0.45 0.70 0.88 0.86 0.88 0.76 0.55 0.46 0.36 0.27 0.20 0.11 0.10 0.09 0.08 0.08 0.08 0.08 0.08 0.08 0.08 0.08 0.09 0.11 0.15 0.19 0.21 0.19 0.17 0.18 0.20 0.24 0.28 0.27 0.26 0.25 0.24 0.24 0.26 0.30 0.34 0.37 0.41 0.43
0.26 0.32 0.39 0.40 0.40 0.37 0.31 0.26 0.22 0.18 0.16 0.11 0.10 0.10 0.11 0.11 0.11 0.10 0.09 0.09 0.10 0.09 0.09 0.12 0.16 0.18 0.19 0.18 0.20 0.21 0.21 0.21 0.23 0.23 0.23 0.23 0.24 0.25 0.25 0.28 0.33 0.39 0.39 0.36
0.21 0.21 0.23 0.23 0.20 0.20 0.20 0.18 0.18 0.17 0.14 0.11 0.10 0.10 0.14 0.14 0.11 0.10 0.10 0.13 0.14 0.12 0.11 0.12 0.14 0.17 0.17 0.19 0.21 0.23 0.22 0.20 0.20 0.20 0.19 0.20 0.21 0.24 0.24 0.22 0.23 0.30 0.33 0.31
0.17 0.22 0.23 0.18 0.12 0.14 0.17 0.15 0.14 0.15 0.13 0.12 0.12 0.13 0.13 0.10 0.10 0.11 0.11 0.15 0.17 0.13 0.12 0.13 0.13 0.15 0.16 0.18 0.22 0.24 0.27 0.25 0.22 0.21 0.20 0.21 0.21 0.22 0.22 0.22 0.22 0.25 0.25 0.27

GEFSCGP_prec_meanprecacc_234.txt.gz
Total_Precipitation_Accumulation
0.49 0.77 1.05 1.10 1.12 1.03 0.85 0.83 0.85 0.78 0.73 0.81 0.82 0.85 0.89 0.89 0.92 0.84 0.67 0.62 0.62 0.62 0.64 0.64 0.67 0.72 0.73 0.72 0.69 0.67 0.71 0.78 0.89 1.10 1.37 1.77 1.99 2.12 2.11 2.11 2.02 1.79 1.55 1.57
0.61 0.62 0.53 0.59 0.63 0.72 0.72 0.78 0.79 0.73 0.64 0.66 0.65 0.67 0.68 0.67 0.62 0.58 0.52 0.49 0.52 0.53 0.61 0.58 0.56 0.59 0.63 0.61 0.63 0.73 0.71 0.75 0.86 1.11 1.38 1.69 2.02 2.08 2.10 2.11 2.07 1.95 1.79 1.78
0.53 0.47 0.43 0.54 0.60 0.66 0.69 0.75 0.74 0.78 0.73 0.65 0.62 0.68 0.67 0.60 0.50 0.44 0.42 0.41 0.43 0.43 0.49 0.52 0.51 0.51 0.55 0.53 0.49 0.60 0.69 0.79 1.03 1.33 1.57 1.73 2.00 2.08 2.12 2.08 2.09 2.11 2.04 1.94
0.58 0.44 0.43 0.54 0.54 0.55 0.74 0.52 0.47 0.55 0.80 0.83 0.63 0.79 0.65 0.53 0.55 0.49 0.43 0.40 0.41 0.43 0.43 0.43 0.47 0.48 0.45 0.42 0.39 0.46 0.57 0.79 1.14 1.47 1.67 1.88 2.22 2.27 2.18 2.18 2.14 2.15 2.17 2.14
0.56 0.41 0.42 0.48 0.42 0.39 0.53 0.43 0.43 0.49 0.66 0.71 0.54 0.57 0.58 0.49 0.55 0.55 0.49 0.47 0.42 0.38 0.35 0.34 0.36 0.37 0.38 0.41 0.42 0.46 0.62 0.87 1.17 1.39 1.64 1.99 2.18 2.24 2.33 2.22 2.17 2.16 2.21 2.23
0.47 0.34 0.35 0.38 0.34 0.33 0.37 0.47 0.53 0.54 0.66 0.70 0.38 0.45 0.57 0.49 0.41 0.43 0.45 0.44 0.39 0.35 0.33 0.34 0.36 0.37 0.39 0.42 0.48 0.58 0.75 0.92 1.17 1.38 1.62 1.80 2.00 2.10 2.20 2.26 2.17 2.14 2.19 2.28
0.45 0.36 0.28 0.26 0.35 0.35 0.39 0.69 0.93 0.92 0.92 0.71 0.31 0.43 0.57 0.40 0.31 0.33 0.36 0.39 0.38 0.39 0.41 0.45 0.47 0.55 0.63 0.65 0.67 0.76 0.88 1.03 1.17 1.30 1.44 1.50 1.64 1.77 1.77 1.92 1.98 2.09 2.09 2.13
0.41 0.39 0.24 0.22 0.29 0.36 0.35 0.54 0.88 0.93 0.79 0.61 0.45 0.63 0.62 0.41 0.34 0.35 0.35 0.40 0.43 0.51 0.57 0.67 0.75 0.83 0.93 0.94 0.95 1.02 1.08 1.10 1.15 1.22 1.28 1.33 1.40 1.47 1.50 1.52 1.51 1.66 1.81 1.82
0.39 0.36 0.19 0.19 0.23 0.28 0.34 0.40 0.46 0.61 0.52 0.54 0.53 0.65 0.59 0.43 0.42 0.42 0.44 0.48 0.57 0.74 0.83 0.93 1.04 1.06 1.06 1.07 1.05 1.07 1.11 1.10 1.11 1.16 1.17 1.10 1.09 1.17 1.26 1.26 1.32 1.34 1.40 1.39
0.36 0.40 0.23 0.19 0.26 0.26 0.30 0.41 0.55 0.83 0.93 0.81 0.66 0.76 0.76 0.60 0.50 0.47 0.54 0.65 0.81 1.06 1.19 1.30 1.40 1.33 1.25 1.27 1.33 1.24 1.15 1.09 1.06 1.07 1.11 1.03 0.99 1.05 1.09 1.05 1.10 1.07 1.07 1.07
0.30 0.44 0.36 0.24 0.25 0.28 0.33 0.45 0.62 0.89 0.97 1.13 1.17 1.21 0.92 0.74 0.68 0.76 0.90 1.01 1.20 1.44 1.59 1.68 1.69 1.60 1.42 1.30 1.30 1.26 1.16 1.05 0.94 0.93 1.01 1.03 0.95 0.98 1.01 0.99 0.92 0.88 0.89 0.94
0.27 0.45 0.43 0.27 0.21 0.25 0.41 0.60 0.80 1.25 1.23 1.10 1.29 1.42 1.02 0.82 0.81 0.84 0.94 1.11 1.32 1.43 1.50 1.54 1.50 1.49 1.38 1.28 1.19 1.18 1.09 0.93 0.88 0.93 0.96 0.99 0.89 0.86 0.91 0.90 0.93 0.82 0.76 0.78
0.37 0.53 0.64 0.55 0.49 0.47 0.56 0.62 0.73 0.89 1.11 1.19 1.39 1.55 1.07 0.82 0.80 0.85 0.98 1.07 1.12 1.12 1.21 1.29 1.34 1.23 1.18 1.12 1.06 1.17 1.19 1.07 1.02 1.05 1.15 1.07 0.91 0.89 0.91 0.86 0.92 0.85 0.79 0.78
0.42 0.50 0.60 0.73 0.71 0.68 0.70 0.62 0.58 0.75 1.02 1.07 1.14 1.22 0.96 0.78 0.76 0.79 0.87 0.92 0.99 1.01 1.05 1.08 1.13 1.08 1.09 1.04 1.01 1.14 1.18 1.18 1.22 1.28 1.29 1.15 1.02 0.91 0.87 0.85 0.88 0.86 0.85 0.85
0.37 0.36 0.32 0.33 0.31 0.39 0.59 0.69 0.61 0.65 0.76 1.02 0.91 0.79 0.75 0.68 0.70 0.73 0.79 0.82 0.84 0.88 0.89 0.82 0.80 0.81 0.87 0.86 0.81 0.88 0.98 1.06 1.17 1.22 1.16 1.08 0.97 0.84 0.78 0.82 0.81 0.85 0.89 0.88
0.29 0.27 0.21 0.17 0.16 0.25 0.50 0.60 0.60 0.59 0.59 0.62 0.56 0.55 0.45 0.43 0.49 0.54 0.60 0.58 0.60 0.65 0.65 0.61 0.57 0.56 0.61 0.55 0.57 0.61 0.71 0.87 1.05 1.13 1.02 0.90 0.84 0.82 0.76 0.73 0.70 0.71 0.74 0.75
0.26 0.30 0.33 0.25 0.18 0.28 0.51 0.51 0.54 0.41 0.29 0.29 0.36 0.37 0.29 0.30 0.39 0.44 0.52 0.52 0.48 0.51 0.54 0.55 0.53 0.49 0.51 0.47 0.49 0.57 0.65 0.78 0.86 0.89 0.83 0.74 0.71 0.68 0.62 0.60 0.61 0.65 0.67 0.68
0.22 0.34 0.47 0.38 0.36 0.57 0.69 0.53 0.46 0.39 0.24 0.17 0.20 0.22 0.22 0.25 0.33 0.35 0.40 0.46 0.43 0.40 0.44 0.49 0.51 0.49 0.50 0.54 0.57 0.67 0.73 0.73 0.75 0.79 0.78 0.72 0.65 0.60 0.55 0.51 0.53 0.64 0.66 0.63
0.24 0.35 0.51 0.49 0.51 0.55 0.52 0.36 0.35 0.44 0.42 0.20 0.16 0.17 0.17 0.20 0.26 0.26 0.28 0.32 0.32 0.28 0.25 0.28 0.32 0.34 0.40 0.44 0.49 0.51 0.53 0.54 0.55 0.58 0.64 0.60 0.51 0.53 0.56 0.53 0.57 0.62 0.63 0.66
0.37 0.38 0.55 0.55 0.58 0.61 0.44 0.21 0.18 0.34 0.57 0.26 0.13 0.11 0.10 0.13 0.21 0.18 0.16 0.17 0.17 0.17 0.16 0.15 0.16 0.17 0.21 0.26 0.39 0.44 0.41 0.35 0.34 0.37 0.43 0.45 0.41 0.44 0.51 0.60 0.66 0.63 0.60 0.64
0.33 0.39 0.51 0.64 0.75 0.80 0.54 0.27 0.22 0.47 0.58 0.26 0.12 0.08 0.08 0.09 0.10 0.10 0.11 0.12 0.11 0.12 0.14 0.15 0.14 0.15 0.18 0.24 0.28 0.31 0.37 0.33 0.31 0.32 0.34 0.36 0.35 0.37 0.46 0.51 0.50 0.50 0.53 0.56
0.45 0.56 0.68 0.81 1.01 1.12 0.70 0.47 0.46 0.43 0.28 0.17 0.11 0.09 0.09 0.10 0.09 0.09 0.10 0.10 0.09 0.09 0.11 0.12 0.13 0.16 0.21 0.22 0.21 0.22 0.25 0.26 0.28 0.28 0.31 0.31 0.28 0.27 0.30 0.36 0.40 0.43 0.44 0.46
0.45 0.70 0.88 0.86 0.88 0.77 0.55 0.46 0.37 0.30 0.23 0.14 0.13 0.12 0.10 0.10 0.08 0.08 0.08 0.09 0.09 0.08 0.09 0.11 0.16 0.20 0.23 0.22 0.19 0.20 0.21 0.24 0.29 0.29 0.29 0.29 0.27 0.26 0.27 0.32 0.35 0.39 0.43 0.45
0.26 0.32 0.39 0.40 0.40 0.37 0.31 0.27 0.24 0.21 0.19 0.14 0.13 0.13 0.14 0.13 0.12 0.11 0.10 0.10 0.11 0.10 0.10 0.12 0.17 0.20 0.21 0.21 0.22 0.23 0.22 0.22 0.25 0.26 0.26 0.26 0.27 0.28 0.27 0.30 0.35 0.41 0.41 0.38
0.21 0.21 0.24 0.23 0.20 0.20 0.20 0.19 0.19 0.19 0.16 0.12 0.11 0.12 0.15 0.15 0.12 0.11 0.11 0.14 0.15 0.13 0.11 0.13 0.15 0.19 0.20 0.21 0.23 0.24 0.23 0.21 0.22 0.23 0.22 0.22 0.23 0.26 0.26 0.24 0.26 0.33 0.36 0.34
0.17 0.23 0.24 0.19 0.12 0.15 0.18 0.15 0.15 0.17 0.14 0.13 0.13 0.14 0.14 0.11 0.11 0.11 0.11 0.16 0.18 0.14 0.13 0.14 0.14 0.17 0.18 0.19 0.23 0.25 0.28 0.27 0.24 0.23 0.22 0.23 0.23 0.24 0.24 0.23 0.24 0.27 0.27 0.31

GEFSCGP_prec_meanprecacc_240.txt.gz
Total_Precipitation_Accumulation
0.50 0.78 1.06 1.11 1.13 1.03 0.86 0.84 0.87 0.80 0.74 0.82 0.84 0.86 0.89 0.89 0.92 0.84 0.67 0.63 0.63 0.63 0.65 0.65 0.68 0.73 0.75 0.73 0.71 0.70 0.74 0.81 0.94 1.14 1.40 1.80 2.02 2.14 2.12 2.12 2.04 1.81 1.59 1.59
0.62 0.63 0.53 0.59 0.63 0.72 0.73 0.79 0.80 0.75 0.65 0.67 0.66 0.69 0.69 0.67 0.62 0.59 0.53 0.49 0.53 0.54 0.62 0.60 0.57 0.59 0.64 0.62 0.64 0.74 0.73 0.78 0.90 1.15 1.42 1.73 2.05 2.10 2.11 2.12 2.09 1.98 1.83 1.81
0.53 0.47 0.43 0.54 0.60 0.67 0.69 0.75 0.74 0.79 0.75 0.66 0.62 0.69 0.68 0.61 0.51 0.45 0.42 0.41 0.44 0.44 0.51 0.54 0.53 0.52 0.56 0.53 0.50 0.61 0.70 0.81 1.07 1.37 1.62 1.77 2.02 2.10 2.14 2.09 2.10 2.14 2.08 1.97
0.58 0.44 0.43 0.54 0.54 0.55 0.74 0.52 0.48 0.55 0.81 0.86 0.65 0.80 0.66 0.54 0.56 0.50 0.44 0.40 0.41 0.43 0.44 0.45 0.49 0.50 0.47 0.43 0.40 0.47 0.58 0.81 1.17 1.51 1.72 1.92 2.24 2.29 2.19 2.19 2.15 2.16 2.19 2.17
0.56 0.41 0.43 0.49 0.42 0.40 0.53 0.43 0.43 0.49 0.67 0.73 0.56 0.58 0.59 0.52 0.57 0.56 0.50 0.47 0.42 0.38 0.35 0.36 0.38 0.40 0.41 0.44 0.44 0.48 0.64 0.90 1.21 1.44 1.69 2.03 2.22 2.28 2.36 2.24 2.20 2.19 2.24 2.26
0.47 0.34 0.35 0.38 0.34 0.33 0.38 0.47 0.54 0.55 0.67 0.71 0.39 0.46 0.58 0.50 0.42 0.44 0.46 0.45 0.39 0.35 0.33 0.35 0.38 0.39 0.42 0.45 0.51 0.62 0.79 0.96 1.22 1.43 1.67 1.85 2.05 2.16 2.25 2.30 2.21 2.17 2.24 2.33
0.46 0.36 0.28 0.26 0.36 0.36 0.39 0.69 0.94 0.93 0.93 0.72 0.33 0.44 0.58 0.41 0.31 0.33 0.37 0.40 0.38 0.40 0.42 0.47 0.49 0.56 0.64 0.67 0.70 0.80 0.92 1.08 1.22 1.35 1.49 1.56 1.69 1.84 1.83 1.97 2.02 2.12 2.13 2.17
0.42 0.40 0.25 0.22 0.29 0.36 0.35 0.54 0.89 0.95 0.80 0.63 0.46 0.64 0.64 0.42 0.35 0.35 0.36 0.41 0.43 0.51 0.58 0.68 0.76 0.85 0.94 0.96 0.98 1.05 1.11 1.13 1.19 1.26 1.33 1.38 1.45 1.53 1.55 1.55 1.53 1.68 1.84 1.85
0.39 0.36 0.19 0.20 0.23 0.29 0.34 0.40 0.47 0.61 0.53 0.54 0.54 0.66 0.61 0.45 0.42 0.42 0.44 0.49 0.57 0.74 0.83 0.93 1.05 1.10 1.09 1.09 1.08 1.12 1.16 1.15 1.15 1.20 1.21 1.14 1.14 1.22 1.30 1.29 1.33 1.36 1.42 1.41
0.37 0.40 0.24 0.20 0.27 0.26 0.31 0.42 0.56 0.84 0.94 0.82 0.67 0.77 0.77 0.60 0.50 0.47 0.54 0.65 0.81 1.06 1.19 1.31 1.43 1.38 1.31 1.30 1.36 1.28 1.21 1.14 1.11 1.12 1.17 1.08 1.05 1.10 1.12 1.08 1.12 1.10 1.10 1.09
0.30 0.45 0.36 0.25 0.25 0.28 0.34 0.46 0.63 0.90 0.99 1.14 1.18 1.22 0.93 0.74 0.68 0.76 0.90 1.01 1.20 1.44 1.59 1.69 1.70 1.62 1.45 1.32 1.33 1.30 1.18 1.08 0.98 0.99 1.08 1.10 1.03 1.05 1.07 1.04 0.97 0.93 0.92 0.97
0.28 0.45 0.45 0.28 0.22 0.26 0.42 0.60 0.81 1.26 1.23 1.11 1.30 1.43 1.03 0.84 0.82 0.85 0.94 1.11 1.32 1.43 1.51 1.54 1.50 1.50 1.39 1.29 1.21 1.19 1.10 0.95 0.91 0.96 1.01 1.06 0.97 0.94 0.98 0.96 0.98 0.88 0.81 0.81
0.37 0.53 0.66 0.56 0.50 0.48 0.57 0.62 0.73 0.90 1.11 1.20 1.40 1.56 1.09 0.86 0.83 0.87 0.99 1.09 1.13 1.12 1.21 1.30 1.35 1.24 1.19 1.13 1.07 1.19 1.21 1.08 1.04 1.07 1.18 1.13 0.99 0.95 0.96 0.91 0.98 0.90 0.84 0.83
0.43 0.50 0.61 0.74 0.72 0.69 0.72 0.63 0.58 0.75 1.03 1.08 1.14 1.23 1.00 0.89 0.84 0.82 0.89 0.94 1.02 1.04 1.07 1.09 1.14 1.09 1.10 1.06 1.03 1.16 1.20 1.19 1.23 1.30 1.32 1.20 1.08 0.97 0.91 0.88 0.92 0.92 0.90 0.89
0.37 0.37 0.32 0.33 0.32 0.40 0.60 0.71 0.61 0.65 0.76 1.02 0.92 0.80 0.79 0.75 0.75 0.76 0.81 0.84 0.85 0.90 0.90 0.83 0.81 0.82 0.88 0.88 0.83 0.90 1.00 1.08 1.19 1.25 1.21 1.15 1.03 0.89 0.82 0.85 0.84 0.88 0.94 0.92
0.29 0.27 0.21 0.17 0.16 0.26 0.51 0.61 0.61 0.59 0.59 0.63 0.57 0.56 0.46 0.44 0.50 0.55 0.62 0.60 0.62 0.67 0.67 0.63 0.59 0.58 0.63 0.56 0.58 0.62 0.73 0.89 1.08 1.15 1.07 0.96 0.89 0.87 0.79 0.76 0.74 0.76 0.80 0.82
0.26 0.30 0.33 0.25 0.19 0.28 0.51 0.52 0.55 0.42 0.29 0.29 0.37 0.38 0.30 0.31 0.40 0.46 0.54 0.55 0.50 0.53 0.55 0.57 0.55 0.50 0.52 0.48 0.50 0.58 0.66 0.80 0.90 0.92 0.87 0.79 0.75 0.73 0.66 0.64 0.67 0.72 0.74 0.76
0.22 0.34 0.47 0.38 0.36 0.58 0.69 0.54 0.47 0.39 0.24 0.17 0.20 0.24 0.25 0.28 0.35 0.37 0.43 0.51 0.46 0.42 0.45 0.50 0.52 0.49 0.51 0.55 0.58 0.68 0.75 0.75 0.78 0.82 0.81 0.76 0.70 0.65 0.60 0.56 0.59 0.70 0.73 0.70
0.24 0.36 0.52 0.50 0.51 0.55 0.52 0.37 0.35 0.44 0.42 0.20 0.16 0.18 0.18 0.21 0.28 0.29 0.31 0.36 0.36 0.31 0.28 0.29 0.32 0.34 0.40 0.44 0.50 0.52 0.54 0.56 0.57 0.61 0.68 0.64 0.56 0.58 0.61 0.58 0.63 0.67 0.67 0.69
0.37 0.39 0.56 0.56 0.58 0.62 0.44 0.21 0.18 0.34 0.57 0.26 0.13 0.12 0.11 0.15 0.23 0.22 0.18 0.19 0.20 0.20 0.18 0.16 0.16 0.19 0.22 0.27 0.39 0.45 0.42 0.36 0.36 0.39 0.45 0.48 0.45 0.48 0.54 0.63 0.69 0.67 0.63 0.68
0.33 0.40 0.52 0.64 0.75 0.80 0.54 0.27 0.22 0.48 0.59 0.26 0.12 0.09 0.10 0.11 0.12 0.13 0.13 0.14 0.13 0.13 0.16 0.16 0.15 0.15 0.19 0.24 0.29 0.32 0.38 0.34 0.32 0.34 0.35 0.37 0.37 0.40 0.48 0.53 0.51 0.52 0.55 0.60
0.46 0.57 0.68 0.81 1.02 1.12 0.70 0.47 0.47 0.44 0.28 0.18 0.12 0.10 0.11 0.12 0.10 0.10 0.12 0.12 0.11 0.10 0.12 0.13 0.14 0.16 0.21 0.22 0.22 0.24 0.26 0.27 0.29 0.30 0.32 0.32 0.29 0.30 0.32 0.37 0.42 0.44 0.46 0.48
0.45 0.71 0.89 0.87 0.88 0.77 0.55 0.47 0.38 0.30 0.25 0.17 0.16 0.14 0.12 0.11 0.09 0.10 0.10 0.10 0.10 0.09 0.10 0.12 0.17 0.20 0.23 0.23 0.21 0.21 0.22 0.25 0.30 0.30 0.30 0.30 0.29 0.28 0.30 0.33 0.36 0.41 0.45 0.48
0.26 0.33 0.40 0.40 0.41 0.37 0.31 0.27 0.25 0.22 0.21 0.16 0.14 0.14 0.16 0.15 0.13 0.12 0.11 0.12 0.12 0.11 0.11 0.13 0.18 0.20 0.23 0.23 0.23 0.24 0.24 0.24 0.26 0.26 0.27 0.27 0.28 0.30 0.30 0.33 0.38 0.44 0.44 0.40
0.22 0.22 0.24 0.24 0.20 0.21 0.20 0.20 0.20 0.19 0.16 0.13 0.12 0.13 0.17 0.17 0.14 0.12 0.13 0.16 0.16 0.14 0.13 0.14 0.16 0.21 0.22 0.23 0.24 0.26 0.25 0.23 0.23 0.24 0.23 0.23 0.26 0.28 0.29 0.27 0.29 0.36 0.38 0.36
0.18 0.23 0.24 0.20 0.13 0.15 0.18 0.16 0.15 0.17 0.15 0.13 0.14 0.16 0.15 0.13 0.12 0.13 0.13 0.18 0.19 0.16 0.14 0.15 0.16 0.19 0.20 0.21 0.25 0.27 0.30 0.28 0.25 0.24 0.23 0.24 0.25 0.27 0.27 0.26 0.26 0.29 0.30 0.34

GEFSCGP_prec_meanprecacc_246.txt.gz
Total_Precipitation_Accumulation
0.50 0.79 1.06 1.11 1.14 1.04 0.87 0.84 0.87 0.82 0.75 0.82 0.84 0.87 0.90 0.89 0.92 0.84 0.67 0.64 0.65 0.64 0.66 0.67 0.70 0.75 0.77 0.77 0.75 0.74 0.79 0.86 0.98 1.19 1.47 1.89 2.09 2.19 2.15 2.15 2.06 1.83 1.61 1.61
0.62 0.64 0.53 0.59 0.64 0.73 0.73 0.79 0.80 0.75 0.66 0.68 0.66 0.69 0.69 0.67 0.62 0.59 0.53 0.49 0.53 0.55 0.64 0.61 0.59 0.61 0.66 0.65 0.68 0.79 0.78 0.82 0.93 1.19 1.47 1.80 2.12 2.16 2.16 2.16 2.12 2.00 1.86 1.83
0.54 0.47 0.43 0.54 0.61 0.67 0.69 0.75 0.74 0.79 0.75 0.66 0.63 0.70 0.69 0.61 0.51 0.46 0.43 0.42 0.44 0.44 0.52 0.56 0.55 0.54 0.59 0.57 0.54 0.65 0.75 0.86 1.11 1.40 1.67 1.83 2.07 2.14 2.17 2.12 2.14 2.17 2.10 2.00
0.58 0.44 0.43 0.55 0.55 0.55 0.74 0.52 0.48 0.55 0.81 0.87 0.65 0.81 0.66 0.55 0.57 0.50 0.44 0.41 0.41 0.43 0.44 0.45 0.50 0.51 0.49 0.47 0.44 0.51 0.62 0.85 1.21 1.55 1.77 1.98 2.30 2.34 2.24 2.23 2.19 2.20 2.22 2.20
0.56 0.41 0.43 0.49 0.42 0.40 0.54 0.44 0.44 0.49 0.67 0.73 0.56 0.59 0.59 0.53 0.57 0.56 0.50 0.47 0.43 0.39 0.36 0.37 0.39 0.41 0.43 0.47 0.47 0.51 0.67 0.93 1.24 1.47 1.73 2.07 2.27 2.33 2.41 2.29 2.24 2.24 2.28 2.29
0.47 0.34 0.35 0.38 0.34 0.33 0.38 0.48 0.54 0.55 0.67 0.72 0.40 0.47 0.59 0.50 0.42 0.44 0.46 0.45 0.40 0.36 0.34 0.37 0.39 0.41 0.43 0.46 0.53 0.64 0.81 0.98 1.24 1.45 1.69 1.89 2.09 2.22 2.32 2.37 2.27 2.23 2.29 2.37
0.46 0.36 0.28 0.26 0.36 0.36 0.39 0.69 0.94 0.93 0.93 0.73 0.33 0.45 0.58 0.41 0.31 0.33 0.37 0.40 0.39 0.40 0.43 0.48 0.50 0.58 0.66 0.68 0.72 0.82 0.95 1.10 1.24 1.37 1.52 1.60 1.74 1.89 1.89 2.04 2.09 2.19 2.20 2.22
0.42 0.40 0.25 0.22 0.29 0.37 0.35 0.54 0.89 0.95 0.80 0.63 0.47 0.66 0.64 0.42 0.35 0.35 0.36 0.42 0.44 0.51 0.58 0.69 0.77 0.88 0.98 0.98 1.00 1.07 1.12 1.15 1.20 1.28 1.35 1.41 1.48 1.58 1.61 1.61 1.60 1.76 1.90 1.91
0.39 0.37 0.19 0.20 0.24 0.30 0.34 0.41 0.47 0.61 0.53 0.55 0.55 0.67 0.63 0.45 0.43 0.43 0.45 0.50 0.58 0.75 0.84 0.94 1.07 1.13 1.12 1.13 1.10 1.13 1.17 1.16 1.16 1.22 1.23 1.16 1.17 1.26 1.35 1.35 1.41 1.44 1.48 1.46
0.37 0.40 0.24 0.20 0.27 0.27 0.31 0.42 0.56 0.85 0.94 0.82 0.67 0.78 0.78 0.61 0.51 0.48 0.55 0.66 0.83 1.07 1.20 1.32 1.45 1.40 1.34 1.34 1.39 1.30 1.21 1.15 1.12 1.14 1.19 1.11 1.10 1.16 1.17 1.13 1.19 1.17 1.14 1.12
0.30 0.45 0.36 0.25 0.26 0.28 0.34 0.47 0.63 0.90 0.99 1.15 1.19 1.22 0.94 0.75 0.69 0.78 0.91 1.03 1.21 1.45 1.60 1.69 1.72 1.65 1.48 1.36 1.36 1.32 1.20 1.09 1.00 1.00 1.09 1.13 1.08 1.11 1.12 1.09 1.04 1.00 0.97 0.99
0.28 0.45 0.45 0.28 0.22 0.26 0.43 0.61 0.81 1.26 1.24 1.11 1.30 1.43 1.04 0.85 0.84 0.87 0.96 1.14 1.34 1.44 1.51 1.55 1.51 1.52 1.42 1.32 1.23 1.22 1.13 0.97 0.93 0.98 1.03 1.09 1.00 0.98 1.03 1.01 1.05 0.96 0.87 0.84
0.37 0.53 0.66 0.56 0.50 0.48 0.58 0.64 0.74 0.90 1.11 1.20 1.40 1.56 1.09 0.87 0.85 0.89 1.02 1.11 1.15 1.14 1.23 1.31 1.35 1.25 1.20 1.15 1.09 1.21 1.23 1.10 1.07 1.10 1.20 1.15 1.02 1.00 1.02 0.97 1.03 0.96 0.90 0.86
0.43 0.50 0.61 0.74 0.72 0.69 0.73 0.64 0.59 0.76 1.03 1.08 1.15 1.24 1.00 0.90 0.86 0.84 0.92 0.97 1.03 1.05 1.08 1.10 1.15 1.09 1.11 1.07 1.04 1.17 1.21 1.21 1.26 1.32 1.34 1.24 1.12 1.02 0.97 0.94 0.97 0.95 0.94 0.93
0.37 0.37 0.32 0.33 0.32 0.40 0.61 0.71 0.62 0.65 0.76 1.02 0.92 0.80 0.79 0.76 0.79 0.79 0.83 0.85 0.86 0.92 0.91 0.85 0.82 0.83 0.89 0.89 0.84 0.91 1.01 1.09 1.21 1.27 1.23 1.18 1.07 0.93 0.86 0.88 0.87 0.91 0.97 0.96
0.29 0.27 0.21 0.17 0.16 0.26 0.51 0.61 0.61 0.60 0.60 0.63 0.57 0.56 0.47 0.46 0.51 0.56 0.62 0.61 0.63 0.69 0.68 0.65 0.61 0.60 0.64 0.57 0.59 0.63 0.74 0.90 1.09 1.17 1.10 0.99 0.92 0.91 0.83 0.79 0.77 0.80 0.83 0.86
0.26 0.30 0.33 0.25 0.19 0.28 0.51 0.52 0.55 0.42 0.30 0.29 0.37 0.38 0.32 0.32 0.41 0.46 0.55 0.57 0.53 0.56 0.57 0.58 0.56 0.51 0.54 0.49 0.51 0.59 0.67 0.81 0.91 0.94 0.89 0.81 0.79 0.77 0.70 0.68 0.70 0.75 0.77 0.81
0.22 0.34 0.47 0.39 0.37 0.58 0.69 0.54 0.47 0.39 0.24 0.17 0.20 0.24 0.25 0.28 0.35 0.38 0.44 0.53 0.49 0.45 0.47 0.52 0.53 0.50 0.52 0.56 0.59 0.69 0.75 0.76 0.79 0.84 0.85 0.79 0.73 0.68 0.64 0.61 0.63 0.74 0.76 0.74
0.24 0.36 0.52 0.50 0.52 0.55 0.52 0.37 0.35 0.44 0.42 0.20 0.16 0.18 0.19 0.22 0.29 0.30 0.32 0.37 0.37 0.32 0.29 0.30 0.33 0.35 0.41 0.45 0.50 0.52 0.55 0.56 0.58 0.63 0.69 0.66 0.59 0.61 0.65 0.62 0.67 0.71 0.70 0.72
0.37 0.39 0.56 0.57 0.58 0.62 0.44 0.21 0.18 0.34 0.58 0.26 0.13 0.12 0.11 0.15 0.26 0.26 0.21 0.22 0.22 0.21 0.19 0.17 0.18 0.20 0.23 0.28 0.40 0.45 0.43 0.37 0.37 0.40 0.46 0.49 0.47 0.50 0.57 0.65 0.72 0.70 0.66 0.71
0.34 0.40 0.52 0.65 0.75 0.80 0.54 0.27 0.22 0.48 0.59 0.26 0.12 0.09 0.10 0.12 0.15 0.17 0.16 0.17 0.15 0.15 0.16 0.17 0.16 0.16 0.20 0.25 0.29 0.33 0.38 0.34 0.33 0.34 0.36 0.38 0.39 0.42 0.50 0.55 0.54 0.54 0.57 0.63
0.46 0.58 0.68 0.81 1.02 1.12 0.70 0.47 0.47 0.44 0.28 0.18 0.12 0.10 0.11 0.13 0.14 0.13 0.14 0.15 0.11 0.11 0.13 0.13 0.14 0.17 0.22 0.23 0.23 0.24 0.27 0.27 0.30 0.30 0.33 0.33 0.31 0.31 0.33 0.38 0.42 0.44 0.47 0.49
0.45 0.71 0.89 0.87 0.89 0.77 0.55 0.47 0.38 0.31 0.25 0.17 0.16 0.14 0.13 0.13 0.13 0.13 0.12 0.12 0.11 0.10 0.10 0.12 0.17 0.21 0.24 0.24 0.21 0.21 0.22 0.25 0.30 0.31 0.31 0.31 0.30 0.29 0.30 0.34 0.37 0.41 0.45 0.49
0.27 0.33 0.40 0.41 0.41 0.37 0.31 0.28 0.25 0.22 0.21 0.17 0.14 0.15 0.17 0.16 0.15 0.14 0.13 0.13 0.13 0.11 0.12 0.13 0.18 0.21 0.24 0.23 0.24 0.25 0.24 0.24 0.26 0.27 0.28 0.29 0.30 0.31 0.31 0.34 0.38 0.44 0.45 0.41
0.22 0.22 0.24 0.24 0.20 0.21 0.20 0.20 0.20 0.20 0.16 0.13 0.12 0.13 0.17 0.18 0.16 0.14 0.15 0.17 0.16 0.14 0.13 0.14 0.17 0.21 0.23 0.23 0.25 0.27 0.26 0.24 0.24 0.26 0.26 0.26 0.28 0.30 0.31 0.28 0.30 0.36 0.39 0.37
0.18 0.24 0.25 0.20 0.13 0.15 0.18 0.16 0.16 0.17 0.15 0.13 0.14 0.16 0.16 0.14 0.13 0.14 0.14 0.19 0.20 0.16 0.15 0.16 0.17 0.20 0.21 0.21 0.26 0.28 0.31 0.29 0.27 0.25 0.25 0.26 0.26 0.29 0.29 0.27 0.28 0.30 0.31 0.35